[[{"header":{"parameterUnit":"m.s-1","parameterCategory":1,"la1":30.6,"la2":29.2853,"lo1":-89.7004,"lo2":-87.6739,"dy":0.0162,"dx":0.0183,"nx":112,"ny":82,"refTime":"2026-05-17T12:00:00:Z","depth":0,"parameterNumber":2,"parameterNumberName":"U-component_of_WINDS"},"data":[0.0,0.0,0.0,0.0,0.0,0.0,0.0,0.0,0.0,0.0,0.0,0.0,0.0,0.0,0.0,0.0,0.0,0.0,0.0,0.0,0.0,0.0,0.0,0.0,0.0,0.0,0.0,0.0,0.0,0.0,0.0,0.0,0.0,0.0,0.0,0.0,0.0,0.0,0.0,0.0,0.0,0.0,0.0,0.0,0.0,0.0,0.0,0.0,0.0,0.0,0.0,0.0,0.0,0.0,0.0,0.0,0.0,0.0,0.0,0.0,0.0,0.0,0.0,0.0,0.0,0.0,0.0,0.0,0.0,0.0,0.0,0.0,0.0,0.0,0.0,0.0,0.0,0.0,0.0,0.0,0.0,0.0,0.0,0.0,0.0,0.0,0.0,0.0,0.0,0.0,-2.9831,-3.0726,-3.2045,-3.2996,-3.3093,-3.2993,-3.1838,-2.9189,0.0,0.0,0.0,0.0,0.0,0.0,0.0,0.0,0.0,0.0,0.0,0.0,0.0,0.0,0.0,0.0,0.0,0.0,0.0,0.0,0.0,0.0,0.0,0.0,0.0,0.0,0.0,0.0,0.0,0.0,0.0,0.0,0.0,0.0,0.0,0.0,0.0,0.0,0.0,0.0,0.0,0.0,0.0,0.0,0.0,0.0,0.0,0.0,0.0,0.0,0.0,0.0,0.0,0.0,0.0,0.0,0.0,0.0,0.0,0.0,0.0,0.0,0.0,0.0,0.0,0.0,0.0,0.0,0.0,0.0,0.0,0.0,0.0,0.0,0.0,0.0,0.0,0.0,0.0,0.0,0.0,0.0,0.0,0.0,0.0,0.0,0.0,0.0,0.0,0.0,0.0,0.0,0.0,0.0,0.0,0.0,0.0,0.0,0.0,0.0,0.0,0.0,0.0,0.0,-2.8946,-3.1427,-3.195,-3.2374,-3.3032,-3.2616,-3.1587,-2.9779,0.0,0.0,0.0,0.0,0.0,0.0,0.0,0.0,0.0,0.0,0.0,0.0,0.0,0.0,0.0,0.0,0.0,0.0,0.0,0.0,0.0,0.0,0.0,0.0,0.0,0.0,0.0,0.0,0.0,0.0,0.0,0.0,0.0,0.0,0.0,0.0,0.0,0.0,0.0,0.0,0.0,0.0,0.0,0.0,0.0,0.0,0.0,0.0,0.0,0.0,0.0,0.0,0.0,0.0,0.0,0.0,0.0,0.0,0.0,0.0,0.0,0.0,0.0,0.0,0.0,0.0,0.0,0.0,0.0,0.0,0.0,0.0,0.0,0.0,0.0,0.0,0.0,0.0,0.0,0.0,0.0,0.0,0.0,0.0,0.0,0.0,0.0,0.0,0.0,0.0,0.0,0.0,0.0,0.0,0.0,0.0,0.0,0.0,0.0,0.0,0.0,0.0,0.0,-2.8576,-2.9289,-3.1042,-3.1903,-3.2359,-3.2439,-3.2854,-3.2164,-2.993,-2.8725,0.0,0.0,0.0,0.0,0.0,0.0,0.0,0.0,0.0,0.0,0.0,0.0,0.0,0.0,0.0,0.0,0.0,0.0,0.0,0.0,0.0,0.0,0.0,0.0,0.0,0.0,0.0,0.0,0.0,0.0,0.0,0.0,0.0,0.0,0.0,0.0,0.0,0.0,0.0,0.0,0.0,0.0,0.0,0.0,0.0,0.0,0.0,0.0,0.0,0.0,0.0,0.0,0.0,0.0,0.0,0.0,0.0,0.0,0.0,0.0,0.0,0.0,0.0,0.0,0.0,0.0,0.0,0.0,0.0,0.0,0.0,0.0,0.0,0.0,0.0,0.0,0.0,0.0,0.0,0.0,0.0,0.0,0.0,0.0,0.0,0.0,0.0,0.0,0.0,0.0,0.0,0.0,0.0,0.0,0.0,0.0,0.0,0.0,0.0,0.0,0.0,0.0,-2.9648,-2.9896,-3.0392,-3.1632,-3.2277,-3.1918,-3.2847,-3.2441,-2.9955,-2.8473,0.0,0.0,0.0,0.0,0.0,0.0,0.0,0.0,0.0,0.0,0.0,0.0,0.0,0.0,0.0,0.0,0.0,0.0,0.0,0.0,0.0,0.0,0.0,0.0,0.0,0.0,0.0,0.0,0.0,0.0,0.0,0.0,0.0,0.0,0.0,0.0,0.0,0.0,0.0,0.0,0.0,0.0,0.0,0.0,0.0,0.0,0.0,0.0,0.0,0.0,0.0,0.0,0.0,0.0,0.0,0.0,0.0,0.0,0.0,0.0,0.0,0.0,0.0,0.0,0.0,0.0,0.0,0.0,0.0,0.0,0.0,0.0,0.0,0.0,0.0,0.0,0.0,0.0,0.0,0.0,0.0,0.0,0.0,0.0,0.0,0.0,0.0,0.0,0.0,0.0,0.0,0.0,0.0,0.0,0.0,0.0,0.0,0.0,0.0,0.0,0.0,0.0,-2.9368,-3.0365,-2.9661,-3.0756,-3.1649,-3.185,-3.216,-3.1612,-2.9905,-2.7806,0.0,0.0,0.0,0.0,0.0,0.0,0.0,0.0,0.0,0.0,0.0,0.0,0.0,0.0,0.0,0.0,0.0,0.0,0.0,0.0,0.0,0.0,0.0,0.0,0.0,0.0,0.0,0.0,0.0,0.0,0.0,0.0,0.0,0.0,0.0,0.0,0.0,0.0,0.0,0.0,0.0,0.0,0.0,0.0,0.0,0.0,0.0,0.0,0.0,0.0,0.0,0.0,0.0,0.0,0.0,0.0,0.0,0.0,0.0,0.0,0.0,0.0,0.0,0.0,0.0,0.0,0.0,0.0,0.0,0.0,0.0,0.0,0.0,0.0,0.0,0.0,0.0,0.0,0.0,0.0,0.0,0.0,0.0,0.0,0.0,0.0,0.0,0.0,0.0,0.0,0.0,0.0,0.0,0.0,0.0,0.0,0.0,0.0,0.0,0.0,0.0,0.0,-2.9028,-2.9835,-2.8854,-2.9952,-3.0865,-3.1149,-3.1989,-3.1736,-2.9916,0.0,0.0,0.0,0.0,0.0,0.0,0.0,0.0,0.0,0.0,0.0,0.0,0.0,0.0,0.0,0.0,0.0,0.0,0.0,0.0,0.0,0.0,0.0,0.0,0.0,0.0,0.0,0.0,0.0,0.0,0.0,0.0,0.0,0.0,0.0,0.0,0.0,0.0,0.0,0.0,0.0,0.0,0.0,0.0,0.0,0.0,0.0,0.0,0.0,0.0,0.0,0.0,0.0,0.0,0.0,0.0,0.0,0.0,0.0,0.0,0.0,0.0,0.0,0.0,0.0,0.0,0.0,0.0,0.0,0.0,0.0,0.0,0.0,0.0,0.0,0.0,0.0,0.0,0.0,0.0,0.0,0.0,0.0,0.0,0.0,0.0,0.0,0.0,0.0,0.0,0.0,0.0,0.0,0.0,0.0,0.0,0.0,0.0,0.0,0.0,0.0,0.0,-2.7368,-2.8814,-2.9388,-2.8377,-2.9859,-3.0896,-3.07,-3.2019,-3.1888,-2.9626,0.0,0.0,0.0,0.0,0.0,0.0,0.0,0.0,0.0,0.0,0.0,0.0,0.0,0.0,0.0,0.0,0.0,0.0,0.0,0.0,0.0,0.0,0.0,0.0,0.0,0.0,0.0,0.0,0.0,0.0,0.0,0.0,0.0,0.0,0.0,0.0,0.0,0.0,0.0,0.0,0.0,0.0,0.0,0.0,0.0,0.0,0.0,0.0,0.0,0.0,0.0,0.0,0.0,0.0,0.0,0.0,0.0,0.0,0.0,0.0,0.0,0.0,0.0,0.0,0.0,0.0,0.0,0.0,0.0,0.0,0.0,0.0,0.0,0.0,0.0,0.0,0.0,0.0,0.0,0.0,0.0,0.0,0.0,0.0,0.0,0.0,0.0,0.0,0.0,0.0,0.0,0.0,0.0,0.0,0.0,0.0,0.0,0.0,0.0,0.0,0.0,0.0,-2.7326,-2.8641,-2.9209,-2.8402,-3.0669,-3.1828,-3.0797,-3.2181,-3.1888,0.0,0.0,0.0,0.0,0.0,0.0,0.0,0.0,0.0,0.0,0.0,0.0,0.0,0.0,0.0,0.0,0.0,0.0,0.0,0.0,0.0,0.0,0.0,0.0,0.0,0.0,0.0,0.0,0.0,0.0,0.0,0.0,0.0,0.0,0.0,0.0,0.0,0.0,0.0,0.0,0.0,0.0,0.0,0.0,0.0,0.0,0.0,0.0,0.0,0.0,0.0,0.0,0.0,0.0,0.0,0.0,0.0,0.0,0.0,0.0,0.0,0.0,0.0,0.0,0.0,0.0,0.0,0.0,0.0,0.0,0.0,0.0,0.0,0.0,0.0,0.0,0.0,0.0,0.0,0.0,0.0,0.0,0.0,0.0,0.0,0.0,0.0,0.0,0.0,0.0,0.0,0.0,0.0,0.0,0.0,0.0,0.0,0.0,0.0,0.0,0.0,0.0,0.0,-2.6447,-2.853,-2.961,-2.8441,-2.9859,-3.0846,-3.07,-3.1645,-3.1266,-2.905,0.0,0.0,0.0,0.0,0.0,0.0,0.0,0.0,0.0,0.0,0.0,0.0,0.0,0.0,0.0,0.0,0.0,0.0,0.0,0.0,0.0,0.0,0.0,0.0,0.0,0.0,0.0,0.0,0.0,0.0,0.0,0.0,0.0,0.0,0.0,0.0,0.0,0.0,0.0,0.0,0.0,0.0,0.0,0.0,0.0,0.0,0.0,0.0,0.0,0.0,0.0,0.0,0.0,0.0,0.0,0.0,0.0,0.0,0.0,0.0,0.0,0.0,0.0,0.0,0.0,0.0,0.0,0.0,0.0,0.0,0.0,0.0,0.0,0.0,0.0,0.0,0.0,0.0,0.0,0.0,0.0,0.0,0.0,0.0,0.0,0.0,0.0,0.0,0.0,0.0,0.0,0.0,0.0,0.0,0.0,0.0,0.0,0.0,0.0,0.0,0.0,0.0,-2.6229,-2.8564,-2.9837,-2.8677,-3.0589,-3.1667,-3.1087,-3.223,-3.1951,-2.9401,0.0,0.0,0.0,0.0,0.0,0.0,0.0,0.0,0.0,0.0,0.0,0.0,0.0,0.0,0.0,0.0,0.0,0.0,0.0,0.0,0.0,0.0,0.0,0.0,0.0,0.0,0.0,0.0,0.0,0.0,0.0,0.0,0.0,0.0,0.0,0.0,0.0,0.0,0.0,0.0,0.0,0.0,0.0,0.0,0.0,0.0,0.0,0.0,0.0,0.0,0.0,0.0,0.0,0.0,0.0,0.0,0.0,0.0,0.0,0.0,0.0,0.0,0.0,0.0,0.0,0.0,0.0,0.0,0.0,0.0,0.0,0.0,0.0,0.0,0.0,0.0,0.0,0.0,0.0,0.0,0.0,0.0,0.0,0.0,0.0,0.0,0.0,0.0,0.0,0.0,0.0,0.0,0.0,0.0,0.0,0.0,0.0,0.0,0.0,0.0,0.0,0.0,-2.6693,-2.8723,-2.9887,-2.9337,-3.2236,-3.3513,-3.1833,-3.3475,-3.3269,-3.008,0.0,0.0,0.0,0.0,0.0,0.0,0.0,0.0,0.0,0.0,0.0,0.0,0.0,0.0,0.0,0.0,0.0,0.0,0.0,0.0,0.0,0.0,0.0,0.0,0.0,0.0,0.0,0.0,0.0,0.0,0.0,0.0,0.0,0.0,0.0,0.0,0.0,0.0,0.0,0.0,0.0,0.0,0.0,0.0,0.0,0.0,0.0,0.0,0.0,0.0,0.0,0.0,0.0,0.0,0.0,0.0,0.0,0.0,0.0,0.0,-4.0055,-3.9392,0.0,0.0,0.0,0.0,0.0,0.0,0.0,0.0,0.0,0.0,0.0,0.0,0.0,0.0,0.0,0.0,0.0,0.0,0.0,0.0,0.0,0.0,0.0,0.0,0.0,0.0,0.0,0.0,0.0,0.0,0.0,0.0,0.0,0.0,0.0,0.0,0.0,0.0,0.0,0.0,-2.8652,-2.8832,-2.9623,-3.201,-3.2543,-3.2849,-3.3073,-3.3692,-3.3043,-3.0583,-2.8976,0.0,0.0,0.0,0.0,0.0,0.0,0.0,0.0,0.0,0.0,0.0,0.0,0.0,0.0,0.0,0.0,0.0,0.0,0.0,0.0,0.0,0.0,0.0,0.0,0.0,0.0,0.0,0.0,0.0,0.0,0.0,0.0,0.0,0.0,0.0,0.0,0.0,0.0,0.0,0.0,0.0,0.0,0.0,0.0,0.0,0.0,0.0,0.0,0.0,0.0,0.0,0.0,0.0,0.0,0.0,0.0,0.0,0.0,0.0,-4.1013,-4.0449,0.0,0.0,0.0,0.0,0.0,0.0,0.0,0.0,0.0,0.0,0.0,0.0,0.0,0.0,0.0,0.0,0.0,0.0,0.0,0.0,0.0,0.0,0.0,0.0,0.0,0.0,0.0,0.0,0.0,0.0,0.0,0.0,0.0,0.0,0.0,0.0,0.0,0.0,0.0,0.0,-2.8675,-3.0246,-3.1568,-3.2367,-3.354,-3.4194,-3.3933,-3.3637,-3.2975,-3.1872,-2.9406,0.0,0.0,0.0,0.0,0.0,0.0,0.0,0.0,0.0,0.0,0.0,0.0,0.0,0.0,0.0,0.0,0.0,0.0,0.0,0.0,0.0,0.0,0.0,0.0,0.0,0.0,0.0,0.0,0.0,0.0,0.0,0.0,0.0,0.0,0.0,0.0,0.0,0.0,0.0,0.0,0.0,0.0,0.0,0.0,0.0,0.0,0.0,0.0,0.0,0.0,0.0,0.0,0.0,-4.0701,-4.1078,-4.1505,-4.1053,-4.1586,-4.284,-4.2202,-4.1856,-4.1534,-3.9895,0.0,0.0,0.0,0.0,0.0,0.0,0.0,0.0,0.0,0.0,0.0,0.0,0.0,0.0,0.0,0.0,0.0,0.0,0.0,0.0,0.0,0.0,-3.3551,-3.2724,-3.369,-3.4139,-3.1861,0.0,0.0,0.0,0.0,0.0,0.0,0.0,0.0,0.0,0.0,0.0,-2.9106,-3.2017,-3.3673,-3.269,-3.4437,-3.5355,-3.4483,-3.3268,-3.255,-3.2548,-2.9803,-2.7771,0.0,0.0,0.0,0.0,0.0,0.0,0.0,0.0,0.0,0.0,0.0,0.0,0.0,0.0,0.0,0.0,0.0,0.0,0.0,0.0,0.0,0.0,0.0,0.0,0.0,0.0,0.0,0.0,0.0,0.0,0.0,0.0,-4.303,-4.3021,0.0,0.0,0.0,0.0,0.0,0.0,0.0,0.0,0.0,0.0,0.0,0.0,0.0,-3.9044,-4.0074,-4.1656,-4.271,-4.3288,-4.4744,-4.5472,-4.5547,-4.5472,-4.5313,-4.5085,-4.4972,0.0,-4.2733,-4.1651,0.0,0.0,0.0,0.0,0.0,0.0,0.0,0.0,0.0,0.0,0.0,0.0,0.0,0.0,0.0,0.0,0.0,0.0,0.0,0.0,0.0,0.0,-3.5663,-3.3294,-3.3916,-3.4841,-3.4507,-3.2783,-3.0934,-2.9704,-2.8725,-2.7695,0.0,0.0,0.0,0.0,0.0,0.0,-3.3371,-3.3071,-3.3561,-3.6186,-3.4299,-3.3254,-3.4337,-3.2381,-3.0984,-3.0441,-2.9735,-2.8899,-2.7751,-2.7668,0.0,0.0,0.0,0.0,0.0,0.0,0.0,0.0,0.0,0.0,0.0,0.0,0.0,0.0,0.0,0.0,0.0,0.0,0.0,0.0,0.0,0.0,0.0,0.0,0.0,0.0,0.0,0.0,0.0,-4.2402,-4.3479,-4.3838,-4.3629,-4.2525,0.0,0.0,0.0,0.0,0.0,0.0,0.0,0.0,0.0,-4.0704,-4.1081,-4.1856,-4.3288,-4.4644,-4.5447,-4.5698,-4.6702,-4.7205,-4.7205,-4.7205,-4.7079,-4.6828,-4.6527,-4.5806,-4.4658,-4.2394,-4.0645,-3.9239,0.0,0.0,0.0,0.0,-3.6701,-3.6063,-3.8415,-3.9044,-3.8617,-3.7789,0.0,0.0,0.0,0.0,0.0,0.0,0.0,-3.4796,-3.3108,-3.4392,-3.5642,-3.3474,-3.4111,-3.5106,-3.4756,-3.4022,-3.3158,-3.2289,-3.1461,-3.0156,-2.7795,-2.7695,0.0,0.0,0.0,-3.1815,-3.3681,-3.3645,-3.386,-3.4725,-3.333,-3.2532,-3.3155,-3.114,-3.0013,-3.0466,-2.8922,-2.7919,-2.7778,-2.7261,-2.6379,0.0,0.0,0.0,0.0,0.0,0.0,0.0,0.0,0.0,0.0,0.0,0.0,0.0,0.0,0.0,0.0,0.0,0.0,0.0,0.0,0.0,0.0,0.0,0.0,0.0,0.0,0.0,0.0,-4.3629,-4.4426,-4.4796,-4.4953,-4.3805,0.0,0.0,0.0,0.0,0.0,0.0,-3.9899,-4.0049,-4.1153,-4.3363,-4.3815,-4.4694,-4.61,-4.7079,-4.7556,-4.7556,-4.8083,-4.8335,-4.8335,-4.8335,-4.8259,-4.8109,-4.7556,-4.7029,-4.6301,-4.3332,-4.1781,-4.1003,-3.9622,-3.8231,-3.7256,-3.9059,-3.9072,-3.8597,-4.14,-4.2183,-4.1697,-4.0401,-3.8693,-3.6793,-3.4627,0.0,0.0,0.0,0.0,-3.6086,-3.397,-3.4644,-3.5276,-3.3064,-3.3642,-3.4626,-3.4142,-3.4479,-3.4657,-3.4099,-3.3626,-3.2356,-2.9351,-2.9436,0.0,-2.947,-3.1062,-3.2547,-3.3268,-3.364,-3.3615,-3.2897,-3.2199,-3.1774,-3.1774,-2.9876,-2.9019,-2.9829,-2.8137,-2.7243,-2.7655,-2.7082,-2.6193,-2.5046,0.0,0.0,0.0,0.0,0.0,0.0,0.0,0.0,0.0,0.0,0.0,0.0,0.0,0.0,0.0,0.0,0.0,0.0,0.0,0.0,0.0,0.0,0.0,0.0,0.0,0.0,0.0,0.0,0.0,-4.6249,-4.6722,0.0,0.0,0.0,0.0,-3.8843,-3.9322,-4.0553,-4.266,-4.3263,-4.4568,-4.6803,-4.6903,-4.7205,-4.7782,-4.8385,-4.8686,-4.8686,-4.9238,-4.9515,-4.9515,-4.9515,-4.9213,-4.8686,-4.8109,-4.7581,-4.6892,-4.5196,-4.3815,-4.2785,-4.2238,-4.1576,-4.1121,-4.1781,-4.2308,-4.273,-4.2886,-4.3263,-4.3337,-4.1215,-3.8073,-3.4955,-3.4267,-3.4383,0.0,0.0,-3.7453,-3.8827,-3.5939,-3.5613,-3.5244,-3.181,-3.215,-3.3191,-3.3149,-3.3857,-3.4381,-3.4207,-3.3986,-3.3201,-3.1212,0.0,-3.0332,-3.0849,-3.04,-3.0897,-3.3196,-3.2883,-3.2404,-3.2325,-3.1184,-3.0411,-3.0411,-2.8793,-2.7597,-2.7235,-2.7766,-2.7998,-2.7631,-2.8158,-2.7742,-2.6251,-2.5227,0.0,0.0,0.0,0.0,0.0,0.0,0.0,0.0,0.0,0.0,0.0,0.0,0.0,0.0,0.0,0.0,0.0,0.0,0.0,0.0,0.0,0.0,0.0,0.0,0.0,0.0,0.0,0.0,-4.6832,-4.7672,0.0,-4.2484,-4.2248,-4.1983,-4.1059,-4.2158,-4.3539,-4.5045,-4.5648,-4.6627,-4.8134,-4.8184,-4.8435,-4.8987,-4.9188,-4.9289,-4.9314,-4.9515,-4.959,-4.959,-4.959,-4.949,-4.9238,-4.8309,-4.7807,-4.7531,-4.625,-4.5271,-4.4543,-4.3966,-4.302,-4.2102,-4.3323,-4.3433,-4.3232,-4.422,-4.4719,-4.4436,-4.1519,-3.8538,-3.5959,-3.5781,-3.5825,-3.5963,-3.62,-3.7676,-3.8622,-3.6271,-3.5893,-3.5445,-3.2919,-3.1977,-3.1652,-3.1652,-3.2384,-3.2878,-3.2612,-3.2705,-3.2557,-3.1731,-3.0997,-3.0443,-3.0306,-3.0656,-3.1371,-3.259,-3.1715,-3.103,-3.103,-2.9807,-2.9006,-2.9006,-2.7949,-2.7187,-2.7031,-2.6725,-2.654,-2.64,-2.6601,-2.6367,-2.5542,-2.4641,-2.3082,0.0,0.0,0.0,0.0,0.0,0.0,0.0,0.0,0.0,0.0,0.0,0.0,0.0,0.0,0.0,0.0,0.0,0.0,0.0,0.0,0.0,0.0,0.0,0.0,0.0,-4.6639,-4.7841,-4.6987,-4.7892,-4.7191,-4.3729,-4.3827,-4.3976,-4.3627,-4.4568,-4.5773,-4.7079,-4.7481,-4.8109,-4.9012,-4.9063,-4.9213,-4.959,-4.959,-4.959,-4.959,-4.959,-4.959,-4.959,-4.959,-4.959,-4.954,-4.8385,-4.7908,-4.7832,-4.6753,-4.61,-4.5723,-4.5347,-4.4581,-4.3782,-4.4817,-4.4744,-4.4208,-4.4544,-4.4228,-4.3096,-4.023,-3.7555,-3.5499,-3.5499,-3.5913,-3.6421,-3.7027,-3.7873,-3.8284,-3.6635,-3.6252,-3.5644,-3.3017,-3.1977,-3.1498,-3.0995,-3.1354,-3.1763,-3.1788,-3.2175,-3.2219,-3.151,-3.09,-3.0422,-3.0095,-3.0249,-3.0715,-3.1549,-3.0463,-2.9618,-2.9618,-2.8847,-2.8301,-2.8301,-2.7637,-2.7168,-2.7031,-2.6161,-2.5615,-2.5527,-2.5371,-2.5078,-2.4695,-2.3789,-2.2734,-2.1445,0.0,0.0,0.0,0.0,0.0,0.0,0.0,0.0,0.0,0.0,0.0,0.0,0.0,0.0,0.0,0.0,0.0,0.0,0.0,0.0,0.0,0.0,0.0,-4.5355,-4.6899,-4.7765,-4.6813,-4.7348,-4.7209,-4.5797,-4.503,-4.5171,-4.6276,-4.6376,-4.7079,-4.8686,-4.8786,-4.9038,-4.9565,-4.959,-4.959,-4.959,-4.959,-4.959,-4.959,-4.959,-4.959,-4.959,-4.9565,-4.9565,-4.9515,-4.8385,-4.7883,-4.7807,-4.6753,-4.6301,-4.6301,-4.6301,-4.6301,-4.6301,-4.6301,-4.6301,-4.5985,-4.3832,-4.1737,-3.9528,-3.7395,-3.5165,-3.3418,-3.3418,-3.4487,-3.6051,-3.7686,-3.8141,-3.7977,-3.7141,-3.6779,-3.5733,-3.1872,-3.2035,-3.2644,-3.1228,-3.0898,-3.1148,-3.1967,-3.2544,-3.2339,-3.062,-3.0276,-3.0224,-3.0224,-2.9164,0.0,-3.0068,-2.9112,-2.8301,-2.8301,-2.8301,-2.8301,-2.8301,-2.7891,-2.7461,-2.7031,-2.6142,-2.5527,-2.5125,-2.4668,-2.4238,-2.3828,-2.2988,-2.2344,-2.1934,0.0,0.0,0.0,0.0,0.0,0.0,0.0,0.0,0.0,0.0,0.0,0.0,0.0,0.0,0.0,0.0,0.0,0.0,0.0,0.0,0.0,-4.5393,-4.7097,-4.6677,-4.9589,-5.1017,-4.9079,-4.9447,-4.9037,-4.6891,-4.6531,-4.6728,-4.7431,-4.7857,-4.8284,-4.8736,-4.9163,-4.9439,-4.959,-4.959,-4.959,-4.959,-4.959,-4.959,-4.959,-4.959,-4.959,-4.959,-4.9188,-4.8987,-4.8937,-4.7832,-4.7355,-4.728,-4.6602,-4.6301,-4.6301,-4.6301,-4.6301,-4.6301,-4.6301,-4.6301,-4.5985,-4.3832,-4.1737,-3.9528,-3.7395,-3.5165,-3.3418,-3.3418,-3.3713,-3.4383,-3.599,-3.7003,-3.7493,-3.6901,-3.6533,-3.5622,-3.311,-3.1977,-3.1383,-3.0995,-3.0898,-3.0858,-3.0767,-3.0621,-3.0567,-3.081,-2.9737,-2.8847,-2.8847,-2.8548,-2.8441,-2.8794,-2.8548,-2.8301,-2.8301,-2.8301,-2.8301,-2.8301,-2.7617,-2.7012,-2.6582,-2.5742,-2.5195,-2.5125,-2.5008,-2.4891,-2.4727,-2.3887,-2.3223,0.0,0.0,0.0,0.0,0.0,0.0,0.0,0.0,0.0,0.0,0.0,0.0,0.0,0.0,0.0,0.0,0.0,0.0,0.0,0.0,0.0,0.0,-4.7052,-4.9398,-4.8446,-5.0846,-5.1885,-4.9799,-4.987,-4.9409,-4.7626,-4.7456,-4.7682,-4.8234,-4.8586,-4.8862,-4.9113,-4.9414,-4.959,-4.959,-4.959,-4.959,-4.959,-4.959,-4.959,-4.959,-4.959,-4.9464,-4.9238,-4.8912,-4.8636,-4.836,-4.7506,-4.7068,-4.7018,-4.5747,-4.5671,-4.6301,0.0,0.0,0.0,0.0,-4.6301,-4.5874,-4.2814,-4.0915,-3.9383,-3.6311,-3.4478,-3.3418,-3.3418,-3.3902,-3.4736,-3.6356,-3.7094,-3.743,-3.7679,-3.6895,-3.5501,-3.3579,-3.2416,-3.1652,-3.1054,-3.0898,-3.082,-3.0547,-3.0,0.0,-3.0295,-2.9266,-2.8301,-2.8301,-2.8301,-2.8301,-2.8301,-2.8301,-2.8301,-2.8301,-2.8301,-2.8301,-2.8301,-2.7676,0.0,0.0,0.0,-2.5176,-2.4805,-2.4805,0.0,0.0,0.0,0.0,0.0,-2.4004,0.0,0.0,-2.3535,-2.3437,0.0,0.0,0.0,0.0,0.0,0.0,0.0,0.0,0.0,0.0,0.0,0.0,0.0,0.0,0.0,0.0,-4.8657,-5.2222,-5.0477,-5.147,-5.1708,-4.9925,-4.9536,-4.912,-4.8266,-4.8032,-4.8184,-4.8812,-4.8862,-4.9088,-4.9565,-4.959,0.0,0.0,0.0,-4.959,-4.959,-4.959,-4.9565,-4.9515,-4.9515,-4.9213,-4.8661,-4.8611,-4.8309,-4.7782,-4.7255,-4.6993,-4.6881,-4.4629,-4.462,-4.6059,-4.624,-4.6301,-4.6301,-4.6301,-4.6301,-4.5704,-4.1399,0.0,0.0,-3.4853,-3.3418,-3.3418,-3.3418,-3.4487,-3.6173,-3.7746,-3.7879,-3.7826,-3.8863,-3.7465,-3.5378,-3.3558,-3.2964,-3.2473,-3.117,-3.0898,-3.0898,-3.0898,-3.0176,-2.9626,-2.9626,-2.8867,-2.8301,-2.8301,-2.8301,-2.8301,-2.8301,-2.8441,-2.8441,-2.8301,-2.8441,0.0,-2.8281,-2.791,-2.748,-2.7051,-2.62,-2.5401,-2.4668,-2.4687,-2.4863,-2.5262,-2.5302,-2.5644,-2.6387,-2.6445,-2.6641,-2.6953,-2.4668,-2.4245,0.0,0.0,0.0,0.0,0.0,0.0,0.0,0.0,0.0,0.0,0.0,0.0,0.0,0.0,0.0,-4.5853,-4.8656,-5.0985,-5.2223,-5.3656,-5.4031,-5.2437,-5.1155,-5.0246,-4.9808,-4.86,-4.8335,-4.9364,-4.9439,-4.949,-4.959,-4.959,-4.959,-4.959,-4.959,-4.959,-4.959,-4.959,-4.9364,-4.8937,-4.8937,0.0,-4.8058,-4.7631,-4.738,-4.7193,-4.6702,-4.6476,-4.633,-4.4484,-4.3917,-4.4374,-4.5732,-4.6301,-4.6301,-4.6301,-4.6301,-4.5704,-4.1399,-3.9927,-3.9192,-3.4853,-3.3418,-3.3418,-3.3418,-3.4487,0.0,-3.7746,-3.8389,-3.8695,-3.8991,-3.7266,-3.5013,-3.3473,-3.2207,-3.1286,-3.0957,-3.0898,-3.0898,-3.0898,-3.0176,-2.9626,-2.9626,-2.8867,-2.8301,-2.8301,-2.8301,-2.8301,-2.8301,-2.925,-2.9513,-2.8388,-2.925,-2.946,-2.8388,-2.791,-2.748,-2.7051,-2.6543,-2.6191,-2.6016,-2.6328,-2.6387,-2.6133,-2.6465,-2.6562,-2.6387,-2.6738,-2.6934,-2.7012,-2.6504,-2.6406,0.0,0.0,0.0,0.0,0.0,0.0,0.0,0.0,0.0,0.0,0.0,-3.9804,-4.0667,0.0,-4.5102,-4.7028,-4.9659,-5.1818,-5.2852,-5.4252,-5.4641,-5.3174,-5.1899,-5.0783,-4.9864,-4.8887,-4.8586,-4.9138,-4.9439,-4.959,-4.959,-4.959,-4.959,-4.959,-4.959,-4.959,-4.959,-4.959,-4.9314,-4.8761,-4.8761,-4.8335,-4.7506,-4.7193,-4.6918,-4.6702,-4.6426,-4.6301,-4.624,-4.5342,-4.3979,-4.2706,-4.5281,-4.6301,-4.6301,-4.6301,-4.6301,-4.5704,-4.1399,-3.9927,-3.9192,-3.4853,-3.3418,-3.3418,-3.3418,-3.5108,-3.7205,-3.7985,-3.9148,-4.0117,-4.0171,-3.777,-3.5123,-3.4403,-3.2493,-3.0898,-3.0898,-3.0898,-3.0898,-3.0898,-3.0176,-2.9626,-2.9626,-2.8867,-2.8301,-2.8301,-2.8301,-2.8301,-2.8301,-2.946,-2.9807,-2.8441,-2.9513,-2.9755,-2.8388,-2.791,-2.763,-2.7363,-2.6934,-2.6699,-2.6699,-2.6894,-2.6914,-2.6699,-2.6914,-2.7012,-2.7031,-2.7246,-2.7441,-2.7656,-2.7656,-2.7539,0.0,0.0,0.0,0.0,0.0,0.0,0.0,-3.6463,-3.6661,-3.7387,-3.9094,-4.0752,-4.1656,-4.401,-4.6412,-4.7897,-5.0628,-5.2751,-5.3361,-5.4458,-5.4743,-5.3571,-5.2232,-5.0892,-4.9441,-4.8784,-4.8485,-4.8611,-4.9113,-4.9439,-4.9439,-4.954,-4.959,-4.959,-4.959,-4.959,-4.959,-4.959,-4.9264,-4.8611,-4.8611,-4.8033,-4.6918,-4.6918,-4.6728,-4.6301,-4.6301,-4.5914,-4.5342,-4.6059,-4.4312,-4.1565,-4.4951,-4.6301,-4.6301,-4.6301,-4.612,-4.5255,-4.1276,-3.968,-3.8719,-3.4727,-3.3418,-3.3418,-3.3418,-3.5396,-3.7805,-3.8104,-3.949,-4.0927,-4.1222,-3.8557,-3.5672,-3.5343,-3.3268,-3.1286,-3.0937,-3.0898,-3.0898,-3.0898,-3.0234,-2.9668,-2.9646,-2.8926,-2.8398,-2.8301,-2.8301,-2.8301,-2.8301,-2.946,-2.9807,-2.8441,-2.9513,-2.9755,-2.8388,-2.7988,-2.7845,-2.7845,-2.7461,-2.7266,-2.7266,-2.7266,-2.7266,-2.7266,-2.7266,-2.7441,-2.7845,-2.7845,-2.7969,-2.8301,-2.8301,-2.8105,-3.6989,-3.5722,-3.5083,-3.6177,-3.5936,-3.6398,0.0,-4.0277,-4.0249,-4.1358,-4.2484,-4.3388,-4.3514,-4.4666,-4.6469,-4.92,-5.0381,-5.1889,-5.456,-5.5078,-5.5128,-5.4976,-5.2512,-5.0401,-4.9414,-4.8068,-4.7506,-4.7958,-4.8535,-4.8862,-4.8862,-4.9339,-4.959,-4.959,-4.959,-4.959,-4.959,-4.959,-4.9063,-4.8008,-4.8008,-4.7431,-4.6401,-4.6401,-4.6376,-4.6301,-4.6301,-4.4583,-4.2011,-4.5037,-4.4312,-4.1565,-4.4951,-4.6301,-4.6301,-4.6301,-4.5342,-4.3564,-4.0822,-3.8872,-3.7108,-3.4306,-3.3418,-3.3418,-3.3418,-3.4674,-3.6356,-3.7805,-3.8666,-3.952,-4.0927,-3.9282,-3.6918,-3.5617,-3.4069,-3.2473,-3.117,-3.0898,-3.0898,-3.0898,-3.0469,-3.0,-2.9629,-2.916,-2.8711,-2.834,-2.8301,-2.8301,-2.8301,-2.946,-2.9807,-2.8441,-2.9513,-2.9755,-2.8388,-2.8242,-2.8223,-2.8223,-2.8184,-2.8144,-2.8144,-2.8144,-2.8144,-2.8144,-2.8144,-2.8164,-2.8223,-2.8223,-2.8242,-2.8301,-2.8301,-2.8262,-3.7606,-3.6586,-3.5953,-3.7482,-3.7889,-3.8542,-4.0774,-4.1404,-4.1781,-4.2886,-4.4016,-4.4769,-4.4769,-4.6134,-4.7932,-5.0051,-5.1313,-5.2775,-5.4896,-5.5179,-5.4726,-5.3517,-5.1771,-5.0518,-5.0146,-4.8273,-4.723,-4.7431,-4.7958,-4.8259,-4.8259,-4.8812,-4.8962,-4.8636,-4.9238,-4.9439,-4.9113,-4.9113,-4.8711,-4.7908,-4.7606,-4.7054,-4.6301,-4.6301,-4.6301,-4.6301,-4.6301,-4.4374,-4.1373,-4.3793,-4.3357,-4.1437,-4.3855,-4.5403,-4.6301,-4.6301,-4.5085,-4.3037,-4.0731,-3.8634,-3.6562,-3.4163,-3.3418,-3.3418,-3.3418,-3.4487,-3.5928,-3.6578,-3.7834,-3.9054,-3.9709,-3.8695,-3.7133,-3.5672,-3.4181,-3.2701,-3.1228,-3.0898,-3.0898,-3.0898,-3.0508,-3.0137,-2.9961,-2.9375,-2.8867,-2.8691,-2.8437,-2.8301,-2.8301,-2.946,-3.0068,-2.9513,-2.925,-2.89,-2.8354,-2.8301,-2.8301,-2.8301,-2.8301,-2.8301,-2.8301,-2.8301,-2.8301,-2.8301,-2.8301,-2.8301,-2.8301,-2.8301,-2.8301,-2.8301,-2.8301,-2.8301,-3.7942,-3.754,-3.7416,-3.8768,-3.9622,-4.04,-4.1354,-4.2108,-4.2836,-4.3639,-4.4568,-4.5296,-4.5472,-4.6693,-4.8347,-5.0352,-5.1672,-5.3016,-5.4896,-5.5029,-5.4348,-5.28,-5.1211,-5.0188,-5.0188,-4.8218,-4.6903,-4.6903,-4.7405,-4.7682,-4.7682,-4.8234,-4.8335,-4.7933,-4.8711,-4.8937,-4.8535,-4.8535,-4.8259,-4.7682,-4.7305,-4.6853,-4.6301,-4.6301,-4.6301,-4.624,-4.5793,-4.3941,-4.1309,-4.2517,-4.2328,-4.1373,-4.302,-4.4767,-4.6301,-4.6125,-4.4487,-4.214,-4.0478,-3.8192,-3.5704,-3.3997,-3.3418,-3.3418,-3.3418,-3.4195,-3.5211,-3.5683,-3.675,-3.7872,-3.8185,-3.7676,-3.665,-3.509,-3.3845,-3.2701,-3.1228,-3.0898,-3.0898,-3.0898,-3.0625,-3.0351,-3.0215,-2.959,-2.9062,-2.8945,-2.8555,-2.8301,-2.8301,-2.9164,-2.9755,-2.9755,-2.89,-2.8301,-2.8301,-2.8301,-2.8301,-2.8301,-2.8301,-2.8301,-2.8301,-2.8301,-2.8301,-2.8301,-2.8301,-2.8301,-2.8301,-2.8301,-2.8301,-2.8301,-2.8301,-2.8301,-3.8119,-3.8378,-3.886,-3.955,-4.0475,-4.143,-4.2062,-4.2961,-4.3765,-4.379,-4.4242,-4.4819,-4.5372,-4.5556,-4.6714,-5.0103,-5.0768,-5.1835,-5.4794,-5.464,-5.4221,-5.4142,-5.1104,-4.8945,-4.8945,-4.7383,-4.6326,-4.6326,-4.6853,-4.7093,-4.7093,-4.7657,-4.7933,-4.7908,-4.7933,-4.7958,-4.7933,-4.7933,-4.7682,-4.7093,-4.7093,-4.6853,-4.6301,-4.6301,-4.6301,-4.618,-4.4497,-4.2769,-4.1181,-4.1245,-4.1245,-4.1373,-4.302,-4.4767,-4.625,-4.5723,-4.342,-4.0478,-4.0045,-3.738,-3.4068,-3.3555,-3.3418,-3.3418,-3.3418,-3.3418,-3.3776,-3.5396,-3.547,-3.5388,-3.6454,-3.6364,-3.5479,-3.3614,-3.3134,-3.2701,-3.1228,-3.0898,-3.0898,-3.0898,-3.0879,-3.0723,-3.0273,-2.9844,-2.9394,-2.8984,-2.8555,-2.8301,-2.8301,-2.8354,-2.8335,-2.8335,-2.8335,-2.8301,-2.8301,-2.8301,-2.8301,-2.8301,-2.8301,-2.8301,-2.8301,-2.8301,-2.8301,-2.8301,-2.8301,-2.8301,-2.8301,-2.8301,-2.8301,-2.8301,-2.8301,-2.8301,-3.9813,-4.0968,-4.2147,-4.2156,-4.2684,-4.3248,-4.326,-4.3539,-4.3915,-4.4267,-4.4192,-4.4402,-4.5464,-4.65,-4.8029,-5.0509,-5.2093,-5.337,-5.4371,-5.473,-5.4371,-5.3025,-5.0904,-4.9247,-4.834,-4.636,-4.5347,-4.5723,-4.5949,-4.62,-4.6577,-4.7104,-4.723,-4.6853,-4.7531,-4.7732,-4.7405,-4.738,-4.7305,-4.7129,-4.6753,-4.6502,-4.6301,-4.6301,-4.6301,-4.624,-4.5671,-4.3793,-4.1181,-4.1181,-4.1181,-4.1245,-4.182,-4.3793,-4.625,-4.5698,-4.3241,-4.0045,-3.9489,-3.753,-3.5064,-3.3836,-3.3418,-3.3418,-3.3418,-3.3418,-3.3544,-3.409,-3.4616,-3.505,-3.5136,-3.5531,-3.5445,-3.3579,-3.3077,-3.2701,-3.1228,-3.0898,-3.0898,-3.0898,-3.0898,-3.084,-3.0684,-3.0293,-2.9746,-2.9023,-2.8555,-2.8301,-2.8301,-2.8301,-2.8301,-2.8301,-2.8301,-2.8301,-2.8301,-2.8301,-2.8301,-2.8301,-2.8301,-2.8301,-2.8301,-2.8301,-2.8301,-2.8301,-2.8301,-2.8301,-2.8301,-2.8301,-2.8301,-2.8301,-2.8301,-2.8301,-4.2193,-4.3497,-4.4646,-4.4699,-4.4623,-4.4438,-4.4292,-4.3883,-4.3564,-4.3714,-4.3313,-4.3275,-4.4511,-4.5473,-4.6964,-4.9795,-5.1633,-5.3079,-5.4032,-5.4371,-5.3834,-5.2004,-5.0251,-4.8538,-4.6997,-4.5326,-4.4644,-4.5422,-4.5673,-4.5949,-4.6301,-4.6652,-4.6677,-4.6326,-4.6979,-4.7179,-4.6853,-4.6828,-4.6828,-4.6828,-4.6476,-4.6301,-4.6301,-4.6301,-4.6301,-4.624,-4.5671,-4.3793,-4.1181,-4.0537,-4.0666,-4.1181,-4.1181,-4.3294,-4.6225,-4.5472,-4.3335,-4.0617,-3.9424,-3.7231,-3.4798,-3.3713,-3.3418,-3.3418,-3.3418,-3.3418,-3.3418,-3.3418,-3.3891,-3.4309,-3.3757,-3.4056,-3.4201,-3.2674,-3.2301,-3.2035,-3.1112,-3.0898,-3.0898,-3.0898,-3.0898,-3.0898,-3.0898,-3.0371,-2.9687,-2.8828,-2.8457,-2.8301,-2.8301,-2.8301,-2.8301,-2.8301,-2.8301,-2.8301,-2.8301,-2.8301,-2.8301,-2.8301,-2.8301,-2.8301,-2.8301,-2.8301,-2.8301,-2.8301,-2.8301,-2.8301,-2.8301,-2.8301,-2.8301,-2.8301,-2.778,-2.7511,-4.5167,-4.589,-4.6557,-4.7086,-4.6188,-4.5182,-4.5049,-4.4048,-4.2932,-4.2351,-4.1717,-4.1607,-4.2761,-4.2598,-4.3771,-4.8162,-4.9572,-5.1075,-5.3754,-5.3653,-5.2763,-5.1266,-4.9258,-4.7237,-4.5287,-4.4356,-4.4342,-4.5397,-4.5949,-4.625,-4.6301,-4.6301,-4.6301,-4.6301,-4.6301,-4.6301,-4.6301,-4.6301,-4.6301,-4.6301,-4.6301,-4.6301,-4.6301,-4.6301,-4.6301,-4.618,-4.4559,-4.2832,-4.1052,-3.9453,-3.9627,-4.1052,-4.1181,-4.3208,-4.6005,-4.4962,-4.3576,-4.1827,-3.9704,-3.6555,-3.3544,-3.3418,-3.3418,-3.3418,-3.3418,-3.3418,-3.3418,-3.3481,-3.3544,-3.3348,-3.2505,-3.235,-3.2074,-3.1152,-3.0898,-3.0898,-3.0898,-3.0898,-3.0898,-3.0898,-3.0898,-3.0879,-3.0859,-3.0137,-2.9277,-2.8457,-2.8301,-2.8301,-2.8301,-2.8301,-2.8301,-2.8301,-2.8301,-2.8301,-2.8301,-2.8301,-2.8301,-2.8301,-2.8301,-2.8301,-2.8301,-2.8301,-2.8301,-2.8301,-2.8301,-2.8301,-2.8301,-2.8301,-2.8301,-2.8247,-2.6771,-2.61,-4.7333,-4.8666,-4.9716,-4.887,-4.8389,-4.7696,-4.6185,-4.5186,-4.4259,-4.3187,-4.1459,-4.0421,-4.1179,-4.2043,-4.3665,-4.6782,-4.9732,-5.207,-5.3275,-5.4162,-5.3781,-5.1308,-5.0045,-4.8572,-4.6478,-4.5534,-4.5171,-4.5472,-4.5221,-4.5422,-4.6276,-4.6301,-4.6301,-4.6301,-4.6301,-4.6301,-4.6301,-4.6301,-4.6301,-4.6301,-4.6301,-4.6301,-4.6301,-4.6301,-4.6301,-4.624,-4.5853,-4.3941,-4.1181,-4.0731,-4.0018,-3.9366,-4.0666,-4.2223,-4.382,-4.4376,-4.2576,-3.9681,-3.8762,-3.6989,-3.4964,-3.3776,-3.3418,-3.3418,-3.3418,-3.3418,-3.365,-3.484,-3.5211,-3.5005,-3.4157,-3.393,-3.3428,-3.1367,-3.0898,-3.0898,-3.0898,-3.0898,-3.0898,-3.0898,-3.0898,-3.0781,-3.043,-2.9922,-2.9394,-2.8848,-2.8496,-2.8301,-2.8301,-2.8301,-2.8301,-2.8301,-2.8301,-2.8301,-2.8301,-2.8301,-2.8301,-2.8301,-2.8301,-2.8301,-2.8301,-2.8301,-2.8301,-2.8301,-2.8301,-2.8301,-2.8301,-2.8301,-2.8301,-2.8247,-2.6771,-2.61,-4.8955,-5.0152,-5.1011,-5.0287,-4.9398,-4.8305,-4.6538,-4.5184,-4.3739,-4.189,-4.0556,-3.9699,-3.973,-4.1124,-4.3136,-4.5683,-4.8803,-5.1439,-5.2965,-5.3832,-5.3603,-5.1706,-5.0466,-4.9036,-4.701,-4.6027,-4.5497,-4.5497,-4.5397,-4.5648,-4.6276,-4.6301,-4.6301,-4.6301,-4.6301,-4.6301,-4.6301,-4.6301,-4.6301,-4.6301,-4.6301,-4.6301,-4.6301,-4.6301,-4.6301,-4.6301,-4.6301,-4.4374,-4.1181,-4.1181,-4.0148,-3.8795,-4.0537,-4.188,-4.3057,-4.4209,-4.2243,-3.8934,-3.8403,-3.666,-3.4612,-3.3713,-3.3418,-3.3418,-3.3418,-3.3902,-3.4612,-3.556,-3.6295,-3.6484,-3.491,-3.448,-3.3859,-3.1484,-3.0898,-3.0898,-3.0898,-3.0898,-3.0898,-3.0898,-3.0898,-3.0742,-3.0273,-2.9844,-2.9414,-2.8984,-2.8555,-2.8301,-2.8301,-2.8301,-2.8301,-2.8301,-2.8301,-2.8301,-2.8301,-2.8301,-2.8301,-2.8301,-2.8301,-2.8301,-2.8301,-2.8301,-2.8301,-2.8301,-2.8301,-2.8301,-2.8301,-2.7672,-2.733,-2.7276,-2.5151,-2.4156,-5.0182,-5.0734,-5.1229,-5.1229,-4.9728,-4.8017,-4.6651,-4.4723,-4.2528,-4.0012,-3.9317,-3.8963,-3.8364,-3.9894,-4.2063,-4.4674,-4.7372,-5.0138,-5.2785,-5.3264,-5.306,-5.2301,-5.0803,-4.9145,-4.7304,-4.618,-4.5598,-4.5598,-4.605,-4.6301,-4.6301,-4.6301,-4.6301,-4.6301,-4.6301,-4.6301,-4.6301,-4.6301,-4.6301,-4.6301,-4.6301,-4.6301,-4.6301,-4.6301,-4.6301,-4.6301,-4.6301,-4.4374,-4.1181,-4.1181,-4.0018,-3.8465,-4.0342,-4.1662,-4.2597,-4.3968,-4.2147,-3.8844,-3.8358,-3.6072,-3.3418,-3.3418,-3.3418,-3.3418,-3.3418,-3.4383,-3.556,-3.599,-3.7122,-3.7703,-3.5419,-3.4832,-3.4152,-3.1543,-3.0898,-3.0898,-3.0898,-3.0898,-3.0898,-3.0898,-3.0898,-3.0742,-3.0273,-2.9902,-2.9512,-2.9062,-2.8652,-2.8379,-2.8379,-2.832,-2.8301,-2.8301,-2.8301,-2.8301,-2.8301,-2.8301,-2.8301,-2.8301,-2.8301,-2.8301,-2.8301,-2.8301,-2.8301,-2.8301,-2.8301,-2.8174,-2.8014,-2.6717,-2.5991,-2.5717,-2.2927,-2.1586,-5.087,-5.1139,-5.1229,-5.1229,-5.0163,-4.8729,-4.7377,-4.5128,-4.2677,-4.0645,-3.8649,-3.7253,-3.7126,-3.8294,-4.0325,-4.3454,-4.649,-4.9553,-5.2725,-5.3683,-5.3722,-5.2943,-5.145,-4.991,-4.8356,-4.7,-4.6175,-4.6175,-4.625,-4.6301,-4.6301,-4.6301,-4.6301,-4.6301,-4.6301,-4.6301,-4.6301,-4.6301,-4.6301,-4.6301,-4.6301,-4.6301,-4.6301,-4.6301,-4.6301,-4.6301,-4.6301,-4.4374,-4.1181,-4.1181,-3.9322,-3.6702,-3.9432,-4.0303,-4.0425,-4.2993,-4.1537,-3.8335,-3.8246,-3.6072,-3.3418,-3.3418,-3.3418,-3.3418,-3.3418,-3.3607,-3.4383,-3.7023,-3.7985,-3.794,-3.6796,-3.6471,-3.5561,-3.1814,-3.0898,-3.0898,-3.0898,-3.0898,-3.0898,-3.0898,-3.0898,-3.0742,-3.0273,-3.0137,-2.9941,-2.9512,-2.9082,-2.8809,-2.8809,-2.8516,-2.8301,-2.8301,-2.8301,-2.8301,-2.8301,-2.8301,-2.8301,-2.8301,-2.8301,-2.8301,-2.8301,-2.8301,-2.8301,-2.8301,-2.8301,-2.7726,-2.6499,-2.6209,-2.5426,-2.4156,-2.242,-2.1586,-5.1229,-5.1468,-5.1558,-5.0823,-4.9733,-4.8147,-4.5783,0.0,0.0,-3.8901,-3.7677,-3.6916,-3.627,-3.7768,-3.9744,-4.1666,-4.4121,-4.713,-5.1079,-5.1947,-5.2632,-5.3987,-5.2775,-5.1291,-4.9791,-4.83,-4.7146,-4.6361,-4.6301,-4.6301,-4.6301,-4.6301,-4.6301,-4.6301,-4.6301,-4.6301,-4.6301,-4.6301,-4.6301,-4.6301,-4.6301,-4.6301,-4.6301,-4.6301,-4.6301,-4.6301,-4.6301,-4.4374,-4.1181,-4.1181,-3.9041,-3.6,-3.9066,-3.9846,-3.9582,-4.269,-4.1393,-3.8223,-3.8223,-3.6072,-3.3418,-3.3418,-3.3418,-3.3418,-3.3418,-3.3965,-3.4964,-3.6539,-3.8141,-3.8859,-3.6296,-3.6263,-3.5905,-3.1872,-3.0898,-3.0898,-3.0898,-3.0898,-3.0898,-3.0898,-3.0898,-3.082,-3.0586,-3.0351,-3.0137,-2.9922,-2.9336,-2.8926,-2.8926,-2.8555,-2.8301,-2.8301,-2.8301,-2.8301,-2.8301,-2.8301,-2.8301,-2.8301,-2.8301,-2.8301,-2.8301,-2.8301,-2.8301,-2.8301,-2.8301,-2.8057,-2.7542,-2.5752,-2.4646,-2.4102,-2.1618,-2.0513,-5.1409,-5.1708,-5.1887,-5.0524,-4.9134,-4.7249,-4.4077,-4.2102,-4.0098,-3.7105,-3.6746,-3.6746,-3.5878,-3.7404,-3.92,-4.0397,-4.2043,-4.4766,-4.9374,-5.0226,-5.1541,-5.461,-5.3824,-5.2509,-5.1318,-4.9565,-4.8035,-4.6874,-4.6481,-4.6301,-4.6301,-4.6301,-4.6301,-4.6301,-4.6301,-4.6301,-4.6301,-4.6301,-4.6301,-4.6301,-4.6301,-4.6301,-4.6301,-4.6301,-4.6301,-4.6301,-4.6301,-4.4374,-4.1181,-4.1181,-3.8913,-3.5705,-3.8872,-3.9601,-3.9266,-4.247,-4.1552,-3.8639,-3.8342,-3.6295,-3.3839,-3.3544,-3.3418,-3.3418,-3.3418,-3.4258,-3.5396,-3.5683,-3.7604,-3.8801,-3.5361,-3.5453,-3.5446,-3.1756,-3.0898,-3.0898,-3.0898,-3.0898,-3.0898,-3.0898,-3.0898,-3.0898,-3.0898,-3.0586,-3.0351,-3.0351,-2.9687,-2.9199,-2.9199,-2.875,-2.8437,-2.8437,-2.834,-2.8301,-2.8301,-2.8301,-2.8301,-2.8301,-2.8301,-2.8301,-2.8301,-2.8301,-2.834,-2.8418,-2.8437,-2.847,-2.8548,-2.5831,-2.4371,-2.408,-2.1713,-2.0534,-5.1409,-5.1708,-5.1887,-5.0524,-4.8761,-4.6681,-4.3988,0.0,-3.902,-3.6926,-3.6058,-3.5818,-3.6297,-3.6596,-3.7734,-4.0786,-4.1991,-4.4118,-4.876,-5.0391,-5.1917,-5.4042,-5.3509,-5.2963,-5.2804,-5.0184,-4.8416,-4.83,-4.7027,-4.6301,-4.6301,-4.6301,-4.6301,-4.6301,-4.6301,-4.6301,-4.6301,-4.6301,-4.6301,-4.6301,-4.6301,-4.6301,-4.6301,-4.6301,-4.6301,-4.6301,-4.6301,-4.4374,-4.1181,-4.1181,-3.8913,-3.5665,-3.8505,-3.931,-3.9221,-4.203,-4.1948,-4.0187,-3.8698,-3.7084,-3.5335,-3.3902,-3.3418,-3.3418,-3.3418,-3.3481,-3.3902,-3.5376,-3.603,-3.594,-3.4791,-3.4597,-3.4094,-3.1543,-3.0898,-3.0898,-3.0898,-3.0898,-3.0898,-3.0898,-3.0898,-3.0898,-3.0898,-3.0859,-3.082,-3.082,-3.0391,-3.0078,-3.0078,-2.9375,-2.8867,-2.8867,-2.8516,-2.8301,-2.8301,-2.8301,-2.8301,-2.8301,-2.8301,-2.8301,-2.8301,-2.8301,-2.8476,-2.8848,-2.8867,-2.8382,-2.7484,-2.7146,-2.5581,-2.2898,-2.4071,-2.3779,-5.1289,-5.1977,-5.2276,-5.0182,-4.8476,-4.6411,-4.297,-4.0756,-3.8751,-3.6387,-3.5699,-3.5579,-3.5848,-3.5908,-3.6567,-3.8661,-3.92,-4.0876,-4.5125,-4.6501,-4.8386,-5.1977,-5.2447,-5.2674,-5.2953,-5.1071,-4.908,-4.7324,-4.6636,-4.6301,-4.6301,-4.6301,-4.6301,-4.6301,-4.6301,-4.6301,-4.6301,-4.6301,-4.6301,-4.6301,-4.6301,-4.6301,-4.6301,-4.6301,-4.6301,-4.6301,-4.6301,-4.4374,-4.1181,-4.1181,-3.8743,-3.5205,-3.7275,-3.8226,-3.8732,-4.0779,-4.0534,-3.9053,-3.8402,-3.6539,-3.4258,-3.3607,-3.3418,-3.3418,-3.3418,-3.3418,-3.3544,-3.4195,-3.5026,-3.5413,-3.3598,-3.2732,-3.2093,-3.1132,-3.0898,-3.0898,-3.0898,-3.0898,-3.0898,-3.0898,-3.0898,-3.0898,-3.0898,-3.0898,-3.0898,-3.0898,-3.0488,-3.0195,-3.0195,-2.9687,-2.9199,-2.8945,-2.8535,-2.8301,-2.8301,-2.8301,-2.8301,-2.8301,-2.8301,-2.8398,-2.8652,-2.8672,-2.8867,-2.9297,-2.9316,-2.9232,-2.9051,-2.7877,-2.6845,-2.5889,-2.5361,-2.4851,-5.087,-5.1887,-5.2306,-4.9928,-4.8117,-4.6022,-4.2252,-4.0217,-3.8422,-3.5998,-3.5519,-3.5519,-3.5519,-3.5519,-3.5878,-3.6956,-3.7464,-3.896,-4.2581,-4.3958,-4.6052,-4.9883,-5.1109,-5.1892,-5.2705,-5.1497,-4.9508,-4.6541,-4.6301,-4.6301,-4.6301,-4.6301,-4.6301,-4.6301,-4.6301,-4.6301,-4.6301,-4.6301,-4.6301,-4.6301,-4.6301,-4.6301,-4.6301,-4.6301,-4.6301,-4.6301,-4.6301,-4.4374,-4.1158,-4.1024,-3.8487,-3.4884,-3.6321,-3.7453,-3.8342,-3.9464,-3.9464,-3.8757,-3.7805,-3.599,-3.4007,-3.3544,-3.3418,-3.3418,-3.3418,-3.3418,-3.3418,-3.3418,-3.4015,-3.4289,-3.2452,-3.1445,-3.0898,-3.0898,-3.0898,-3.0898,-3.0898,-3.0898,-3.0898,-3.0898,-3.0898,-3.0898,-3.0898,-3.0898,-3.0898,-3.0898,-3.0605,-3.041,-3.041,-3.0019,-2.959,-2.916,-2.8848,-2.8574,-2.832,-2.8301,-2.8301,-2.8301,-2.8398,-2.8613,-2.8906,-2.9043,-2.9316,-2.9746,-2.9766,-2.998,-3.0391,-2.9031,-2.8281,-2.8129,-2.7239,-2.6965,-5.0016,-5.1199,-5.1738,-4.9808,-4.7788,-4.5454,-4.2132,-3.9828,-3.7853,-3.5908,-3.5519,-3.5519,-3.5519,-3.5519,-3.5729,-3.6387,-3.7554,-3.932,-4.2021,-4.4047,-4.6052,-4.8087,-4.9464,-5.0734,-5.2097,-5.1261,-4.9508,-4.6541,-4.6301,-4.6301,-4.6301,-4.6301,-4.6301,-4.6301,-4.6301,-4.6301,-4.6301,-4.6301,-4.6301,-4.6301,-4.6301,-4.6301,-4.6301,-4.6301,-4.6301,-4.6301,-4.6301,-4.4374,-4.1136,-4.0706,-3.8189,-3.4845,-3.6056,-3.7234,-3.8223,-3.8223,-3.9229,-4.0105,-3.6941,-3.5806,-3.5499,-3.3902,-3.3418,-3.3418,-3.3418,-3.3418,-3.3418,-3.3418,-3.2832,-3.2131,-3.1641,-3.1211,-3.0898,-3.0898,-3.0898,-3.0898,-3.0898,-3.0898,-3.0898,-3.0898,-3.0898,-3.0898,-3.0898,-3.0898,-3.0898,-3.0898,-3.0879,-3.0879,-3.0879,-3.0488,-3.0039,-2.9665,-2.9607,-2.9219,-2.8359,-2.8301,-2.8301,-2.8301,-2.8672,-2.8906,-2.8926,-2.9336,-2.9766,-3.0176,-3.0195,-3.041,-3.0879,-3.0879,-3.002,-2.8408,-3.0079,-3.082,-4.7369,-4.8207,-4.8386,-4.6381,-4.5065,-4.3499,-4.0696,-3.92,-3.7853,-3.5908,-3.5519,-3.5519,-3.5519,-3.5519,-3.6148,-3.8182,-3.8841,-3.9858,-4.2081,-4.4047,-4.6052,-4.8057,-5.1439,-5.2968,-5.1327,-5.0928,-4.9508,-4.6541,-4.6301,-4.6301,-4.6301,-4.6301,-4.6301,-4.6301,-4.6301,-4.6301,-4.6301,-4.6301,-4.6301,-4.6301,-4.6301,-4.6301,-4.6301,-4.6301,-4.61,-4.5748,-4.5748,-4.3626,-4.015,-3.9993,-3.772,-3.4322,-3.468,-3.5561,-3.6578,-3.6578,-3.6881,-3.7183,-3.6152,-3.5088,-3.407,-3.3607,-3.3418,-3.3418,-3.3418,-3.3418,-3.3359,-3.3066,-3.2598,-3.207,-3.1621,-3.1211,-3.0898,-3.0898,-3.0898,-3.0898,-3.0898,-3.0898,-3.0898,-3.0898,-3.0898,-3.0898,-3.0898,-3.0898,-3.0898,-3.0898,-3.0898,-3.0898,-3.0898,-3.0762,-3.0391,-2.9704,-2.9824,-2.9648,-2.8789,-2.8984,-2.916,-2.916,-2.9297,-2.9492,-2.9785,-2.9922,-3.0215,-3.0664,-3.0664,-3.0742,-3.0898,-3.0898,-3.0645,-3.0138,-3.0645,-3.0898,-4.5035,-4.6052,-4.6172,-4.4676,-4.3449,-4.2043,-3.9881,-3.8512,-3.7255,-3.5818,-3.5519,-3.5519,-3.5519,-3.5519,-3.6028,-3.7674,-3.8332,-3.9349,-4.1354,-4.3329,-4.5335,-4.7552,-5.1002,-5.2139,-4.9391,-4.9576,-4.8908,-4.6481,-4.6301,-4.6301,-4.6301,-4.6301,-4.6301,-4.6301,-4.6301,-4.6301,-4.6301,-4.6301,-4.6301,-4.6301,-4.61,-4.5999,-4.5999,-4.5773,-4.5497,-4.5171,-4.5171,-4.3096,0.0,-3.9501,-3.7336,-3.4062,-3.3887,-3.4624,-3.5745,-3.515,-3.5273,-3.5683,-3.5088,-3.4258,-3.3418,-3.3418,-3.3418,-3.3398,-3.3242,-3.3184,-3.3105,-3.2676,-3.2246,-3.1816,-3.1387,-3.1094,-3.0898,-3.0898,-3.0898,-3.0898,-3.0898,-3.0898,-3.0898,-3.0898,-3.0898,-3.0898,-3.0898,-3.0898,-3.0898,-3.0898,-3.0898,-3.0898,-3.0898,-3.0898,-3.0605,-2.9883,-3.0195,-3.0176,-2.9453,-2.9512,-2.9626,-2.9626,-2.92,-2.9051,-2.9298,-2.8851,-2.9074,-2.9962,-2.9962,-3.0274,-3.0898,-3.0898,-3.0898,-3.0898,-3.0898,-3.0898,0.0,-4.4317,-4.4646,-4.3988,-4.2462,-4.0756,-3.9499,-3.7793,0.0,-3.5639,-3.5519,-3.5519,-3.5579,-3.5549,-3.5579,-3.5818,-3.6836,-3.8302,-4.0337,-4.2285,-4.4457,-4.6936,-4.8886,-4.9126,-4.6845,-4.7758,-4.786,-4.6421,-4.6301,-4.6301,-4.625,-4.625,-4.6225,-4.62,-4.62,-4.6225,-4.6301,-4.6276,-4.625,-4.625,-4.5698,-4.5422,-4.5422,-4.4869,-4.4593,-4.4568,-4.4568,-4.2686,-3.9752,-3.9158,-3.7141,-3.4349,-3.3638,-3.4363,-3.5622,-3.4027,-3.4383,-3.5437,-3.3902,-3.3418,-3.3418,-3.3418,-3.3398,-3.3301,-3.291,-3.2793,-3.2695,-3.2246,-3.1836,-3.1426,-3.0996,-3.0898,-3.0898,-3.0898,-3.0898,-3.0898,-3.0898,-3.0898,-3.0898,-3.0898,-3.0898,-3.0898,-3.0898,-3.0898,-3.0898,-3.0898,-3.0898,-3.0898,-3.0898,-3.0898,-3.0703,-3.0254,-3.0605,-3.0703,-3.0234,-2.9863,-2.9668,-2.9668,-2.8629,-2.8002,-2.8002,-2.6961,-2.7073,-2.8545,-2.8605,-2.9335,-3.0898,-3.0898,-3.0898,-3.0898,-3.0898,-3.0898,-3.8661,0.0,-3.9858,-3.92,-3.8691,-3.8153,0.0,-3.6806,-3.6297,-3.5639,-3.5519,-3.5669,-3.6178,-3.5848,-3.6327,-3.8841,-3.9499,-4.0397,-4.2333,-4.4643,-4.6969,-4.919,-5.011,-4.9721,-4.7589,-4.8052,-4.786,-4.6421,-4.6301,-4.6125,-4.5698,-4.5673,-4.5472,-4.5045,-4.502,-4.5447,-4.6301,-4.5899,-4.5673,-4.5673,-4.5095,-4.4819,-4.4819,-4.4694,-4.4392,-4.3991,-4.3991,-4.2601,-4.0305,-3.8925,-3.7923,-3.6993,-3.4423,-3.4363,-3.5622,-3.4027,-3.365,-3.3902,-3.3544,-3.3418,-3.3418,-3.3418,-3.3203,-3.293,-3.2832,-3.2793,-3.2637,-3.1875,-3.1601,-3.1426,-3.0996,-3.0898,-3.0898,-3.0898,-3.0898,-3.0898,-3.0898,-3.0898,-3.0898,-3.0898,-3.0898,-3.0898,-3.0898,-3.0898,-3.0898,-3.0898,-3.0898,-3.0898,-3.0898,-3.0898,-3.0703,-3.0254,-3.0605,-3.0703,-3.0234,-3.043,-3.0586,-3.0586,-3.0316,-3.0179,-3.0179,-2.9905,-2.9903,-3.0333,-3.0333,-3.0509,-3.0898,-3.0898,-3.0898,-3.0898,-3.0898,-3.0898,-3.6447,-3.7434,-3.8302,-3.7943,-3.7644,-3.7315,-3.6985,-3.6447,-3.5938,-3.5579,-3.5133,-3.4894,-3.528,-3.4908,-3.5381,-3.7951,-3.8841,-4.0495,-4.4176,-4.634,-4.8072,-4.9398,-4.9444,-4.8709,-4.7186,-4.7121,-4.6821,-4.5984,-4.5698,-4.5397,-4.5095,-4.5095,-4.4945,-4.4644,-4.4618,-4.492,-4.5522,-4.5246,-4.5095,-4.507,-4.4518,-4.4242,-4.4242,-4.3991,-4.3714,-4.3413,-4.3413,-4.2364,-4.0476,-3.8876,-3.8223,-3.7865,-3.4694,-3.4363,-3.5622,-3.4027,-3.3418,-3.3418,-3.3418,-3.3418,-3.3379,-3.3203,-3.2988,-3.2715,-3.2324,-3.2207,-3.2109,-3.1641,-3.1387,-3.1172,-3.0957,-3.0898,-3.0898,-3.0898,-3.0898,-3.0898,-3.0898,-3.0898,-3.0898,-3.0898,-3.0898,-3.0898,-3.0898,-3.0898,-3.0898,-3.0898,-3.0898,-3.0898,-3.0898,-3.0898,-3.0801,-3.0547,-3.0742,-3.0781,-3.0527,-3.0742,-3.0898,-3.0898,-3.0216,-2.9766,-2.9766,-2.9039,-2.8979,-2.9707,-3.0509,-3.0898,-3.0898,-3.0898,-3.0898,-3.0898,-3.0898,-3.0898,-3.5759,-3.7075,-3.8332,-3.8033,-3.7614,-3.7255,-3.7135,0.0,0.0,-3.5519,-3.4706,-3.4065,-3.4238,-3.3888,-3.414,-3.5988,-3.7463,-4.0158,-4.5282,-4.6911,-4.7728,-4.8157,-4.7609,-4.6881,-4.5993,-4.5573,-4.5347,-4.5347,-4.4895,-4.4593,-4.4493,-4.4493,-4.4468,-4.4367,-4.4367,-4.4367,-4.4367,-4.4468,-4.4493,-4.4493,-4.394,-4.3689,-4.3664,-4.3187,-4.2986,-4.2986,-4.2986,-4.2206,-4.0822,-3.9229,-3.858,-3.8283,-3.5046,-3.4612,-3.5622,-3.4027,-3.3418,-3.3418,-3.3418,-3.3418,-3.3359,-3.3008,-3.2812,-3.2559,-3.1836,-3.1523,-3.1426,-3.1426,-3.1172,-3.0898,-3.0898,-3.0898,-3.0898,-3.0898,-3.0898,-3.0898,-3.0898,-3.0898,-3.0898,-3.0898,-3.0898,-3.0898,-3.0898,-3.0898,-3.0898,-3.0898,-3.0898,-3.0898,-3.0898,-3.0898,-3.0898,-3.0898,-3.0898,-3.0898,-3.0898,-3.0898,-3.0898,-3.0898,-2.9589,-2.8783,-2.8783,-2.7452,-2.7391,-2.8783,-3.0216,-3.0898,-3.0898,-3.0898,-3.0898,-3.0898,-3.0898,-3.0898,-3.6836,-3.7734,-3.8003,-3.6357,-3.6297,-3.6477,-3.5938,-3.5639,-3.5519,0.0,-3.4706,-3.4324,-3.5417,-3.4806,-3.492,-3.7232,-3.9431,-4.1716,-4.4235,-4.4579,-4.481,-4.5475,-4.5313,-4.4825,-4.4217,-4.4543,-4.4744,-4.4744,-4.4669,-4.4418,-4.394,-4.3915,-4.3714,-4.3237,-4.3237,-4.3237,-4.3237,-4.3689,-4.3915,-4.3915,-4.3363,-4.3112,-4.3112,-4.3011,-4.2986,-4.2986,-4.2986,-4.2849,-4.2513,-4.0904,-4.0245,-3.9931,-3.6699,-3.556,-3.5622,-3.4027,-3.3418,-3.3418,-3.3418,-3.3418,-3.3418,-3.334,-3.2851,-3.2246,-3.2109,-3.1562,-3.0996,-3.0996,-3.0937,-3.0898,-3.0898,-3.0898,-3.0898,-3.0898,-3.0898,-3.0898,-3.0898,-3.0898,-3.0898,-3.0898,-3.0898,-3.0898,-3.0898,-3.0898,-3.0898,-3.0898,-3.0898,-3.0898,-3.0898,-3.0898,-3.0898,-3.0898,-3.0898,-3.0898,-3.0898,-3.0898,-3.0898,-3.0898,-3.0645,-3.0528,-3.0528,-3.0274,-3.0274,-3.0509,-3.0762,-3.0898,-3.0898,-3.0898,-3.0898,-3.0898,-3.0898,-3.0898,-3.6118,-3.6596,-3.6641,-3.579,-3.6622,-3.7477,-3.6833,-3.5963,-3.5282,-3.5282,-3.4276,-3.3641,-3.4547,-3.4393,-3.5163,-3.8399,-4.1194,-4.3321,-4.4572,-4.4294,-4.4361,-4.5363,-4.472,-4.4192,-4.4242,-4.4192,-4.4192,-4.4192,-4.389,-4.3614,-4.3363,-4.3363,-4.3237,-4.2986,-4.2986,-4.2986,-4.2986,-4.3237,-4.3363,-4.3363,-4.3112,-4.2986,-4.2986,-4.2986,-4.2986,-4.2986,-4.2986,-4.2986,-4.2849,-4.1248,-4.0592,-4.0303,-3.7062,-3.5806,-3.5622,-3.4027,-3.3418,-3.3418,-3.3418,-3.3418,-3.3379,-3.3164,-3.2676,-3.2129,-3.1894,-3.1387,-3.0898,-3.0898,-3.0898,-3.0898,-3.0898,-3.0898,-3.0898,-3.0898,-3.0898,-3.0898,-3.0898,-3.0898,-3.0898,-3.0898,-3.0898,-3.0898,-3.0898,-3.0898,-3.0898,-3.0898,-3.0898,-3.0898,-3.0898,-3.0898,-3.0898,-3.0898,-3.0898,-3.0898,-3.0898,-3.0898,-3.0898,-3.0898,-3.0898,-3.0898,-3.0898,-3.0898,-3.0898,-3.0898,-3.0898,-3.0898,-3.0898,-3.0898,-3.0898,-3.0898,-3.0898,-3.0898,-3.5669,-3.5848,-3.5829,-3.6212,-3.7045,-3.772,-3.749,-3.6231,-3.5166,-3.5441,-3.4365,-3.3553,-3.4,-3.452,-3.5902,-3.9051,-4.194,-4.3902,-4.4361,-4.4071,-4.4222,-4.5109,-4.424,-4.3765,-4.4192,-4.3865,-4.3614,-4.3614,-4.3212,-4.2986,-4.2986,-4.2986,-4.2986,-4.2986,-4.2986,-4.2986,-4.2986,-4.2986,-4.2986,-4.2986,-4.2986,-4.2986,-4.2986,-4.2986,-4.2986,-4.2986,-4.2986,-4.2986,-4.2905,-4.1672,-4.0707,-3.9756,-3.7303,-3.5928,-3.5088,-3.3839,-3.3418,-3.3418,-3.3418,-3.3418,-3.3379,-3.3047,-3.2656,-3.2226,-3.1797,-3.1367,-3.1016,-3.0918,-3.0898,-3.0898,-3.0898,-3.0898,-3.0898,-3.0898,-3.0898,-3.0898,-3.0898,-3.0898,-3.0898,-3.0898,-3.0898,-3.0898,-3.0898,-3.0898,-3.0898,-3.0898,-3.0898,-3.0898,-3.0898,-3.0898,-3.0898,-3.0898,-3.0898,-3.0898,-3.0898,-3.0898,-3.0898,-3.0898,-3.0898,-3.0898,-3.0898,-3.0898,-3.0898,-3.0898,-3.0898,-3.0898,-3.0898,-3.0898,-3.0898,-3.0898,-3.0898,-3.0898,-3.6776,-3.6836,-3.6716,-3.7933,-3.6705,-3.5539,-3.6543,-3.5879,-3.5386,-3.6401,-3.5797,-3.5152,-3.5204,-3.6575,-3.7989,-3.8843,-4.0864,-4.2359,-4.241,-4.278,-4.3103,-4.3179,-4.3148,-4.3062,-4.3087,-4.3062,-4.3037,-4.3037,-4.3011,-4.2986,-4.2986,-4.2986,-4.2986,-4.2986,-4.2986,-4.2986,-4.2986,-4.2986,-4.2986,-4.2986,-4.2986,-4.2986,-4.2986,-4.2986,-4.2986,-4.2986,-4.2986,-4.2986,-4.2986,-4.2849,-4.1076,-3.8342,-3.8104,-3.6173,-3.3544,-3.3418,-3.3418,-3.3418,-3.3418,-3.3418,-3.3418,-3.3379,-3.3086,-3.2676,-3.2246,-3.1816,-3.1387,-3.0996,-3.0898,-3.0898,-3.0898,-3.0898,-3.0898,-3.0898,-3.0898,-3.0898,-3.0898,-3.0898,-3.0898,-3.0898,-3.0898,-3.0898,-3.0898,-3.0898,-3.0898,-3.0898,-3.0898,-3.0898,-3.0898,-3.0898,-3.0898,-3.0898,-3.0898,-3.0898,-3.0898,-3.0898,-3.0898,-3.0898,-3.0898,-3.0898,-3.0898,-3.0898,-3.0898,-3.0898,-3.0898,-3.0898,-3.0898,-3.0898,-3.0898,-3.0898,-3.0898,-3.0898,-3.528,-3.5174,-3.5078,-3.6393,-3.5677,-3.515,-3.6907,-3.6588,-3.6145,-3.6852,-3.6713,-3.6463,-3.6463,-3.7627,-3.8843,-3.9747,-4.1178,-4.2338,-4.2665,-4.2836,-4.2986,-4.2986,-4.2986,-4.2986,-4.2986,-4.2986,-4.2986,-4.2986,-4.2986,-4.2986,-4.2986,-4.2986,-4.2986,-4.2986,-4.2986,-4.2986,-4.2986,-4.2986,-4.2513,-4.1533,-4.2488,-4.2986,-4.2986,-4.2986,-4.2986,-4.2986,-4.2986,-4.2986,-4.2905,-4.1899,-4.0765,-3.9464,-3.7484,-3.5335,-3.3418,-3.3418,-3.3418,-3.3418,-3.3418,-3.3418,-3.3418,-3.3418,-3.3144,-3.2773,-3.2598,-3.207,-3.1484,-3.1328,-3.1094,-3.0898,-3.0898,-3.0898,-3.0898,-3.0898,-3.0898,-3.0898,-3.0898,-3.0898,-3.0898,-3.0898,-3.0898,-3.0898,-3.0898,-3.0898,-3.0898,-3.0898,-3.0898,-3.0898,-3.0898,-3.0898,-3.0898,-3.0898,-3.0898,-3.0898,-3.0898,-3.0898,-3.0898,-3.0898,-3.0898,-3.0898,-3.0898,-3.0898,-3.0898,-3.0898,-3.0898,-3.0898,-3.0898,-3.0898,-3.0898,-3.0898,-3.0898,-3.0898,-3.427,-3.406,-3.4047,-3.524,-3.485,-3.4876,-3.7214,-3.717,-3.691,-3.7789,-3.7688,-3.7487,-3.7688,-3.8492,-3.9446,-4.0375,-4.158,-4.2615,-4.2936,-4.2986,-4.2986,-4.2986,-4.2986,-4.2986,-4.2986,-4.2986,-4.2986,-4.2986,-4.2986,-4.2986,-4.2986,-4.2986,-4.2986,-4.2986,-4.2986,-4.2986,-4.2986,-4.2513,-4.1672,-4.0592,-4.1728,-4.2263,-4.2263,-4.2793,-4.2986,-4.2986,-4.2986,-4.2986,-4.2905,-4.1785,-4.0765,-3.9581,-3.6881,-3.4798,-3.3418,-3.3418,-3.3418,-3.3418,-3.3418,-3.3418,-3.3418,-3.3418,-3.3223,-3.2969,-3.2832,-3.2383,-3.1855,-3.1601,-3.1309,-3.1055,-3.0918,-3.0898,-3.0898,-3.0898,-3.0898,-3.0898,-3.0898,-3.0898,-3.0898,-3.0898,-3.0898,-3.0898,-3.0898,-3.0898,-3.0898,-3.0898,-3.0898,-3.0898,-3.0898,-3.0898,-3.0898,-3.0898,-3.0898,-3.0898,-3.0898,-3.0898,-3.0898,-3.0898,-3.0898,-3.0898,-3.0898,-3.0898,-3.0898,-3.0898,-3.0898,-3.0898,-3.0898,-3.0898,-3.0898,-3.0898,-3.0898,-3.0898,-3.4148,-3.3945,-3.4162,-3.4924,-3.4405,-3.4432,-3.7187,-3.7518,-3.7663,-3.9371,-3.8818,-3.8191,-3.8768,-3.932,-3.9873,-4.0425,-4.1907,-4.2961,-4.2986,-4.2986,-4.2986,-4.2986,-4.2986,-4.2986,-4.2986,-4.2986,-4.2986,-4.2986,-4.2986,-4.2986,-4.2986,-4.2986,-4.2986,-4.2986,-4.2986,-4.2986,-4.2986,-4.1419,-4.0592,-4.0592,-4.0592,-4.0592,-4.065,-4.2263,-4.2986,-4.2986,-4.2986,-4.2986,-4.2986,-4.2986,-4.1076,-3.8045,-3.6417,-3.4798,-3.3418,-3.3418,-3.3418,-3.3418,-3.3418,-3.3418,-3.3418,-3.3418,-3.3418,-3.334,-3.291,-3.2793,-3.2598,-3.1758,-3.1504,-3.1406,-3.0996,-3.0898,-3.0898,-3.0898,-3.0898,-3.0898,-3.0898,-3.0898,-3.0898,-3.0898,-3.0898,-3.0898,-3.0898,-3.0898,-3.0898,-3.0898,-3.0898,-3.0898,-3.0898,-3.0898,-3.0898,-3.0898,-3.0898,-3.0898,-3.0898,-3.0898,-3.0898,-3.0898,-3.0898,-3.0898,-3.0898,-3.0898,-3.0898,-3.0898,-3.0898,-3.0898,-3.0898,-3.0898,-3.0898,-3.0898,-3.0898,-3.0898,-3.2865,-3.2605,-3.2949,-3.4651,-3.5336,-3.6319,-3.9007,-3.8646,-3.8341,-4.0425,-4.0275,-3.9697,-3.9496,-3.9898,-4.0325,-4.0501,-4.158,-4.259,-4.2911,-4.2986,-4.2986,-4.2986,-4.2986,-4.2986,-4.2986,-4.2986,-4.2986,-4.2986,-4.2986,-4.2986,-4.2986,-4.2986,-4.2986,-4.2986,-4.2986,-4.2986,-4.2986,-4.2513,-4.1728,-4.0592,-4.1728,-4.1728,-4.065,-4.2263,-4.2986,-4.2986,-4.2986,-4.2986,-4.2905,-4.1785,-3.9405,-3.6478,-3.599,-3.4798,-3.3418,-3.3418,-3.3418,-3.3418,-3.3418,-3.3418,-3.3379,-3.3066,-3.2988,-3.291,-3.248,-3.2148,-3.1836,-3.1582,-3.1309,-3.1055,-3.0918,-3.0898,-3.0898,-3.0898,-3.0898,-3.0898,-3.0898,-3.0898,-3.0898,-3.0898,-3.0898,-3.0898,-3.0898,-3.0898,-3.0898,-3.0898,-3.0898,-3.0898,-3.0898,-3.0898,-3.0898,-3.0898,-3.0898,-3.0898,-3.0898,-3.0898,-3.0898,-3.0898,-3.0898,-3.0898,-3.0898,-3.0898,-3.0898,-3.0898,-3.0898,-3.0898,-3.0898,-3.0898,-3.0898,-3.0898,-3.0898,-3.0898,-3.3123,-3.2981,-3.3357,-3.4876,-3.5646,-3.6773,-3.949,-3.9906,-4.0099,-4.1681,-4.1379,-4.0802,-4.0701,-4.0777,-4.0927,-4.1128,-4.1907,-4.2665,-4.2936,-4.2986,-4.2986,-4.2986,-4.2986,-4.2986,-4.2986,-4.2986,-4.2986,-4.2986,-4.2986,-4.2986,-4.2986,-4.2986,-4.2986,-4.2986,-4.2986,-4.2986,-4.2986,-4.2375,-4.1558,-4.0592,-4.159,-4.1558,-4.065,-4.2263,-4.2986,-4.2986,-4.2986,-4.2986,-4.2905,-4.1955,-4.0047,-3.7664,-3.7002,-3.5745,-3.4258,-3.365,-3.3418,-3.3418,-3.3418,-3.3418,-3.3379,-3.3125,-3.293,-3.2754,-3.25,-3.2109,-3.1738,-3.1562,-3.1328,-3.1094,-3.0937,-3.0898,-3.0898,-3.0898,-3.0898,-3.0898,-3.0898,-3.0898,-3.0898,-3.0898,-3.0898,-3.0898,-3.0898,-3.0898,-3.0898,-3.0898,-3.0898,-3.0898,-3.0898,-3.0898,-3.0898,-3.0898,-3.0898,-3.0898,-3.0898,-3.0898,-3.0898,-3.0898,-3.0898,-3.0898,-3.0898,-3.0898,-3.0898,-3.0898,-3.0898,-3.0898,-3.0898,-3.0898,-3.0898,-3.0898,-3.0898,-3.0898,-3.4214,-3.431,-3.4747,-3.5406,-3.5759,-3.6611,-3.9195,-4.0978,-4.2288,-4.2841,-4.2158,-4.163,-4.2137,-4.1781,-4.163,-4.2137,-4.2665,-4.2986,-4.2986,-4.2986,-4.2986,-4.2986,-4.2986,-4.2986,-4.2986,-4.2986,-4.2986,-4.2986,-4.2986,-4.2986,-4.2986,-4.2986,-4.2986,-4.2986,-4.2986,-4.2986,-4.2986,-4.1558,-4.0846,-4.0846,-4.0846,-4.0798,-4.0832,-4.2294,-4.2986,-4.2986,-4.2986,-4.2986,-4.2986,-4.2849,-4.1899,-4.0419,-3.8698,-3.7062,-3.5622,-3.4027,-3.3418,-3.3418,-3.3418,-3.3418,-3.3418,-3.3379,-3.3086,-3.2734,-3.2695,-3.2383,-3.1973,-3.1582,-3.1465,-3.1367,-3.0996,-3.0898,-3.0898,-3.0898,-3.0898,-3.0898,-3.0898,-3.0898,-3.0898,-3.0898,-3.0898,-3.0898,-3.0898,-3.0898,-3.0898,-3.0898,-3.0898,-3.0898,-3.0898,-3.0898,-3.0898,-3.0898,-3.0898,-3.0898,-3.0898,-3.0898,-3.0898,-3.0898,-3.0898,-3.0898,-3.0898,-3.0898,-3.0898,-3.0898,-3.0898,-3.0898,-3.0898,-3.0898,-3.0898,-3.0898,-3.0898,-3.0918,-3.2772,-3.3067,-3.3893,-3.5747,-3.7839,-3.9597,-4.0199,-4.0953,-4.1681,-4.2263,-4.2484,-4.2534,-4.2263,-4.2464,-4.2509,-4.2263,-4.2665,-4.2986,-4.2986,-4.2986,-4.2986,-4.2986,-4.2986,-4.2986,-4.2986,-4.2986,-4.2986,-4.2986,-4.2986,-4.2986,-4.2986,-4.2986,-4.2986,-4.2986,-4.2986,-4.2986,-4.2986,-4.2681,-4.2488,-4.2488,-4.2488,-4.2264,-4.1867,-4.2649,-4.2986,-4.2986,-4.2986,-4.2986,-4.2905,-4.1672,-4.0904,-4.0303,-3.7424,-3.6112,-3.5622,-3.4027,-3.3418,-3.3418,-3.3418,-3.3418,-3.3359,-3.3027,-3.2656,-3.2246,-3.1894,-3.1504,-3.1152,-3.1055,-3.1035,-3.0996,-3.0918,-3.0898,-3.0898,-3.0898,-3.0898,-3.0898,-3.0898,-3.0898,-3.0898,-3.0898,-3.0898,-3.0898,-3.0898,-3.0898,-3.0898,-3.0898,-3.0898,-3.0898,-3.0898,-3.0898,-3.0898,-3.0898,-3.0898,-3.0898,-3.0898,-3.0898,-3.0898,-3.0898,-3.0898,-3.0898,-3.0898,-3.0898,-3.0898,-3.0898,-3.0898,-3.0898,-3.0898,-3.0898,-3.0898,-3.0898,-3.0898,-3.1074,-3.3477,-3.4099,-3.5047,-3.7079,-3.9044,-4.0526,-4.0526,-4.0899,-4.1376,-4.1706,-4.2208,-4.264,-4.2615,-4.2841,-4.2886,-4.2665,-4.2841,-4.2986,-4.2986,-4.2986,-4.2986,-4.2986,-4.2986,-4.2986,-4.2986,-4.2986,-4.2986,-4.2986,-4.2986,-4.2986,-4.2986,-4.2986,-4.2986,-4.2986,-4.2986,-4.2986,-4.2986,-4.2986,-4.2836,-4.264,-4.2861,-4.274,-4.2213,-4.2183,-4.2183,-4.2183,-4.2183,-4.2183,-4.2073,-4.0555,-3.9888,-3.9547,-3.6388,-3.5215,-3.4974,-3.3411,-3.2832,-3.2832,-3.2832,-3.2832,-3.2793,-3.2559,-3.2207,-3.1816,-3.1582,-3.123,-3.0898,-3.0898,-3.0898,-3.0898,-3.0898,-3.0898,-3.0898,-3.0898,-3.0898,-3.0898,-3.0898,-3.0898,-3.0898,-3.0898,-3.0898,-3.0898,-3.0898,-3.0898,-3.0898,-3.0898,-3.0898,-3.0898,-3.0898,-3.0898,-3.0898,-3.0898,-3.0898,-3.0898,-3.0898,-3.0898,-3.0898,-3.0898,-3.0898,-3.0898,-3.0898,-3.0898,-3.0898,-3.0898,-3.0898,-3.0898,-3.0898,-3.0898,-3.0898,-3.0898,-3.0898,-3.1113,-3.4353,-3.5426,-3.6657,-3.8438,-3.9622,-4.0375,-4.0375,-4.0727,-4.1025,-4.1125,-4.163,-4.2213,-4.261,-4.276,-4.2836,-4.2836,-4.2911,-4.2986,-4.2986,-4.2986,-4.2986,-4.2986,-4.2986,-4.2986,-4.2986,-4.2986,-4.2986,-4.2986,-4.2986,-4.2986,-4.2986,-4.2886,-4.2886,-4.2986,-4.2886,-4.2836,-4.2836,-4.2836,-4.2615,-4.2062,-4.2384,-4.2308,-4.1911,-4.1304,-4.11,-4.1275,-4.1275,-4.1168,-4.0819,-3.9599,-3.8967,-3.8442,-3.5649,-3.448,-3.4324,-3.2794,-3.2229,-3.2229,-3.2229,-3.2229,-3.2229,-3.2229,-3.1875,-3.1523,-3.1523,-3.123,-3.0898,-3.0898,-3.0898,-3.0898,-3.0898,-3.0898,-3.0898,-3.0898,-3.0898,-3.0898,-3.0898,-3.0898,-3.0898,-3.0898,-3.0898,-3.0898,-3.0898,-3.0898,-3.0898,-3.0898,-3.0898,-3.0898,-3.0898,-3.0898,-3.0898,-3.0898,-3.0898,-3.0898,-3.0898,-3.0898,-3.0918,-3.0996,-3.0996,-3.0996,-3.0996,-3.0996,-3.0957,-3.0898,-3.0898,-3.0898,-3.0898,-3.0898,-3.0898,-3.0898,-3.0957,-3.123,-3.3022,-3.4814,-3.7059,-3.8514,-3.9346,-3.9798,-3.9798,-3.9848,-4.0049,-4.0526,-4.1053,-4.1426,-4.1501,-4.1932,-4.2313,-4.2313,-4.2715,-4.2986,-4.2986,-4.2986,-4.2986,-4.2986,-4.2986,-4.2986,-4.2986,-4.2986,-4.2986,-4.2986,-4.2986,-4.2986,-4.2986,-4.259,-4.2539,-4.2961,-4.2564,-4.2313,-4.2313,-4.2313,-4.1982,-4.1455,-4.1028,-4.0802,-4.0727,-4.0174,-4.0425,-4.1275,-4.1275,-4.0577,-3.9378,-3.9189,-3.833,-3.7008,-3.5242,-3.448,-3.4324,-3.2794,-3.2229,-3.2229,-3.2229,-3.2229,-3.2229,-3.2229,-3.1875,-3.1523,-3.1523,-3.123,-3.0898,-3.0898,-3.0898,-3.0898,-3.0898,-3.0898,-3.0898,-3.0898,-3.0898,-3.0898,-3.0898,-3.0898,-3.0898,-3.0898,-3.0898,-3.0898,-3.0898,-3.0898,-3.0898,-3.0898,-3.0898,-3.0898,-3.0898,-3.0898,-3.0898,-3.0898,-3.0898,-3.0898,-3.0898,-3.0898,-3.1055,-3.1406,-3.1426,-3.1426,-3.1426,-3.1426,-3.1269,-3.0898,-3.0898,-3.0898,-3.0898,-3.0898,-3.0898,-3.0898,-3.1269,-3.166,-3.4902,-3.6102,-3.7391,-3.9372,-3.9574,-3.932,-3.9622,-3.9697,-3.9772,-3.9998,-4.0249,-4.0601,-4.1175,-4.153,-4.1706,-4.1706,-4.2158,-4.2564,-4.2564,-4.2841,-4.2986,-4.2986,-4.271,-4.2564,-4.2564,-4.2233,-4.2183,-4.2539,-4.2233,-4.2183,-4.2564,-4.2007,-4.1806,-4.2057,-4.1831,-4.1706,-4.1706,-4.1706,-4.158,-4.1275,-4.0475,-4.0224,-4.0501,-3.9948,-3.9948,-4.0425,-4.0425,-3.9558,-3.8143,-3.7324,-3.6083,-3.4618,-3.307,-3.2507,-3.2389,-3.1722,-3.1445,-3.1445,-3.1445,-3.1445,-3.1445,-3.1445,-3.1328,-3.1172,-3.1172,-3.1035,-3.0898,-3.0898,-3.0898,-3.0898,-3.0898,-3.0898,-3.0957,-3.1191,-3.125,-3.1309,-3.1543,-3.123,-3.0957,-3.1191,-3.125,-3.1328,-3.1562,-3.1406,-3.125,-3.125,-3.1035,-3.0898,-3.0898,-3.0898,-3.0898,-3.0898,-3.0898,-3.0898,-3.0898,-3.1113,-3.1328,-3.1504,-3.1758,-3.1875,-3.1875,-3.1875,-3.1797,-3.1601,-3.1133,-3.0898,-3.0898,-3.0898,-3.0898,-3.0898,-3.1328,-3.1758,-3.5935,-3.6733,-3.7154,-3.9333,-3.9452,-3.922,-3.9573,-3.9697,-3.9697,-3.9697,-3.9697,-3.9948,-4.0777,-4.0974,-4.1075,-4.1075,-4.158,-4.1957,-4.1957,-4.2308,-4.2559,-4.2559,-4.2208,-4.1957,-4.1957,-4.158,-4.1505,-4.1907,-4.1555,-4.153,-4.1932,-4.143,-4.115,-4.1275,-4.115,-4.1075,-4.1075,-4.0949,-4.0874,-4.0849,-4.0099,-3.9898,-4.03,-3.9873,-3.9517,-3.9129,-3.9129,-3.8084,-3.6325,-3.5178,-3.3845,-3.2416,-3.1325,-3.0898,-3.0898,-3.0898,-3.0898,-3.0898,-3.0898,-3.0898,-3.0898,-3.0898,-3.0898,-3.0898,-3.0898,-3.0898,-3.0898,-3.0898,-3.0898,-3.0898,-3.0898,-3.0898,-3.0996,-3.1406,-3.1523,-3.1641,-3.207,-3.166,-3.1309,-3.1621,-3.168,-3.1777,-3.2109,-3.1894,-3.1641,-3.1543,-3.1348,-3.1172,-3.1055,-3.1055,-3.1055,-3.1055,-3.1055,-3.1055,-3.1055,-3.1445,-3.1719,-3.1836,-3.2148,-3.2324,-3.2324,-3.2324,-3.2285,-3.2229,-3.1543,-3.1211,-3.1211,-3.0996,-3.0937,-3.1055,-3.1484,-3.1855,-3.4243,-3.5203,-3.5955,-3.7546,-3.8757,-3.9592,-3.9677,-3.9697,-3.9697,-3.9697,-3.9697,-3.9722,-3.9772,-4.0199,-4.0551,-4.0551,-4.0974,-4.1326,-4.1326,-4.1351,-4.1376,-4.1376,-4.1351,-4.1326,-4.1326,-4.13,-4.13,-4.1326,-4.13,-4.13,-4.1326,-4.0852,-4.0802,-4.1275,-4.0827,-4.0551,-4.0551,-4.0049,-3.9772,-3.9772,-3.9722,-3.9697,-3.9747,-3.9697,-3.8921,-3.7636,-3.7636,-3.5977,-3.3283,-3.3247,-3.2379,-3.0995,-3.0957,-3.0898,-3.0898,-3.0898,-3.0898,-3.0898,-3.0898,-3.0898,-3.0898,-3.0898,-3.0898,-3.0898,-3.0898,-3.0898,-3.0898,-3.0898,-3.0898,-3.0898,-3.0898,-3.0898,-3.0996,-3.1406,-3.1523,-3.1641,-3.207,-3.2129,-3.2109,-3.2129,-3.2129,-3.2148,-3.2229,-3.2148,-3.1992,-3.1582,-3.1855,-3.1953,-3.1543,-3.1484,-3.1484,-3.1484,-3.1484,-3.1484,-3.1484,-3.1894,-3.2305,-3.2695,-3.2754,-3.2754,-3.2754,-3.2754,-3.2578,-3.2229,-3.219,-3.2109,-3.215,-3.1289,-3.1094,-3.1504,-3.1934,-3.2209,-3.4144,-3.4772,-3.5492,-3.7684,-3.8961,-3.965,-3.9641,-4.0301,-4.0693,-3.9878,-3.9697,-3.9697,-3.9697,-3.9848,-3.9998,-3.9998,-4.045,-4.0802,-4.0802,-4.1075,-4.1275,-4.1275,-4.0974,-4.0802,-4.0802,-4.0501,-4.0425,-4.0724,-4.0475,-4.0425,-4.0802,-4.03,-4.0074,-4.0275,-4.0099,-3.9998,-3.9998,-3.9798,-3.9697,-3.9697,-3.9697,-3.9697,-3.9697,-3.9697,-3.8372,-3.6108,-3.6108,-3.4958,-3.3077,-3.3077,-3.2264,-3.0898,-3.0898,-3.0898,-3.0898,-3.0898,-3.0898,-3.0898,-3.0898,-3.0898,-3.0898,-3.0898,-3.0898,-3.0898,-3.0898,-3.0898,-3.0898,-3.0898,-3.0898,-3.0898,-3.0898,-3.1094,-3.1465,-3.2168,-3.2539,-3.2793,-3.293,-3.2559,-3.2307,-3.2519,-3.2578,-3.2656,-3.293,-3.2754,-3.2519,-3.2363,-3.2246,-3.2109,-3.1953,-3.1934,-3.1934,-3.1934,-3.1934,-3.1934,-3.1934,-3.2324,-3.2637,-3.2793,-3.3047,-3.3203,-3.3203,-3.3203,-3.3125,-3.2969,-3.2715,-3.2441,-3.2229,-3.1582,-3.1523,-3.1934,-3.209,-3.2305,-3.3455,-3.405,-3.4964,-3.7806,-3.8573,-3.8974,-4.0287,-4.0574,-4.0461,-4.0107,-3.9854,-3.9697,-3.9697,-3.9697,-3.9697,-3.9697,-3.9998,-4.0249,-4.0249,-4.0551,-4.0724,-4.0724,-4.0475,-4.0249,-4.0249,-3.9898,-3.9848,-4.0199,-3.9898,-3.9848,-4.0224,-3.9898,-3.9697,-3.9697,-3.9697,-3.9697,-3.9697,-3.9697,-3.9697,-3.9697,-3.9697,-3.9697,-3.9697,-3.9697,-3.8084,-3.5288,-3.5288,-3.4181,-3.2358,-3.2358,-3.1767,-3.0898,-3.0898,-3.0898,-3.0898,-3.0898,-3.0898,-3.0898,-3.0898,-3.0898,-3.0898,-3.0898,-3.0898,-3.0898,-3.0898,-3.0898,-3.0898,-3.0898,-3.0898,-3.0918,-3.1055,-3.1523,-3.209,-3.2656,-3.3105,-3.3418,-3.3418,-3.2988,-3.2676,-3.2949,-3.3008,-3.3086,-3.3379,-3.3184,-3.2969,-3.2812,-3.2676,-3.2539,-3.2402,-3.2383,-3.2383,-3.2383,-3.2383,-3.2383,-3.2383,-3.2773,-3.3008,-3.3008,-3.3262,-3.3418,-3.3418,-3.3418,-3.3418,-3.3418,-3.3144,-3.2871,-3.2598,-3.2012,-3.1953,-3.2383,-3.2383,-3.2598,0.0,0.0,0.0,-3.7535,-3.7443,-3.7536,-4.1456,-4.0414,-3.8961,-4.0311,-4.0104,-3.9673,-3.9672,-3.9697,-3.9697,-3.9697,-3.9697,-3.9697,-3.9645,-3.9697,-3.9697,-3.9645,-3.9697,-3.9697,-3.9697,-3.9697,-3.9697,-3.9697,-3.9697,-3.9697,-3.9697,-3.9697,-3.9697,-3.9697,-3.9697,-3.9697,-3.9697,-3.9697,-3.9697,-3.9697,-3.9697,-3.9697,-3.9697,-3.9697,-3.8084,-3.5288,-3.5288,-3.3642,-3.0898,-3.0898,-3.0898,-3.0898,-3.0898,-3.0898,-3.0898,-3.0898,-3.0898,-3.0898,-3.0898,-3.0898,-3.0898,-3.0898,-3.0898,-3.0898,-3.0898,-3.0898,-3.0918,-3.0918,-3.0918,-3.1016,-3.1445,-3.2168,-3.2793,-3.2812,-3.3125,-3.3418,-3.3418,-3.3418,-3.3418,-3.3418,-3.3418,-3.3418,-3.3418,-3.3418,-3.3281,-3.2871,-3.3164,-3.3281,-3.2871,-3.2812,-3.2812,-3.2812,-3.2812,-3.2812,-3.2812,-3.3184,-3.3418,-3.3418,-3.3418,-3.3418,-3.3418,-3.3418,-3.3418,-3.3418,-3.3418,-3.3418,-3.3418,-3.2598,-3.2402,-3.2812,-3.2812,-3.3027,-3.169,0.0,0.0,0.0,0.0,0.0,-3.8513,-3.8708,-3.8778,-3.9679,-3.9377,-3.9077,-3.9625,-3.9697,-3.9697,-3.9697,-3.9697,-3.9362,-3.8243,-3.9025,-3.931,-3.8243,-3.9077,-3.9697,-3.9697,-3.9697,-3.9697,-3.9697,-3.9697,-3.9697,-3.9697,-3.9697,-3.9697,-3.9697,-3.9697,-3.9697,-3.9697,-3.9697,-3.9697,-3.9697,-3.9697,-3.9697,-3.9697,-3.9697,-3.8084,-3.5288,-3.5288,-3.3642,-3.0898,-3.0898,-3.0898,-3.0898,-3.0898,-3.0898,-3.0898,-3.0898,-3.0898,-3.0898,-3.0898,-3.0898,-3.0898,-3.0898,-3.0898,-3.0898,-3.0898,-3.1094,-3.1348,-3.1348,-3.1562,-3.1914,-3.2324,-3.2617,-3.2871,-3.3184,-3.334,-3.3418,-3.3418,-3.3418,-3.3418,-3.3418,-3.3418,-3.3418,-3.3418,-3.3418,-3.3379,-3.3262,-3.334,-3.3379,-3.3262,-3.3242,-3.3242,-3.3242,-3.3242,-3.3242,-3.3242,-3.3359,-3.3418,-3.3418,-3.3418,-3.3418,-3.3418,-3.3418,-3.3418,-3.3418,-3.3418,-3.3418,-3.3418,-3.2871,-3.2832,-3.3242,-3.3242,-3.332,-3.1989,-3.2407,-3.3275,-3.4771,0.0,0.0,-3.8889,-3.8794,-3.858,-4.0392,-3.9914,-3.9216,-3.9668,-3.9322,-3.9069,-3.932,-3.9346,-3.9164,-3.8481,-3.8635,-3.8687,-3.8453,-3.8635,-3.9025,-3.9645,-3.9697,-3.9697,-3.9697,-3.9697,-3.9697,-3.9697,-3.9697,-3.9697,-3.9697,-3.9697,-3.9697,-3.9697,-3.9697,-3.9697,-3.9697,-3.9697,-3.9697,-3.9697,-3.9697,-3.8425,-3.6162,-3.5563,-3.3979,-3.1767,-3.117,-3.0898,-3.0898,-3.0898,-3.0898,-3.0898,-3.0898,-3.0898,-3.0898,-3.0898,-3.0898,-3.0898,-3.0898,-3.0898,-3.0898,-3.0898,-3.1191,-3.1523,-3.1523,-3.1953,-3.248,-3.2734,-3.293,-3.3125,-3.3359,-3.3418,-3.3418,-3.3418,-3.3418,-3.3418,-3.3418,-3.3418,-3.3418,-3.3418,-3.3418,-3.3418,-3.3418,-3.3418,-3.3418,-3.3418,-3.3418,-3.3418,-3.3418,-3.3418,-3.3418,-3.3418,-3.3418,-3.3418,-3.3418,-3.3418,-3.3418,-3.3418,-3.3418,-3.3418,-3.3418,-3.3418,-3.3418,-3.3418,-3.3184,-3.3184,-3.3418,-3.3418,-3.3418,-3.2916,-3.3215,0.0,-3.6537,-3.5429,0.0,-4.0464,-3.9434,-3.8246,-4.1261,-4.0542,-3.9455,-3.9627,-3.8707,-3.8086,-3.8591,-3.8743,-3.8943,-3.939,-3.8477,-3.819,-3.931,-3.8453,-3.8243,-3.9569,-3.9697,-3.9697,-3.9697,-3.9697,-3.9697,-3.9697,-3.9697,-3.9697,-3.9697,-3.9697,-3.9697,-3.9697,-3.9697,-3.9697,-3.9697,-3.9697,-3.9697,-3.9697,-3.9697,-3.8921,-3.7423,-3.5945,-3.4459,-3.2964,-3.1498,-3.0898,-3.0898,-3.0898,-3.0898,-3.0898,-3.0898,-3.0898,-3.0898,-3.0898,-3.0898,-3.0898,-3.0898,-3.0898,-3.0898,-3.0898,-3.1211,-3.1621,-3.1699,-3.2285,-3.2871,-3.2871,-3.3144,-3.3418,-3.3418,-3.3418,-3.3418,-3.3418,-3.3418,-3.3418,-3.3418,-3.3418,-3.3418,-3.3418,-3.3418,-3.3418,-3.3418,-3.3418,-3.3418,-3.3418,-3.3418,-3.3418,-3.3418,-3.3418,-3.3418,-3.3418,-3.3418,-3.3418,-3.3418,-3.3418,-3.3418,-3.3418,-3.3418,-3.3418,-3.3418,-3.3418,-3.3418,-3.3418,-3.3418,-3.3418,-3.3418,-3.3418,-3.3418,-3.4292,-3.4592,-3.51,-3.507,-3.5489,0.0,-3.6686,-3.6786,-3.7052,-3.8227,-3.7731,-3.7473,-3.8651,-3.7944,-3.7274,-3.7423,-3.784,-3.809,-3.7939,-3.8687,-3.8921,-3.8031,-3.8739,-3.9362,-3.9697,-3.9697,-3.9697,-3.9697,-3.9697,-3.9697,-3.9697,-3.9697,-3.9697,-3.9697,-3.9697,-3.9697,-3.9697,-3.9697,-3.9697,-3.9697,-3.9697,-3.9697,-3.9697,-3.9697,-3.8921,-3.7423,-3.5945,-3.4459,-3.2964,-3.1498,-3.0898,-3.0898,-3.0898,-3.0898,-3.0898,-3.0898,-3.0898,-3.0898,-3.0898,-3.0898,-3.0898,-3.0898,-3.0898,-3.0898,-3.0898,-3.1426,-3.2187,-3.2851,-3.3164,-3.3301,-3.3301,-3.3359,-3.3418,-3.3418,-3.3418,-3.3418,-3.3418,-3.3418,-3.3418,-3.3418,-3.3418,-3.3418,-3.3418,-3.3418,-3.3418,-3.3418,-3.3418,-3.3418,-3.3418,-3.3418,-3.3418,-3.3418,-3.3418,-3.3418,-3.3418,-3.3418,-3.3418,-3.3418,-3.3418,-3.3418,-3.3418,-3.3418,-3.3418,-3.3418,-3.3418,-3.3418,-3.3418,-3.3418,-3.3418,-3.3418,-3.3418,-3.3418,-3.534,-3.5489,-3.6058,-3.6357,-3.6207,0.0,0.0,-3.6956,-3.6999,-3.8612,-3.7705,-3.7025,-3.8412,-3.6778,-3.5581,-3.6463,-3.6703,-3.6819,-3.6946,-3.7898,-3.8582,-3.8582,-3.8582,-3.8921,-3.9645,-3.9697,-3.9697,-3.9697,-3.9697,-3.9697,-3.9697,-3.9697,-3.9697,-3.9697,-3.9697,-3.9697,-3.9697,-3.9697,-3.9697,-3.9697,-3.9697,-3.9697,-3.9697,-3.9697,-3.931,-3.853,-3.7049,-3.5563,-3.4069,-3.2587,-3.1556,-3.0898,-3.0898,-3.0898,-3.0898,-3.0898,-3.0898,-3.0898,-3.0898,-3.0898,-3.0898,-3.0898,-3.0898,-3.0898,-3.0898,-3.1484,-3.2305,-3.293,-3.3262,-3.3418,-3.3418,-3.3418,-3.3418,-3.3418,-3.3418,-3.3418,-3.3418,-3.3418,-3.3418,-3.3418,-3.3418,-3.3418,-3.3418,-3.3418,-3.3418,-3.3418,-3.3418,-3.3418,-3.3418,-3.3418,-3.3418,-3.3418,-3.3418,-3.3418,-3.3418,-3.3418,-3.3418,-3.3418,-3.3418,-3.3418,-3.3418,-3.3418,-3.3418,-3.3418,-3.3418,-3.3418,-3.3418,-3.3418,-3.3418,-3.3418,-3.3418,-3.3418,-3.6956,-3.6926,-3.7584,-3.8212,-3.7404,-3.6836,0.0,0.0,0.0,-3.908,-3.7863,-3.6764,-3.7776,-3.5542,-3.3897,-3.5126,-3.5447,-3.5649,-3.6024,-3.6875,-3.79,-3.9068,-3.8243,-3.808,-3.9418,-3.9446,-3.9446,-3.9672,-3.9496,-3.9471,-3.9697,-3.9697,-3.9697,-3.9697,-3.9697,-3.9697,-3.9697,-3.9697,-3.9697,-3.9697,-3.9697,-3.9697,-3.9697,-3.9697,-3.9697,-3.9645,-3.8137,-3.6649,-3.5178,-3.3698,-3.2264,-3.0898,-3.0898,-3.0898,-3.0898,-3.0898,-3.0898,-3.0898,-3.0898,-3.0898,-3.0898,-3.0898,-3.0898,-3.0918,-3.1094,-3.1621,-3.2266,-3.2773,-3.3164,-3.3418,-3.3418,-3.3418,-3.3418,-3.3418,-3.3418,-3.3418,-3.3418,-3.3418,-3.3418,-3.3418,-3.3418,-3.3418,-3.3418,-3.3418,-3.3418,-3.3418,-3.3418,-3.3418,-3.3418,-3.3418,-3.3418,-3.3418,-3.3418,-3.3418,-3.3418,-3.3418,-3.3418,-3.3418,-3.3418,-3.3418,-3.3418,-3.3418,-3.3418,-3.3418,-3.3418,-3.3418,-3.3418,-3.3418,-3.3418,-3.3418,-3.3418,-3.3418,-4.0217,-4.0337,-4.0427,-3.8811,-3.911,-3.917,-3.6537,0.0,-3.7075,-3.6237,0.0,-3.5566,-3.5456,0.0,0.0,-3.2732,-3.4278,-3.5362,-3.4958,-3.6209,-3.7217,-3.7434,-3.7741,-3.8241,-3.8919,-3.8492,-3.8617,-3.9622,-3.8768,-3.8642,-3.9647,-3.9697,-3.9697,-3.9697,-3.9697,-3.9697,-3.9697,-3.9697,-3.9697,-3.9697,-3.9697,-3.9697,-3.9697,-3.9697,-3.9697,-3.9645,-3.8137,-3.6649,-3.5178,-3.3698,-3.2264,-3.0898,-3.0898,-3.0898,-3.0898,-3.0898,-3.0898,-3.0898,-3.0898,-3.0898,-3.0898,-3.0898,-3.0898,-3.1035,-3.1797,-3.209,-3.2344,-3.3125,-3.3379,-3.3418,-3.3418,-3.3418,-3.3418,-3.3418,-3.3418,-3.3418,-3.3418,-3.3418,-3.3418,-3.3418,-3.3418,-3.3418,-3.3418,-3.3418,-3.3418,-3.3418,-3.3418,-3.3418,-3.3418,-3.3418,-3.3418,-3.3418,-3.3418,-3.3418,-3.3418,-3.3418,-3.3418,-3.3418,-3.3418,-3.3418,-3.3418,-3.3418,-3.3418,-3.3418,-3.3418,-3.3418,-3.3418,-3.3418,-3.3418,-3.3418,-3.3418,-3.3418,-4.0666,-4.0876,-4.1085,-3.9858,-3.9283,-3.8436,-3.6289,-3.558,-3.5375,-3.5229,0.0,0.0,0.0,0.0,0.0,0.0,-3.3107,-3.3654,-3.2916,-3.4386,-3.6096,-3.749,-3.6709,-3.6458,-3.7385,-3.7487,-3.7864,-3.8642,-3.8266,-3.8366,-3.917,-3.9521,-3.9697,-3.9697,-3.9697,-3.9697,-3.9697,-3.9697,-3.9697,-3.9697,-3.9697,-3.9697,-3.9697,-3.9697,-3.9697,-3.9697,-3.9025,-3.7423,-3.5233,-3.4626,-3.2985,-3.0898,-3.0898,-3.0898,-3.0898,-3.0898,-3.0898,-3.0898,-3.0898,-3.0898,-3.0898,-3.0898,-3.1055,-3.1328,-3.168,-3.2148,-3.2598,-3.2969,-3.3242,-3.3418,-3.3418,-3.3418,-3.3418,-3.3418,-3.3418,-3.3418,-3.3418,-3.3418,-3.3418,-3.3418,-3.3418,-3.3418,-3.3418,-3.3418,-3.3418,-3.3418,-3.3418,-3.3418,-3.3418,-3.3418,-3.3418,-3.3418,-3.3418,-3.3418,-3.3418,-3.3418,-3.3418,-3.3418,-3.3418,-3.3418,-3.3418,-3.3418,-3.3839,-3.4798,-3.4798,-3.5273,-3.6194,-3.6194,-3.6194,-3.6133,-3.4258,-3.3418,-4.0529,-4.0734,-4.0881,-3.9572,-3.835,-3.7082,-3.5453,-3.4548,-3.4164,-3.4519,-3.4079,0.0,0.0,0.0,-3.106,-3.1538,0.0,-3.2568,-3.1724,-3.2916,-3.4496,-3.6207,-3.5398,-3.5102,-3.6056,-3.6358,-3.686,-3.7713,-3.7513,-3.7789,-3.8818,-3.9245,-3.9546,-3.9697,-3.9697,-3.9697,-3.9697,-3.9697,-3.9697,-3.9697,-3.9697,-3.9697,-3.9697,-3.9697,-3.9697,-3.9697,-3.9697,-3.8267,-3.589,-3.589,-3.4125,-3.1498,-3.1498,-3.1286,-3.0898,-3.0898,-3.0898,-3.0898,-3.0898,-3.0898,-3.0898,-3.0898,-3.1172,-3.1543,-3.166,-3.2207,-3.2812,-3.293,-3.3184,-3.3418,-3.3418,-3.3418,-3.3418,-3.3418,-3.3418,-3.3418,-3.3418,-3.3418,-3.3418,-3.3418,-3.3418,-3.3418,-3.3418,-3.3418,-3.3418,-3.3418,-3.3776,-3.3902,-3.3481,-3.3776,-3.3902,-3.3418,-3.3418,-3.3418,-3.3418,-3.3418,-3.3418,-3.3418,-3.3418,-3.3418,-3.3418,-3.3418,-3.3965,-3.515,-3.515,-3.5928,-3.7566,-3.7566,-3.7805,-3.8104,-3.5335,-3.407,-4.0387,-4.0304,-4.0027,-3.7066,-3.629,-3.5615,-3.3237,-3.3523,-3.4148,-3.3578,-3.4303,-3.459,-3.3118,-3.2817,-3.2241,-3.0882,-3.1966,0.0,0.0,-3.222,-3.2306,-3.2382,-3.3746,-3.4906,-3.5458,-3.5056,-3.5479,-3.7086,-3.6185,-3.6536,-3.8793,-3.8944,-3.9145,-3.9672,-3.9697,-3.9697,-3.9697,-3.9697,-3.9697,-3.9697,-3.9697,-3.9697,-3.9697,-3.9697,-3.9697,-3.9697,-3.9697,-3.8868,-3.74,-3.74,-3.5704,-3.3021,-3.3021,-3.215,-3.0898,-3.0898,-3.0898,-3.0898,-3.0898,-3.0898,-3.0898,-3.0898,-3.1172,-3.1601,-3.2012,-3.2461,-3.2871,-3.3281,-3.3418,-3.3418,-3.3418,-3.3418,-3.3418,-3.3418,-3.3418,-3.3418,-3.3418,-3.3418,-3.3418,-3.3418,-3.3418,-3.3418,-3.3418,-3.3418,-3.3418,-3.3418,-3.4736,-3.515,-3.3607,-3.4736,-3.515,-3.3607,-3.3418,-3.3418,-3.3418,-3.3418,-3.3418,-3.3418,-3.3418,-3.3418,-3.3418,-3.3418,-3.3418,-3.3481,-3.3481,-3.4258,-3.5867,-3.5867,-3.666,-3.8164,-3.6478,-3.5745,-4.1149,-4.1424,-4.1231,-3.8501,-3.715,-3.5816,-3.3296,-3.3337,-3.3619,-3.268,-3.3672,-3.4312,-3.3054,-3.2303,-3.1716,-3.1201,-3.181,-3.1939,0.0,-3.0279,-3.0305,-3.105,-3.2616,-3.342,-3.2842,-3.3646,-3.455,-3.5479,-3.5508,-3.6182,-3.7663,-3.8467,-3.8994,-3.9145,-3.9496,-3.9697,-3.9697,-3.9697,-3.9697,-3.9697,-3.9697,-3.9697,-3.9697,-3.9697,-3.9697,-3.9697,-3.9697,-3.8319,-3.6108,-3.7079,-3.5759,-3.3077,-3.3077,-3.2794,-3.2264,-3.1286,-3.0898,-3.0898,-3.0898,-3.0898,-3.0937,-3.1211,-3.2275,-3.3548,-3.402,-3.5239,-3.6164,-3.5232,-3.4964,-3.4736,-3.365,-3.3418,-3.3418,-3.3418,-3.3418,-3.3418,-3.3418,-3.3418,-3.3418,-3.3418,-3.3418,-3.3418,-3.3418,-3.3418,-3.3776,-3.486,-3.5437,-3.5622,-3.5026,-3.5437,-3.5211,-3.3607,-3.3418,-3.3418,-3.3418,-3.4383,-3.455,-3.3481,-3.4383,-3.4487,-3.3418,-3.3418,-3.3902,-3.4964,-3.4964,-3.6274,-3.8971,-3.8971,-3.9814,-4.1362,-3.9756,-3.7843,-4.0354,-4.0748,-4.0695,-3.8442,-3.72,-3.5895,-3.3483,-3.3633,-3.4021,-3.2924,-3.3685,-3.4486,-3.415,-3.2953,-3.1989,0.0,0.0,-3.1306,0.0,-2.9478,-2.9503,-3.0231,-3.1436,-3.2139,-3.2014,-3.2441,-3.337,-3.4856,-3.4756,-3.5403,-3.7086,-3.8065,-3.8668,-3.8919,-3.9396,-3.9697,-3.9697,-3.9697,-3.9697,-3.9697,-3.9697,-3.9697,-3.9697,-3.9697,-3.9697,-3.9697,-3.9697,-3.8635,-3.6942,-3.7926,-3.6865,-3.4659,-3.4659,-3.4013,-3.2907,-3.1441,-3.0898,-3.0898,-3.0898,-3.0996,-3.127,-3.2096,-3.3446,-3.4914,-3.5806,-3.705,-3.7985,-3.6963,-3.6234,-3.556,-3.4487,-3.3839,-3.3418,-3.3418,-3.3418,-3.3418,-3.3418,-3.3418,-3.3418,-3.3418,-3.3418,-3.3418,-3.3418,-3.3418,-3.3776,-3.4798,-3.5437,-3.556,-3.5026,-3.5437,-3.5211,-3.3607,-3.3418,-3.3607,-3.4195,-3.5211,-3.5622,-3.517,-3.552,-3.5335,-3.432,-3.3713,-3.3902,-3.4902,-3.4964,-3.6539,-3.9756,-3.9756,-4.088,-4.2986,-4.1362,-3.9522]},{"header":{"parameterUnit":"m.s-1","parameterCategory":1,"la1":30.6,"la2":29.2853,"lo1":-89.7004,"lo2":-87.6739,"dy":0.0162,"dx":0.0183,"nx":112,"ny":82,"refTime":"2026-05-17T12:00:00:Z","depth":0,"parameterNumber":3,"parameterNumberName":"V-component_of_WINDS"},"data":[0.0,0.0,0.0,0.0,0.0,0.0,0.0,0.0,0.0,0.0,0.0,0.0,0.0,0.0,0.0,0.0,0.0,0.0,0.0,0.0,0.0,0.0,0.0,0.0,0.0,0.0,0.0,0.0,0.0,0.0,0.0,0.0,0.0,0.0,0.0,0.0,0.0,0.0,0.0,0.0,0.0,0.0,0.0,0.0,0.0,0.0,0.0,0.0,0.0,0.0,0.0,0.0,0.0,0.0,0.0,0.0,0.0,0.0,0.0,0.0,0.0,0.0,0.0,0.0,0.0,0.0,0.0,0.0,0.0,0.0,0.0,0.0,0.0,0.0,0.0,0.0,0.0,0.0,0.0,0.0,0.0,0.0,0.0,0.0,0.0,0.0,0.0,0.0,0.0,0.0,3.6107,3.7191,3.8787,3.9673,3.9439,3.932,3.7943,3.4863,0.0,0.0,0.0,0.0,0.0,0.0,0.0,0.0,0.0,0.0,0.0,0.0,0.0,0.0,0.0,0.0,0.0,0.0,0.0,0.0,0.0,0.0,0.0,0.0,0.0,0.0,0.0,0.0,0.0,0.0,0.0,0.0,0.0,0.0,0.0,0.0,0.0,0.0,0.0,0.0,0.0,0.0,0.0,0.0,0.0,0.0,0.0,0.0,0.0,0.0,0.0,0.0,0.0,0.0,0.0,0.0,0.0,0.0,0.0,0.0,0.0,0.0,0.0,0.0,0.0,0.0,0.0,0.0,0.0,0.0,0.0,0.0,0.0,0.0,0.0,0.0,0.0,0.0,0.0,0.0,0.0,0.0,0.0,0.0,0.0,0.0,0.0,0.0,0.0,0.0,0.0,0.0,0.0,0.0,0.0,0.0,0.0,0.0,0.0,0.0,0.0,0.0,0.0,0.0,3.7809,4.0681,4.1264,4.0882,3.9541,3.8871,3.7644,3.5489,0.0,0.0,0.0,0.0,0.0,0.0,0.0,0.0,0.0,0.0,0.0,0.0,0.0,0.0,0.0,0.0,0.0,0.0,0.0,0.0,0.0,0.0,0.0,0.0,0.0,0.0,0.0,0.0,0.0,0.0,0.0,0.0,0.0,0.0,0.0,0.0,0.0,0.0,0.0,0.0,0.0,0.0,0.0,0.0,0.0,0.0,0.0,0.0,0.0,0.0,0.0,0.0,0.0,0.0,0.0,0.0,0.0,0.0,0.0,0.0,0.0,0.0,0.0,0.0,0.0,0.0,0.0,0.0,0.0,0.0,0.0,0.0,0.0,0.0,0.0,0.0,0.0,0.0,0.0,0.0,0.0,0.0,0.0,0.0,0.0,0.0,0.0,0.0,0.0,0.0,0.0,0.0,0.0,0.0,0.0,0.0,0.0,0.0,0.0,0.0,0.0,0.0,0.0,3.7157,3.9312,4.2726,4.2626,4.1886,4.0781,3.9943,3.8332,3.5669,3.4233,0.0,0.0,0.0,0.0,0.0,0.0,0.0,0.0,0.0,0.0,0.0,0.0,0.0,0.0,0.0,0.0,0.0,0.0,0.0,0.0,0.0,0.0,0.0,0.0,0.0,0.0,0.0,0.0,0.0,0.0,0.0,0.0,0.0,0.0,0.0,0.0,0.0,0.0,0.0,0.0,0.0,0.0,0.0,0.0,0.0,0.0,0.0,0.0,0.0,0.0,0.0,0.0,0.0,0.0,0.0,0.0,0.0,0.0,0.0,0.0,0.0,0.0,0.0,0.0,0.0,0.0,0.0,0.0,0.0,0.0,0.0,0.0,0.0,0.0,0.0,0.0,0.0,0.0,0.0,0.0,0.0,0.0,0.0,0.0,0.0,0.0,0.0,0.0,0.0,0.0,0.0,0.0,0.0,0.0,0.0,0.0,0.0,0.0,0.0,0.0,0.0,0.0,4.0067,4.1338,4.4427,4.3939,4.2931,4.188,4.0654,3.8661,3.5699,3.3933,0.0,0.0,0.0,0.0,0.0,0.0,0.0,0.0,0.0,0.0,0.0,0.0,0.0,0.0,0.0,0.0,0.0,0.0,0.0,0.0,0.0,0.0,0.0,0.0,0.0,0.0,0.0,0.0,0.0,0.0,0.0,0.0,0.0,0.0,0.0,0.0,0.0,0.0,0.0,0.0,0.0,0.0,0.0,0.0,0.0,0.0,0.0,0.0,0.0,0.0,0.0,0.0,0.0,0.0,0.0,0.0,0.0,0.0,0.0,0.0,0.0,0.0,0.0,0.0,0.0,0.0,0.0,0.0,0.0,0.0,0.0,0.0,0.0,0.0,0.0,0.0,0.0,0.0,0.0,0.0,0.0,0.0,0.0,0.0,0.0,0.0,0.0,0.0,0.0,0.0,0.0,0.0,0.0,0.0,0.0,0.0,0.0,0.0,0.0,0.0,0.0,0.0,4.2334,4.4493,4.6224,4.5597,4.4167,4.198,3.9803,3.7674,3.5639,3.3065,0.0,0.0,0.0,0.0,0.0,0.0,0.0,0.0,0.0,0.0,0.0,0.0,0.0,0.0,0.0,0.0,0.0,0.0,0.0,0.0,0.0,0.0,0.0,0.0,0.0,0.0,0.0,0.0,0.0,0.0,0.0,0.0,0.0,0.0,0.0,0.0,0.0,0.0,0.0,0.0,0.0,0.0,0.0,0.0,0.0,0.0,0.0,0.0,0.0,0.0,0.0,0.0,0.0,0.0,0.0,0.0,0.0,0.0,0.0,0.0,0.0,0.0,0.0,0.0,0.0,0.0,0.0,0.0,0.0,0.0,0.0,0.0,0.0,0.0,0.0,0.0,0.0,0.0,0.0,0.0,0.0,0.0,0.0,0.0,0.0,0.0,0.0,0.0,0.0,0.0,0.0,0.0,0.0,0.0,0.0,0.0,0.0,0.0,0.0,0.0,0.0,0.0,4.2236,4.4756,4.7784,4.7243,4.5759,4.3468,4.1973,3.9542,3.5731,0.0,0.0,0.0,0.0,0.0,0.0,0.0,0.0,0.0,0.0,0.0,0.0,0.0,0.0,0.0,0.0,0.0,0.0,0.0,0.0,0.0,0.0,0.0,0.0,0.0,0.0,0.0,0.0,0.0,0.0,0.0,0.0,0.0,0.0,0.0,0.0,0.0,0.0,0.0,0.0,0.0,0.0,0.0,0.0,0.0,0.0,0.0,0.0,0.0,0.0,0.0,0.0,0.0,0.0,0.0,0.0,0.0,0.0,0.0,0.0,0.0,0.0,0.0,0.0,0.0,0.0,0.0,0.0,0.0,0.0,0.0,0.0,0.0,0.0,0.0,0.0,0.0,0.0,0.0,0.0,0.0,0.0,0.0,0.0,0.0,0.0,0.0,0.0,0.0,0.0,0.0,0.0,0.0,0.0,0.0,0.0,0.0,0.0,0.0,0.0,0.0,0.0,3.9728,4.2619,4.547,4.8658,4.7901,4.6349,4.4357,4.2685,3.9821,3.5464,0.0,0.0,0.0,0.0,0.0,0.0,0.0,0.0,0.0,0.0,0.0,0.0,0.0,0.0,0.0,0.0,0.0,0.0,0.0,0.0,0.0,0.0,0.0,0.0,0.0,0.0,0.0,0.0,0.0,0.0,0.0,0.0,0.0,0.0,0.0,0.0,0.0,0.0,0.0,0.0,0.0,0.0,0.0,0.0,0.0,0.0,0.0,0.0,0.0,0.0,0.0,0.0,0.0,0.0,0.0,0.0,0.0,0.0,0.0,0.0,0.0,0.0,0.0,0.0,0.0,0.0,0.0,0.0,0.0,0.0,0.0,0.0,0.0,0.0,0.0,0.0,0.0,0.0,0.0,0.0,0.0,0.0,0.0,0.0,0.0,0.0,0.0,0.0,0.0,0.0,0.0,0.0,0.0,0.0,0.0,0.0,0.0,0.0,0.0,0.0,0.0,0.0,3.9946,4.3999,4.7201,4.8824,4.734,4.5667,4.429,4.1282,3.8003,0.0,0.0,0.0,0.0,0.0,0.0,0.0,0.0,0.0,0.0,0.0,0.0,0.0,0.0,0.0,0.0,0.0,0.0,0.0,0.0,0.0,0.0,0.0,0.0,0.0,0.0,0.0,0.0,0.0,0.0,0.0,0.0,0.0,0.0,0.0,0.0,0.0,0.0,0.0,0.0,0.0,0.0,0.0,0.0,0.0,0.0,0.0,0.0,0.0,0.0,0.0,0.0,0.0,0.0,0.0,0.0,0.0,0.0,0.0,0.0,0.0,0.0,0.0,0.0,0.0,0.0,0.0,0.0,0.0,0.0,0.0,0.0,0.0,0.0,0.0,0.0,0.0,0.0,0.0,0.0,0.0,0.0,0.0,0.0,0.0,0.0,0.0,0.0,0.0,0.0,0.0,0.0,0.0,0.0,0.0,0.0,0.0,0.0,0.0,0.0,0.0,0.0,0.0,4.0627,4.4675,4.7733,4.8892,4.7901,4.6383,4.4357,4.2282,3.9219,3.4775,0.0,0.0,0.0,0.0,0.0,0.0,0.0,0.0,0.0,0.0,0.0,0.0,0.0,0.0,0.0,0.0,0.0,0.0,0.0,0.0,0.0,0.0,0.0,0.0,0.0,0.0,0.0,0.0,0.0,0.0,0.0,0.0,0.0,0.0,0.0,0.0,0.0,0.0,0.0,0.0,0.0,0.0,0.0,0.0,0.0,0.0,0.0,0.0,0.0,0.0,0.0,0.0,0.0,0.0,0.0,0.0,0.0,0.0,0.0,0.0,0.0,0.0,0.0,0.0,0.0,0.0,0.0,0.0,0.0,0.0,0.0,0.0,0.0,0.0,0.0,0.0,0.0,0.0,0.0,0.0,0.0,0.0,0.0,0.0,0.0,0.0,0.0,0.0,0.0,0.0,0.0,0.0,0.0,0.0,0.0,0.0,0.0,0.0,0.0,0.0,0.0,0.0,4.137,4.5162,4.8099,4.9297,4.767,4.5968,4.4707,4.2771,3.9721,3.5194,0.0,0.0,0.0,0.0,0.0,0.0,0.0,0.0,0.0,0.0,0.0,0.0,0.0,0.0,0.0,0.0,0.0,0.0,0.0,0.0,0.0,0.0,0.0,0.0,0.0,0.0,0.0,0.0,0.0,0.0,0.0,0.0,0.0,0.0,0.0,0.0,0.0,0.0,0.0,0.0,0.0,0.0,0.0,0.0,0.0,0.0,0.0,0.0,0.0,0.0,0.0,0.0,0.0,0.0,0.0,0.0,0.0,0.0,0.0,0.0,0.0,0.0,0.0,0.0,0.0,0.0,0.0,0.0,0.0,0.0,0.0,0.0,0.0,0.0,0.0,0.0,0.0,0.0,0.0,0.0,0.0,0.0,0.0,0.0,0.0,0.0,0.0,0.0,0.0,0.0,0.0,0.0,0.0,0.0,0.0,0.0,0.0,0.0,0.0,0.0,0.0,0.0,4.2001,4.5524,4.8297,4.968,4.6904,4.4982,4.5043,4.275,3.9649,3.5848,0.0,0.0,0.0,0.0,0.0,0.0,0.0,0.0,0.0,0.0,0.0,0.0,0.0,0.0,0.0,0.0,0.0,0.0,0.0,0.0,0.0,0.0,0.0,0.0,0.0,0.0,0.0,0.0,0.0,0.0,0.0,0.0,0.0,0.0,0.0,0.0,0.0,0.0,0.0,0.0,0.0,0.0,0.0,0.0,0.0,0.0,0.0,0.0,0.0,0.0,0.0,0.0,0.0,0.0,0.0,0.0,0.0,0.0,0.0,0.0,3.6946,3.447,0.0,0.0,0.0,0.0,0.0,0.0,0.0,0.0,0.0,0.0,0.0,0.0,0.0,0.0,0.0,0.0,0.0,0.0,0.0,0.0,0.0,0.0,0.0,0.0,0.0,0.0,0.0,0.0,0.0,0.0,0.0,0.0,0.0,0.0,0.0,0.0,0.0,0.0,0.0,0.0,4.1689,4.5917,4.846,4.7907,4.6692,4.5421,4.4189,4.198,3.9379,3.6447,3.4532,0.0,0.0,0.0,0.0,0.0,0.0,0.0,0.0,0.0,0.0,0.0,0.0,0.0,0.0,0.0,0.0,0.0,0.0,0.0,0.0,0.0,0.0,0.0,0.0,0.0,0.0,0.0,0.0,0.0,0.0,0.0,0.0,0.0,0.0,0.0,0.0,0.0,0.0,0.0,0.0,0.0,0.0,0.0,0.0,0.0,0.0,0.0,0.0,0.0,0.0,0.0,0.0,0.0,0.0,0.0,0.0,0.0,0.0,0.0,4.0746,3.8468,0.0,0.0,0.0,0.0,0.0,0.0,0.0,0.0,0.0,0.0,0.0,0.0,0.0,0.0,0.0,0.0,0.0,0.0,0.0,0.0,0.0,0.0,0.0,0.0,0.0,0.0,0.0,0.0,0.0,0.0,0.0,0.0,0.0,0.0,0.0,0.0,0.0,0.0,0.0,0.0,4.2713,4.5374,4.7357,4.8326,4.6271,4.4663,4.4322,4.2573,4.045,3.8068,3.6152,0.0,0.0,0.0,0.0,0.0,0.0,0.0,0.0,0.0,0.0,0.0,0.0,0.0,0.0,0.0,0.0,0.0,0.0,0.0,0.0,0.0,0.0,0.0,0.0,0.0,0.0,0.0,0.0,0.0,0.0,0.0,0.0,0.0,0.0,0.0,0.0,0.0,0.0,0.0,0.0,0.0,0.0,0.0,0.0,0.0,0.0,0.0,0.0,0.0,0.0,0.0,0.0,0.0,4.8506,4.8955,4.9464,4.8925,4.837,4.7683,4.5356,4.3533,4.2266,4.0864,0.0,0.0,0.0,0.0,0.0,0.0,0.0,0.0,0.0,0.0,0.0,0.0,0.0,0.0,0.0,0.0,0.0,0.0,0.0,0.0,0.0,0.0,4.134,4.323,4.2928,4.1414,3.8736,0.0,0.0,0.0,0.0,0.0,0.0,0.0,0.0,0.0,0.0,0.0,4.3458,4.4576,4.6029,4.858,4.5803,4.4051,4.4737,4.365,4.2133,4.0193,3.8232,3.5706,0.0,0.0,0.0,0.0,0.0,0.0,0.0,0.0,0.0,0.0,0.0,0.0,0.0,0.0,0.0,0.0,0.0,0.0,0.0,0.0,0.0,0.0,0.0,0.0,0.0,0.0,0.0,0.0,0.0,0.0,0.0,0.0,3.6107,3.6179,0.0,0.0,0.0,0.0,0.0,0.0,0.0,0.0,0.0,0.0,0.0,0.0,0.0,4.6531,4.7758,4.9643,5.09,5.1588,5.3324,5.4192,5.4281,5.4192,5.3764,5.3138,5.2772,0.0,4.3771,4.4374,0.0,0.0,0.0,0.0,0.0,0.0,0.0,0.0,0.0,0.0,0.0,0.0,0.0,0.0,0.0,0.0,0.0,0.0,0.0,0.0,0.0,0.0,4.6687,4.6784,4.6045,4.5201,4.4768,4.0756,3.6866,3.54,3.4233,3.3006,0.0,0.0,0.0,0.0,0.0,0.0,4.1486,4.4288,4.5772,4.5087,4.5516,4.5561,4.4849,4.4264,4.3538,4.2677,4.0002,3.7747,3.6166,3.4091,0.0,0.0,0.0,0.0,0.0,0.0,0.0,0.0,0.0,0.0,0.0,0.0,0.0,0.0,0.0,0.0,0.0,0.0,0.0,0.0,0.0,0.0,0.0,0.0,0.0,0.0,0.0,0.0,0.0,3.5579,3.6483,3.6784,3.6609,3.64,0.0,0.0,0.0,0.0,0.0,0.0,0.0,0.0,0.0,4.8402,4.885,4.9883,5.1588,5.3204,5.4162,5.4461,5.5658,5.6256,5.6256,5.6256,5.6107,5.5807,5.5448,5.3396,5.0145,4.8341,4.6757,4.5339,0.0,0.0,0.0,0.0,4.482,4.5236,4.6395,4.6531,4.6124,4.5035,0.0,0.0,0.0,0.0,0.0,0.0,0.0,4.2493,4.4845,4.6373,4.7731,4.9511,4.917,4.832,4.7947,4.4843,4.1407,3.8737,3.7494,3.5938,3.3125,3.3006,0.0,0.0,0.0,3.973,4.2438,4.4345,4.5551,4.5977,4.6086,4.6032,4.5634,4.5098,4.4496,4.3712,4.1788,4.0059,3.8675,3.6925,3.5245,0.0,0.0,0.0,0.0,0.0,0.0,0.0,0.0,0.0,0.0,0.0,0.0,0.0,0.0,0.0,0.0,0.0,0.0,0.0,0.0,0.0,0.0,0.0,0.0,0.0,0.0,0.0,0.0,3.6609,3.736,3.7588,3.8309,3.8501,0.0,0.0,0.0,0.0,0.0,0.0,4.7445,4.7728,4.9045,5.1678,5.2217,5.3264,5.494,5.6107,5.6675,5.6675,5.7304,5.7603,5.7603,5.7603,5.7513,5.7334,5.6675,5.6047,5.5179,5.1755,4.9793,4.8865,4.7219,4.7001,4.7579,4.7382,4.7928,4.8959,5.011,5.0272,4.9914,4.901,4.7782,4.6152,4.3532,0.0,0.0,0.0,0.0,4.4364,4.7405,4.8124,4.8776,5.1651,5.1557,5.0618,5.0144,4.8338,4.5784,4.2203,4.0521,3.8732,3.5844,3.6027,0.0,3.615,3.853,4.1194,4.3552,4.4642,4.5636,4.6873,4.674,4.6558,4.6558,4.6225,4.566,4.4854,4.3535,4.2252,4.0903,3.9497,3.8023,3.6442,0.0,0.0,0.0,0.0,0.0,0.0,0.0,0.0,0.0,0.0,0.0,0.0,0.0,0.0,0.0,0.0,0.0,0.0,0.0,0.0,0.0,0.0,0.0,0.0,0.0,0.0,0.0,0.0,0.0,3.8894,4.1336,0.0,0.0,0.0,0.0,4.5883,4.6655,4.8222,5.084,5.1558,5.3114,5.5777,5.5897,5.6256,5.6944,5.7663,5.8022,5.8022,5.868,5.9009,5.9009,5.9009,5.865,5.8022,5.7334,5.6705,5.6008,5.3862,5.2217,5.099,5.0226,4.9659,4.9224,4.9793,5.0421,5.1036,5.1109,5.1558,5.2107,5.2516,5.157,5.0153,4.9395,4.7542,0.0,0.0,4.6875,4.7522,4.9694,5.0742,5.152,5.3072,5.2592,5.1849,5.1783,5.0431,4.8312,4.5291,4.2345,4.0366,4.0402,0.0,3.9798,4.0386,4.1938,4.3216,4.3754,4.5155,4.617,4.6272,4.7002,4.7506,4.7506,4.7684,4.744,4.6701,4.52,4.3948,4.3164,4.1648,3.9897,3.7841,3.6364,0.0,0.0,0.0,0.0,0.0,0.0,0.0,0.0,0.0,0.0,0.0,0.0,0.0,0.0,0.0,0.0,0.0,0.0,0.0,0.0,0.0,0.0,0.0,0.0,0.0,0.0,0.0,0.0,4.18,4.3493,0.0,4.4769,4.6005,4.7349,4.8716,5.0242,5.1887,5.3683,5.4401,5.5568,5.7363,5.7423,5.7723,5.8381,5.862,5.874,5.877,5.9009,5.9099,5.9099,5.9099,5.8979,5.868,5.7573,5.6974,5.6645,5.5119,5.3952,5.3084,5.2396,5.242,5.2811,5.2322,5.3041,5.4107,5.3405,5.3294,5.3428,5.3022,5.244,5.1834,5.1577,5.0927,5.0302,5.0517,5.0112,4.9881,5.085,5.1261,5.1572,5.2299,5.2697,5.2939,5.2939,5.1574,4.9909,4.835,4.5957,4.3599,4.1728,4.2082,4.2581,4.239,4.3579,4.4699,4.5271,4.6362,4.7104,4.7104,4.7933,4.8513,4.8513,4.7686,4.709,4.6819,4.537,4.439,4.4155,4.3623,4.2712,4.1477,4.0014,3.7945,0.0,0.0,0.0,0.0,0.0,0.0,0.0,0.0,0.0,0.0,0.0,0.0,0.0,0.0,0.0,0.0,0.0,0.0,0.0,0.0,0.0,0.0,0.0,0.0,0.0,4.0542,4.2606,4.4687,4.6451,4.7604,4.7827,4.9212,5.0589,5.1762,5.3114,5.4551,5.6107,5.6585,5.7334,5.8411,5.8471,5.865,5.9099,5.9099,5.9099,5.9099,5.9099,5.9099,5.9099,5.9099,5.9099,5.9039,5.7663,5.7094,5.7004,5.5718,5.494,5.4491,5.4042,5.4322,5.4918,5.4127,5.4643,5.5577,5.5007,5.4861,5.4913,5.4493,5.4388,5.4403,5.4403,5.4131,5.3743,5.3375,5.273,5.2094,5.1837,5.1773,5.1862,5.2329,5.2697,5.3076,5.3416,5.2571,5.1454,5.038,4.8267,4.6013,4.4074,4.4646,4.5209,4.4723,4.5701,4.6516,4.6664,4.7473,4.8096,4.8096,4.8608,4.9018,4.9018,4.7868,4.7056,4.6819,4.5427,4.4479,4.4215,4.3944,4.3436,4.2665,4.1204,3.9377,3.7144,0.0,0.0,0.0,0.0,0.0,0.0,0.0,0.0,0.0,0.0,0.0,0.0,0.0,0.0,0.0,0.0,0.0,0.0,0.0,0.0,0.0,0.0,0.0,4.1743,4.3353,4.5229,4.7429,5.0223,5.1632,5.0751,5.226,5.3832,5.5149,5.5269,5.6107,5.8022,5.8141,5.8441,5.9069,5.9099,5.9099,5.9099,5.9099,5.9099,5.9099,5.9099,5.9099,5.9099,5.9069,5.9069,5.9009,5.7663,5.7064,5.6974,5.5718,5.5179,5.5179,5.5179,5.5179,5.5179,5.5179,5.5179,5.529,5.5725,5.6148,5.6584,5.7037,5.7525,5.7881,5.7881,5.7114,5.6047,5.4961,5.4598,5.4237,5.2676,5.2405,5.2605,5.3308,5.2662,5.2241,5.328,5.3518,5.3011,5.1282,4.9053,4.7497,4.7604,4.7638,4.7671,4.7671,4.8418,0.0,4.777,4.845,4.9018,4.9018,4.9018,4.9018,4.9018,4.8308,4.7564,4.6819,4.5393,4.4215,4.3409,4.2726,4.1982,4.1271,3.9817,3.87,3.799,0.0,0.0,0.0,0.0,0.0,0.0,0.0,0.0,0.0,0.0,0.0,0.0,0.0,0.0,0.0,0.0,0.0,0.0,0.0,0.0,0.0,4.1413,4.2499,4.296,4.3873,4.5735,4.8866,5.0317,5.2014,5.442,5.5087,5.5688,5.6526,5.7034,5.7543,5.8082,5.859,5.8919,5.9099,5.9099,5.9099,5.9099,5.9099,5.9099,5.9099,5.9099,5.9099,5.9099,5.862,5.8381,5.8321,5.7004,5.6436,5.6346,5.5538,5.5179,5.5179,5.5179,5.5179,5.5179,5.5179,5.5179,5.529,5.5725,5.6148,5.6584,5.7037,5.7525,5.7881,5.7881,5.7665,5.7222,5.6087,5.4859,5.367,5.2701,5.2053,5.183,5.2224,5.2697,5.3144,5.3416,5.3518,5.318,5.2102,5.0961,4.9759,4.8595,4.8527,4.8608,4.8608,4.8829,4.8892,4.8639,4.8829,4.9018,4.9018,4.9018,4.9018,4.9018,4.7834,4.6786,4.6041,4.4587,4.3639,4.3409,4.3206,4.3003,4.2828,4.1373,4.0223,0.0,0.0,0.0,0.0,0.0,0.0,0.0,0.0,0.0,0.0,0.0,0.0,0.0,0.0,0.0,0.0,0.0,0.0,0.0,0.0,0.0,0.0,4.3877,4.438,4.5873,4.5983,4.7336,5.112,5.1868,5.3217,5.6258,5.6555,5.6825,5.7483,5.7902,5.8231,5.853,5.889,5.9099,5.9099,5.9099,5.9099,5.9099,5.9099,5.9099,5.9099,5.9099,5.8949,5.868,5.8291,5.7962,5.7633,5.6615,5.6218,5.6158,5.5992,5.5651,5.5179,0.0,0.0,0.0,0.0,5.5179,5.528,5.5922,5.6315,5.6638,5.7272,5.7666,5.7881,5.7881,5.7554,5.6963,5.585,5.4608,5.3332,5.2099,5.1605,5.1533,5.1831,5.2383,5.2939,5.3382,5.3518,5.3382,5.2909,5.1961,0.0,4.9925,4.9313,4.9018,4.9018,4.9018,4.9018,4.9018,4.9018,4.9018,4.9018,4.9018,4.9018,4.9018,4.7936,0.0,0.0,0.0,4.3606,4.2963,4.2963,0.0,0.0,0.0,0.0,0.0,4.1576,0.0,0.0,4.0764,4.0595,0.0,0.0,0.0,0.0,0.0,0.0,0.0,0.0,0.0,0.0,0.0,0.0,0.0,0.0,0.0,0.0,4.6275,4.6202,4.9172,4.8418,4.8962,5.284,5.3471,5.4434,5.6637,5.6989,5.7423,5.8171,5.8231,5.8501,5.9069,5.9099,0.0,0.0,0.0,5.9099,5.9099,5.9099,5.9069,5.9009,5.9009,5.865,5.7992,5.7932,5.7573,5.6944,5.6316,5.6128,5.6119,5.6739,5.6347,5.5381,5.5229,5.5179,5.5179,5.5179,5.5179,5.532,5.6203,0.0,0.0,5.7577,5.7881,5.7881,5.7881,5.7114,5.5968,5.492,5.3971,5.2908,5.1223,5.1096,5.1476,5.1798,5.1993,5.2348,5.3314,5.3518,5.3518,5.3518,5.2266,5.1185,5.1185,4.9999,4.9018,4.9018,4.9018,4.9018,4.9018,4.8892,4.8892,4.9018,4.8892,0.0,4.8984,4.8342,4.7597,4.6853,4.5495,4.4107,4.2726,4.276,4.3064,4.3646,4.3713,4.4418,4.5703,4.5805,4.6143,4.6684,4.2726,4.1888,0.0,0.0,0.0,0.0,0.0,0.0,0.0,0.0,0.0,0.0,0.0,0.0,0.0,0.0,0.0,4.7275,4.8128,4.8701,4.8699,4.747,4.728,4.9328,5.06,5.2373,5.5076,5.6403,5.7603,5.883,5.8919,5.8979,5.9099,5.9099,5.9099,5.9099,5.9099,5.9099,5.9099,5.9099,5.883,5.8321,5.8321,0.0,5.7274,5.6765,5.6466,5.6368,5.5658,5.5388,5.546,5.6554,5.6848,5.6541,5.5601,5.5179,5.5179,5.5179,5.5179,5.532,5.6203,5.6495,5.6627,5.7577,5.7881,5.7881,5.7881,5.7114,0.0,5.492,5.3081,5.135,5.0929,5.0709,5.0826,5.1667,5.2557,5.3246,5.3484,5.3518,5.3518,5.3518,5.2266,5.1185,5.1185,4.9999,4.9018,4.9018,4.9018,4.9018,4.9018,4.8321,4.8161,4.8923,4.8321,4.8193,4.8923,4.8342,4.7597,4.6853,4.5974,4.5365,4.506,4.5602,4.5703,4.5263,4.5838,4.6007,4.5703,4.6312,4.665,4.6786,4.5906,4.5737,0.0,0.0,0.0,0.0,0.0,0.0,0.0,0.0,0.0,0.0,0.0,4.411,4.5067,0.0,4.9005,4.9558,4.9335,4.8959,4.8536,4.7265,4.6874,4.83,5.0118,5.2016,5.4179,5.6362,5.7902,5.856,5.8919,5.9099,5.9099,5.9099,5.9099,5.9099,5.9099,5.9099,5.9099,5.9099,5.877,5.8112,5.8112,5.7603,5.6615,5.6368,5.6038,5.5658,5.5329,5.5179,5.5229,5.5869,5.68,5.7714,5.5918,5.5179,5.5179,5.5179,5.5179,5.532,5.6203,5.6495,5.6627,5.7577,5.7881,5.7881,5.7881,5.6734,5.5288,5.4755,5.2426,5.0096,5.0053,5.0237,5.0512,5.1005,5.2381,5.3518,5.3518,5.3518,5.3518,5.3518,5.2266,5.1185,5.1185,4.9999,4.9018,4.9018,4.9018,4.9018,4.9018,4.8193,4.7933,4.8892,4.8161,4.7966,4.8923,4.8342,4.7736,4.7394,4.665,4.6244,4.6244,4.6583,4.6616,4.6244,4.6616,4.6786,4.6819,4.7192,4.753,4.7902,4.7902,4.7699,0.0,0.0,0.0,0.0,0.0,0.0,0.0,4.2317,4.3788,4.4556,4.6591,4.8566,4.9643,5.0405,5.0984,5.1475,5.0078,4.8762,4.8152,4.7027,4.6755,4.7919,5.0111,5.2128,5.3719,5.6244,5.7782,5.7932,5.853,5.8919,5.8919,5.9039,5.9099,5.9099,5.9099,5.9099,5.9099,5.9099,5.871,5.7932,5.7932,5.7244,5.6038,5.6038,5.5688,5.5179,5.5179,5.5451,5.5869,5.5381,5.659,5.8542,5.6134,5.5179,5.5179,5.5179,5.533,5.5637,5.6293,5.6669,5.6999,5.7653,5.7881,5.7881,5.7881,5.6509,5.4879,5.4672,5.2168,4.9538,4.9344,4.9685,5.0126,5.0358,5.1846,5.3246,5.345,5.3518,5.3518,5.3518,5.2367,5.1386,5.1219,5.0101,4.9187,4.9018,4.9018,4.9018,4.9018,4.8193,4.7933,4.8892,4.8161,4.7966,4.8923,4.8477,4.8108,4.8108,4.7564,4.7225,4.7225,4.7225,4.7225,4.7225,4.7225,4.753,4.8108,4.8108,4.8443,4.9018,4.9018,4.868,3.7476,3.7561,3.8793,4.1893,4.2356,4.3091,0.0,4.7894,4.7967,4.9179,5.0631,5.1708,5.1858,5.2879,5.2872,5.0395,5.0271,4.9565,4.6909,4.6421,4.6361,4.6541,4.9076,5.1625,5.369,5.5417,5.6615,5.7154,5.7842,5.8231,5.8231,5.88,5.9099,5.9099,5.9099,5.9099,5.9099,5.9099,5.8471,5.7214,5.7214,5.6526,5.5299,5.5299,5.5269,5.5179,5.5179,5.6427,5.8223,5.6115,5.659,5.8542,5.6134,5.5179,5.5179,5.5179,5.5869,5.6774,5.6575,5.7226,5.8107,5.795,5.7881,5.7881,5.7881,5.7001,5.585,5.4879,5.2734,5.047,4.9538,4.9164,4.9215,5.0165,5.1229,5.2348,5.3314,5.3518,5.3518,5.3518,5.2773,5.1961,5.1319,5.0507,4.9729,4.9086,4.9018,4.9018,4.9018,4.8193,4.7933,4.8892,4.8161,4.7966,4.8923,4.8917,4.8883,4.8883,4.8815,4.8748,4.8748,4.8748,4.8748,4.8748,4.8748,4.8781,4.8883,4.8883,4.8917,4.9018,4.9018,4.8951,4.2041,4.1536,4.1725,4.4374,4.5155,4.5933,4.87,4.9344,4.9793,5.1109,5.2456,5.3354,5.3354,5.3423,5.2769,5.06,4.9769,4.8678,4.6576,4.6301,4.6534,4.7037,4.9236,5.1072,5.1927,5.4562,5.6286,5.6526,5.7154,5.7513,5.7513,5.8171,5.8351,5.7962,5.868,5.8919,5.853,5.853,5.8052,5.7094,5.6735,5.6077,5.5179,5.5179,5.5179,5.5179,5.5179,5.6541,5.8677,5.6943,5.7276,5.8632,5.6896,5.5819,5.5179,5.5179,5.5675,5.6341,5.6449,5.7009,5.7668,5.7853,5.7881,5.7881,5.7881,5.7114,5.6126,5.5658,5.3286,5.0782,5.0371,4.9528,4.9054,5.0126,5.1155,5.2205,5.328,5.3518,5.3518,5.3518,5.2841,5.2198,5.1894,5.0879,4.9999,4.9695,4.9255,4.9018,4.9018,4.8193,4.777,4.8161,4.8321,4.8576,4.8987,4.9018,4.9018,4.9018,4.9018,4.9018,4.9018,4.9018,4.9018,4.9018,4.9018,4.9018,4.9018,4.9018,4.9018,4.9018,4.9018,4.9018,4.4033,4.376,4.3712,4.5998,4.7219,4.8147,4.9284,5.0182,5.105,5.2007,5.3114,5.3982,5.4192,5.3714,5.2761,5.1016,4.9791,4.8474,4.6576,4.6175,4.6315,4.7022,4.8917,5.0188,5.0188,5.3669,5.5897,5.5897,5.6496,5.6825,5.6825,5.7483,5.7603,5.7124,5.8052,5.8321,5.7842,5.7842,5.7513,5.6825,5.6376,5.5837,5.5179,5.5179,5.5179,5.5229,5.5551,5.6879,5.8722,5.7854,5.7993,5.8677,5.748,5.628,5.5179,5.497,5.5554,5.6432,5.6486,5.7024,5.7698,5.786,5.7881,5.7881,5.7881,5.7335,5.6624,5.6282,5.4228,5.2007,5.1487,5.0454,4.9756,5.0583,5.1377,5.2205,5.328,5.3518,5.3518,5.3518,5.3044,5.257,5.2334,5.1251,5.0338,5.0135,4.9458,4.9018,4.9018,4.8418,4.7966,4.7966,4.8576,4.9018,4.9018,4.9018,4.9018,4.9018,4.9018,4.9018,4.9018,4.9018,4.9018,4.9018,4.9018,4.9018,4.9018,4.9018,4.9018,4.9018,4.9018,4.9018,4.1417,4.2344,4.3539,4.6513,4.8237,4.9374,5.0016,5.1199,5.2157,5.2187,5.2725,5.3414,5.4072,5.4172,5.3385,5.1097,5.0657,4.9621,4.6695,4.5849,4.5497,4.5531,4.7551,4.8945,4.8945,5.2739,5.5209,5.5209,5.5837,5.6248,5.6248,5.6795,5.7124,5.7094,5.7124,5.7154,5.7124,5.7124,5.6825,5.6248,5.6248,5.5837,5.5179,5.5179,5.5179,5.528,5.6445,5.7668,5.8812,5.8767,5.8767,5.8677,5.748,5.628,5.5119,5.4491,5.5701,5.754,5.6794,5.756,5.8859,5.8118,5.7881,5.7881,5.7881,5.7881,5.7628,5.6509,5.5677,5.4755,5.2917,5.1933,5.1501,5.1762,5.1885,5.2205,5.328,5.3518,5.3518,5.3518,5.3484,5.3213,5.2435,5.1691,5.0913,5.0202,4.9458,4.9018,4.9018,4.8987,4.8954,4.8954,4.8954,4.9018,4.9018,4.9018,4.9018,4.9018,4.9018,4.9018,4.9018,4.9018,4.9018,4.9018,4.9018,4.9018,4.9018,4.9018,4.9018,4.9018,4.9018,4.9018,4.078,4.2055,4.374,4.6512,4.7928,4.9098,5.1101,5.1887,5.2336,5.2755,5.2665,5.2334,5.1727,5.0745,4.9627,4.8352,4.763,4.6908,4.5926,4.5924,4.5623,4.4493,4.7365,4.914,4.8445,5.1715,5.4042,5.4491,5.476,5.5059,5.5508,5.6137,5.6286,5.5837,5.6645,5.6885,5.6496,5.6466,5.6376,5.6166,5.5718,5.5418,5.5179,5.5179,5.5179,5.5229,5.5651,5.6943,5.8812,5.8812,5.8812,5.8767,5.836,5.6943,5.5119,5.4461,5.5345,5.6794,5.6135,5.6433,5.722,5.7729,5.7881,5.7881,5.7881,5.7881,5.7808,5.7443,5.635,5.5018,5.3847,5.2553,5.1572,5.1831,5.1921,5.2205,5.328,5.3518,5.3518,5.3518,5.3518,5.3416,5.3145,5.2469,5.1522,5.027,4.9458,4.9018,4.9018,4.9018,4.9018,4.9018,4.9018,4.9018,4.9018,4.9018,4.9018,4.9018,4.9018,4.9018,4.9018,4.9018,4.9018,4.9018,4.9018,4.9018,4.9018,4.9018,4.9018,4.9018,4.9018,4.9018,4.0657,4.2005,4.3682,4.6489,4.7852,4.903,5.0728,5.1494,5.1917,5.2097,5.1618,5.078,4.9543,4.8233,4.7169,4.6434,4.5983,4.5635,4.554,4.5623,4.5473,4.4908,4.7375,4.8964,4.856,5.1119,5.3204,5.4132,5.4431,5.476,5.5179,5.5598,5.5628,5.5209,5.5987,5.6226,5.5837,5.5807,5.5807,5.5807,5.5388,5.5179,5.5179,5.5179,5.5179,5.5229,5.5651,5.6943,5.8812,5.9258,5.917,5.8812,5.8812,5.7323,5.5089,5.4192,5.4724,5.5904,5.5654,5.6116,5.6925,5.7665,5.7881,5.7881,5.7881,5.7881,5.7881,5.7881,5.7107,5.5988,5.4952,5.3845,5.2917,5.2544,5.2454,5.2662,5.3348,5.3518,5.3518,5.3518,5.3518,5.3518,5.3518,5.2604,5.142,4.9932,4.9289,4.9018,4.9018,4.9018,4.9018,4.9018,4.9018,4.9018,4.9018,4.9018,4.9018,4.9018,4.9018,4.9018,4.9018,4.9018,4.9018,4.9018,4.9018,4.9018,4.9018,4.9018,4.9018,4.9018,4.9226,4.9376,4.0848,4.2142,4.332,4.6271,4.8038,4.8985,4.9055,5.0007,5.0713,5.0027,4.9387,4.8609,4.7387,4.6691,4.6025,4.5207,4.5524,4.5787,4.5506,4.502,4.5164,4.6567,4.7568,4.849,4.9207,5.1139,5.2845,5.4102,5.476,5.5119,5.5179,5.5179,5.5179,5.5179,5.5179,5.5179,5.5179,5.5179,5.5179,5.5179,5.5179,5.5179,5.5179,5.5179,5.5179,5.528,5.6396,5.7621,5.8902,6.0032,5.987,5.8902,5.8812,5.7339,5.507,5.3702,5.3932,5.5005,5.5407,5.6559,5.7808,5.7881,5.7881,5.7881,5.7881,5.7881,5.7881,5.7845,5.7808,5.7471,5.6018,5.5611,5.5274,5.3822,5.3518,5.3518,5.3518,5.3518,5.3518,5.3518,5.3518,5.3484,5.345,5.2198,5.071,4.9289,4.9018,4.9018,4.9018,4.9018,4.9018,4.9018,4.9018,4.9018,4.9018,4.9018,4.9018,4.9018,4.9018,4.9018,4.9018,4.9018,4.9018,4.9018,4.9018,4.9018,4.9018,4.9018,4.9018,4.9049,4.9693,5.0004,4.0515,4.1841,4.3313,4.5076,4.582,4.6261,4.6896,4.6996,4.6639,4.561,4.5245,4.45,4.2829,4.297,4.3286,4.2961,4.371,4.4472,4.4802,4.5447,4.6137,4.681,4.8327,4.9643,5.05,5.2496,5.3832,5.4192,5.3892,5.4132,5.5149,5.5179,5.5179,5.5179,5.5179,5.5179,5.5179,5.5179,5.5179,5.5179,5.5179,5.5179,5.5179,5.5179,5.5179,5.5229,5.5501,5.6879,5.8812,5.9125,5.961,6.0043,5.917,5.7585,5.5586,5.3833,5.4129,5.5375,5.4974,5.562,5.6778,5.7628,5.7881,5.7881,5.7881,5.7881,5.7701,5.6854,5.6624,5.6293,5.4796,5.4431,5.4283,5.3652,5.3518,5.3518,5.3518,5.3518,5.3518,5.3518,5.3518,5.3315,5.2706,5.1826,5.0913,4.9965,4.9357,4.9018,4.9018,4.9018,4.9018,4.9018,4.9018,4.9018,4.9018,4.9018,4.9018,4.9018,4.9018,4.9018,4.9018,4.9018,4.9018,4.9018,4.9018,4.9018,4.9018,4.9018,4.9018,4.9049,4.9693,5.0004,4.1078,4.2082,4.3184,4.3907,4.438,4.4652,4.4648,4.4694,4.4316,4.2628,4.2181,4.138,3.9043,3.9627,4.0401,4.0329,4.1681,4.3162,4.4443,4.5171,4.5984,4.7069,4.8735,5.0118,5.0966,5.2947,5.4221,5.4221,5.4102,5.4401,5.5149,5.5179,5.5179,5.5179,5.5179,5.5179,5.5179,5.5179,5.5179,5.5179,5.5179,5.5179,5.5179,5.5179,5.5179,5.5179,5.5179,5.6541,5.8812,5.8812,5.9522,6.0459,5.9258,5.7642,5.5735,5.3869,5.4191,5.5474,5.4845,5.5651,5.7039,5.7665,5.7881,5.7881,5.7881,5.7554,5.7039,5.636,5.5889,5.5252,5.4273,5.3992,5.3923,5.3583,5.3518,5.3518,5.3518,5.3518,5.3518,5.3518,5.3518,5.3247,5.2435,5.1691,5.0947,5.0202,4.9458,4.9018,4.9018,4.9018,4.9018,4.9018,4.9018,4.9018,4.9018,4.9018,4.9018,4.9018,4.9018,4.9018,4.9018,4.9018,4.9018,4.9018,4.9018,4.9018,4.9018,4.9286,4.9432,4.9462,5.0445,5.0929,4.2108,4.2665,4.2986,4.2986,4.3419,4.352,4.2468,4.2533,4.2158,3.9924,3.9403,3.8541,3.601,3.6717,3.7874,3.8155,3.9926,4.1978,4.4292,4.4694,4.5418,4.7403,4.906,5.0339,5.1173,5.3124,5.4341,5.4341,5.488,5.5179,5.5179,5.5179,5.5179,5.5179,5.5179,5.5179,5.5179,5.5179,5.5179,5.5179,5.5179,5.5179,5.5179,5.5179,5.5179,5.5179,5.5179,5.6541,5.8812,5.8812,5.961,6.067,5.925,5.7607,5.5891,5.3814,5.4068,5.5346,5.4781,5.608,5.7881,5.7881,5.7881,5.7881,5.7881,5.7222,5.636,5.6087,5.5296,5.4475,5.3895,5.3765,5.3737,5.3549,5.3518,5.3518,5.3518,5.3518,5.3518,5.3518,5.3518,5.3247,5.2435,5.1792,5.1116,5.0338,4.9627,4.9154,4.9154,4.9052,4.9018,4.9018,4.9018,4.9018,4.9018,4.9018,4.9018,4.9018,4.9018,4.9018,4.9018,4.9018,4.9018,4.9018,4.9018,4.9046,4.9138,4.9722,5.0061,5.0202,5.1494,5.2112,4.2685,4.2911,4.2986,4.2986,4.2372,4.1527,4.0464,3.8885,3.718,3.541,3.4952,3.4739,3.4244,3.5167,3.6709,3.8955,4.0058,4.158,4.4242,4.5045,4.6086,4.809,4.9684,5.1122,5.2541,5.4068,5.5029,5.5029,5.5119,5.5179,5.5179,5.5179,5.5179,5.5179,5.5179,5.5179,5.5179,5.5179,5.5179,5.5179,5.5179,5.5179,5.5179,5.5179,5.5179,5.5179,5.5179,5.6541,5.8812,5.8812,6.0118,6.1843,5.9015,5.7425,5.6284,5.3448,5.3404,5.4749,5.4621,5.608,5.7881,5.7881,5.7881,5.7881,5.7881,5.7772,5.7222,5.541,5.4755,5.431,5.2917,5.2572,5.2721,5.3342,5.3518,5.3518,5.3518,5.3518,5.3518,5.3518,5.3518,5.3247,5.2435,5.2198,5.186,5.1116,5.0371,4.9898,4.9898,4.939,4.9018,4.9018,4.9018,4.9018,4.9018,4.9018,4.9018,4.9018,4.9018,4.9018,4.9018,4.9018,4.9018,4.9018,4.9018,4.9256,4.9838,4.9947,5.0307,5.0929,5.1716,5.2112,4.2986,4.3187,4.3263,4.274,4.1731,4.04,3.8417,0.0,0.0,3.2641,3.2393,3.2375,3.1808,3.3122,3.4778,3.6379,3.7599,3.9546,4.2861,4.3589,4.4655,4.7034,4.8678,5.0184,5.1672,5.3174,5.4355,5.5128,5.5179,5.5179,5.5179,5.5179,5.5179,5.5179,5.5179,5.5179,5.5179,5.5179,5.5179,5.5179,5.5179,5.5179,5.5179,5.5179,5.5179,5.5179,5.5179,5.6541,5.8812,5.8812,5.9975,6.1576,5.8883,5.7172,5.5878,5.319,5.3219,5.4589,5.4589,5.608,5.7881,5.7881,5.7881,5.7881,5.7881,5.7517,5.6778,5.573,5.4598,5.3608,5.3308,5.2763,5.2488,5.3308,5.3518,5.3518,5.3518,5.3518,5.3518,5.3518,5.3518,5.3382,5.2976,5.257,5.2198,5.1826,5.0811,5.0101,5.0101,4.9458,4.9018,4.9018,4.9018,4.9018,4.9018,4.9018,4.9018,4.9018,4.9018,4.9018,4.9018,4.9018,4.9018,4.9018,4.9018,4.9338,5.0073,5.0404,5.0954,5.1688,5.2353,5.2921,4.3137,4.3388,4.3539,4.2489,4.1229,3.9647,3.6985,3.5328,3.3646,3.1135,3.0834,3.0834,3.0105,3.1386,3.2893,3.3897,3.5278,3.7563,4.143,4.2238,4.3344,4.5824,4.7515,4.8965,5.0101,5.1889,5.3466,5.4641,5.5027,5.5179,5.5179,5.5179,5.5179,5.5179,5.5179,5.5179,5.5179,5.5179,5.5179,5.5179,5.5179,5.5179,5.5179,5.5179,5.5179,5.5179,5.5179,5.6541,5.8812,5.8812,5.9778,6.1071,5.859,5.6819,5.5431,5.2916,5.2946,5.4295,5.4505,5.5889,5.7591,5.7808,5.7881,5.7881,5.7881,5.7297,5.6509,5.6282,5.497,5.365,5.3934,5.3311,5.2799,5.3377,5.3518,5.3518,5.3518,5.3518,5.3518,5.3518,5.3518,5.3518,5.3518,5.2976,5.257,5.257,5.142,5.0574,5.0574,4.9796,4.9255,4.9255,4.9086,4.9018,4.9018,4.9018,4.9018,4.9018,4.9018,4.9018,4.9018,4.9018,4.9086,4.9221,4.9255,4.9687,5.0586,5.1109,5.1821,5.2687,5.3074,5.3667,4.3137,4.3388,4.3539,4.2489,4.1006,3.917,3.691,0.0,3.2742,3.0984,3.0256,3.0055,3.0457,3.0708,3.1662,3.4223,3.5157,3.6937,4.0824,4.2283,4.3564,4.5347,4.7341,4.8532,4.8705,5.1291,5.3069,5.3174,5.4458,5.5179,5.5179,5.5179,5.5179,5.5179,5.5179,5.5179,5.5179,5.5179,5.5179,5.5179,5.5179,5.5179,5.5179,5.5179,5.5179,5.5179,5.5179,5.6541,5.8812,5.8812,5.9778,6.1003,5.8037,5.6402,5.5368,5.2368,5.2033,5.3209,5.4253,5.5369,5.6547,5.7554,5.7881,5.7881,5.7881,5.7845,5.7554,5.6476,5.6014,5.5608,5.4349,5.3917,5.3775,5.3549,5.3518,5.3518,5.3518,5.3518,5.3518,5.3518,5.3518,5.3518,5.3518,5.345,5.3382,5.3382,5.2638,5.2097,5.2097,5.0879,4.9999,4.9999,4.939,4.9018,4.9018,4.9018,4.9018,4.9018,4.9018,4.9018,4.9018,4.9018,4.9323,4.9965,4.9999,5.068,5.2101,5.2146,5.2888,5.4273,5.3592,5.3723,4.3037,4.3614,4.3865,4.2108,4.0676,3.8944,3.6056,3.4198,3.2516,3.0532,2.9955,2.9854,3.008,3.0131,3.0683,3.2441,3.2893,3.4299,3.7864,3.9019,4.0601,4.3614,4.4992,4.6398,4.8311,5.0407,5.2402,5.42,5.4845,5.5179,5.5179,5.5179,5.5179,5.5179,5.5179,5.5179,5.5179,5.5179,5.5179,5.5179,5.5179,5.5179,5.5179,5.5179,5.5179,5.5179,5.5179,5.6541,5.8812,5.8812,5.9516,6.0367,5.851,5.6672,5.4804,5.2905,5.2945,5.3999,5.4463,5.573,5.7297,5.7772,5.7881,5.7881,5.7881,5.7881,5.7808,5.7335,5.6739,5.5991,5.5232,5.4341,5.3676,5.3517,5.3518,5.3518,5.3518,5.3518,5.3518,5.3518,5.3518,5.3518,5.3518,5.3518,5.3518,5.3518,5.2807,5.23,5.23,5.142,5.0574,5.0135,4.9424,4.9018,4.9018,4.9018,4.9018,4.9018,4.9018,4.9187,4.9627,4.9661,4.9999,5.0744,5.0777,5.1276,5.2275,5.2291,5.2828,5.3824,5.347,5.3752,4.2685,4.3539,4.389,4.1802,4.0375,3.8617,3.5454,3.3746,3.224,3.0206,2.9804,2.9804,2.9804,2.9804,3.0105,3.1009,3.1436,3.2692,3.573,3.6885,3.8642,4.1856,4.2886,4.432,4.6835,4.9297,5.1943,5.4976,5.5179,5.5179,5.5179,5.5179,5.5179,5.5179,5.5179,5.5179,5.5179,5.5179,5.5179,5.5179,5.5179,5.5179,5.5179,5.5179,5.5179,5.5179,5.5179,5.6541,5.878,5.8588,5.9124,5.9967,5.8694,5.6719,5.4505,5.3699,5.3699,5.4211,5.4879,5.6087,5.7446,5.7808,5.7881,5.7881,5.7881,5.7881,5.7881,5.7881,5.7033,5.5954,5.5506,5.4465,5.3518,5.3518,5.3518,5.3518,5.3518,5.3518,5.3518,5.3518,5.3518,5.3518,5.3518,5.3518,5.3518,5.3518,5.301,5.2672,5.2672,5.1995,5.1251,5.0507,4.9965,4.9492,4.9052,4.9018,4.9018,4.9018,4.9187,4.956,5.0067,5.0304,5.0777,5.1522,5.1555,5.1928,5.2638,5.2643,5.3049,5.3748,5.346,5.3643,4.2062,4.2961,4.3413,4.1702,4.0099,3.814,3.5353,3.342,3.1763,3.0131,2.9804,2.9804,2.9804,2.9804,2.998,3.0532,3.1512,3.2993,3.5182,3.696,3.8642,4.035,4.1505,4.2665,4.3714,4.8012,5.1943,5.4976,5.5179,5.5179,5.5179,5.5179,5.5179,5.5179,5.5179,5.5179,5.5179,5.5179,5.5179,5.5179,5.5179,5.5179,5.5179,5.5179,5.5179,5.5179,5.5179,5.6541,5.8748,5.8,5.8665,5.9899,5.8123,5.6255,5.4589,5.4589,5.3871,5.3221,5.5417,5.6204,5.6398,5.7554,5.7881,5.7881,5.7881,5.7881,5.7881,5.7881,5.6867,5.5512,5.4803,5.4059,5.3518,5.3518,5.3518,5.3518,5.3518,5.3518,5.3518,5.3518,5.3518,5.3518,5.3518,5.3518,5.3518,5.3518,5.3484,5.3484,5.3484,5.2807,5.2029,5.1252,5.1151,5.0608,4.912,4.9018,4.9018,4.9018,4.9661,5.0067,5.0101,5.0811,5.1555,5.2266,5.23,5.2672,5.3484,5.3484,5.3881,5.4572,5.3848,5.3517,3.9747,4.045,4.0601,3.8919,3.7814,3.6581,3.4148,3.2893,3.1763,3.0131,2.9804,2.9804,2.9804,2.9804,3.0331,3.2039,3.2591,3.3445,3.5232,3.696,3.8642,4.0325,4.3162,4.5943,4.8284,4.9829,5.1943,5.4976,5.5179,5.5179,5.5179,5.5179,5.5179,5.5179,5.5179,5.5179,5.5179,5.5179,5.5179,5.5179,5.5179,5.5179,5.5179,5.5179,5.494,5.4521,5.4521,5.5589,5.7341,5.7117,5.7945,5.9299,5.8728,5.7327,5.5658,5.5658,5.5458,5.5256,5.5936,5.6701,5.7409,5.7772,5.7881,5.7881,5.7881,5.7881,5.778,5.7273,5.6461,5.5547,5.4769,5.4059,5.3518,5.3518,5.3518,5.3518,5.3518,5.3518,5.3518,5.3518,5.3518,5.3518,5.3518,5.3518,5.3518,5.3518,5.3518,5.3518,5.3518,5.3281,5.2638,5.132,5.1657,5.1352,4.9864,5.0202,5.0507,5.0507,5.0744,5.1082,5.1589,5.1826,5.2334,5.3112,5.3112,5.3247,5.3518,5.3518,5.3618,5.3815,5.3618,5.3518,3.7789,3.8642,3.8743,3.7487,3.6458,3.5278,3.3539,3.2315,3.126,3.0055,2.9804,2.9804,2.9804,2.9804,3.0231,3.1612,3.2164,3.3018,3.47,3.6358,3.8463,4.1337,4.4335,4.7464,5.0591,5.1337,5.2562,5.5027,5.5179,5.5179,5.5179,5.5179,5.5179,5.5179,5.5179,5.5179,5.5179,5.5179,5.5179,5.5179,5.494,5.482,5.482,5.4551,5.4221,5.3832,5.3832,5.4913,0.0,5.6413,5.7356,5.8998,5.8693,5.7624,5.6243,5.6663,5.6586,5.6282,5.6701,5.7297,5.7881,5.7881,5.7881,5.7848,5.7577,5.7476,5.734,5.6596,5.5852,5.5108,5.4363,5.3856,5.3518,5.3518,5.3518,5.3518,5.3518,5.3518,5.3518,5.3518,5.3518,5.3518,5.3518,5.3518,5.3518,5.3518,5.3518,5.3518,5.3518,5.3518,5.301,5.1758,5.23,5.2266,5.1014,5.1116,5.1185,5.1185,5.1743,5.2275,5.2718,5.3275,5.3688,5.3913,5.3913,5.3783,5.3518,5.3518,5.3518,5.3518,5.3518,5.3518,0.0,3.7186,3.7462,3.691,3.5629,3.4198,3.3144,3.1712,0.0,2.9905,2.9804,2.9804,2.9854,2.9829,2.9854,3.0055,3.0909,3.2139,3.3847,3.5718,3.8646,4.3198,4.5289,4.7648,5.1011,5.2347,5.3623,5.5078,5.5179,5.5179,5.5119,5.5119,5.5089,5.5059,5.5059,5.5089,5.5179,5.5149,5.5119,5.5119,5.4461,5.4132,5.4132,5.3473,5.3144,5.3114,5.3114,5.439,5.6379,5.5794,5.6784,5.8605,5.8115,5.7189,5.6321,5.748,5.7222,5.6437,5.7554,5.7881,5.7881,5.7881,5.7848,5.7679,5.7002,5.6799,5.663,5.5852,5.5141,5.4431,5.3687,5.3518,5.3518,5.3518,5.3518,5.3518,5.3518,5.3518,5.3518,5.3518,5.3518,5.3518,5.3518,5.3518,5.3518,5.3518,5.3518,5.3518,5.3518,5.3518,5.3179,5.2401,5.301,5.3179,5.2367,5.1725,5.1386,5.1386,5.2729,5.3506,5.3506,5.4823,5.5203,5.4544,5.4513,5.4168,5.3518,5.3518,5.3518,5.3518,5.3518,5.3518,3.2441,0.0,3.3445,3.2893,3.2466,3.2014,0.0,3.0884,3.0457,2.9905,2.9804,2.993,3.0357,3.008,3.0482,3.2591,3.3144,3.3897,3.56,3.9323,4.2757,4.5074,4.7865,5.0157,5.1707,5.2555,5.3623,5.5078,5.5179,5.497,5.4461,5.4431,5.4192,5.3683,5.3653,5.4162,5.5179,5.47,5.4431,5.4431,5.3743,5.3414,5.3414,5.3264,5.2905,5.2426,5.2426,5.2961,5.3853,5.4571,5.5178,5.5758,5.7289,5.7189,5.6321,5.748,5.7701,5.7554,5.7808,5.7881,5.7881,5.7881,5.7509,5.7036,5.6867,5.6799,5.6528,5.5209,5.4735,5.4431,5.3687,5.3518,5.3518,5.3518,5.3518,5.3518,5.3518,5.3518,5.3518,5.3518,5.3518,5.3518,5.3518,5.3518,5.3518,5.3518,5.3518,5.3518,5.3518,5.3518,5.3179,5.2401,5.301,5.3179,5.2367,5.2706,5.2976,5.2976,5.3311,5.3478,5.3478,5.3811,5.3946,5.375,5.375,5.3651,5.3518,5.3518,5.3518,5.3518,5.3518,5.3518,3.0583,3.1411,3.2139,3.1838,3.1587,3.1311,3.1035,3.0583,3.0156,2.9854,3.0139,3.0534,3.0804,3.1225,3.1927,3.3209,3.3913,3.5047,3.7232,4.1178,4.473,4.7083,4.9661,5.1893,5.3334,5.3495,5.3861,5.468,5.4461,5.4102,5.3743,5.3743,5.3563,5.3204,5.3174,5.3533,5.4251,5.3922,5.3743,5.3713,5.3054,5.2725,5.2725,5.2426,5.2097,5.1738,5.1738,5.2199,5.2989,5.4126,5.4589,5.4838,5.7034,5.7189,5.6321,5.748,5.7881,5.7881,5.7881,5.7881,5.7814,5.7509,5.7137,5.6664,5.5987,5.5784,5.5615,5.4803,5.4363,5.3991,5.3619,5.3518,5.3518,5.3518,5.3518,5.3518,5.3518,5.3518,5.3518,5.3518,5.3518,5.3518,5.3518,5.3518,5.3518,5.3518,5.3518,5.3518,5.3518,5.3518,5.3348,5.2909,5.3247,5.3315,5.2875,5.3247,5.3518,5.3518,5.3816,5.3977,5.3977,5.4328,5.4359,5.4009,5.3651,5.3518,5.3518,5.3518,5.3518,5.3518,5.3518,5.3518,3.0005,3.111,3.2164,3.1913,3.1562,3.126,3.116,0.0,0.0,2.9804,3.057,3.1283,3.1442,3.2725,3.3696,3.3633,3.4858,3.6718,3.9363,4.2704,4.589,4.8792,5.0943,5.2873,5.457,5.4311,5.4042,5.4042,5.3503,5.3144,5.3025,5.3025,5.2995,5.2875,5.2875,5.2875,5.2875,5.2995,5.3025,5.3025,5.2366,5.2067,5.2037,5.1468,5.1229,5.1229,5.1229,5.1773,5.2723,5.3871,5.4337,5.4547,5.6773,5.7039,5.6321,5.748,5.7881,5.7881,5.7881,5.7881,5.778,5.7171,5.6833,5.6393,5.5141,5.46,5.4431,5.4431,5.3991,5.3518,5.3518,5.3518,5.3518,5.3518,5.3518,5.3518,5.3518,5.3518,5.3518,5.3518,5.3518,5.3518,5.3518,5.3518,5.3518,5.3518,5.3518,5.3518,5.3518,5.3518,5.3518,5.3518,5.3518,5.3518,5.3518,5.3518,5.3518,5.3518,5.4074,5.4419,5.4419,5.5059,5.5089,5.4419,5.3816,5.3518,5.3518,5.3518,5.3518,5.3518,5.3518,5.3518,3.0909,3.1662,3.1888,3.0507,3.0457,3.0608,3.0156,2.9905,2.9804,0.0,3.057,3.1521,3.2525,3.3685,3.5072,3.707,3.9345,4.1534,4.3375,4.6062,4.8158,4.9087,5.1443,5.2949,5.2695,5.3084,5.3324,5.3324,5.3234,5.2935,5.2366,5.2336,5.2097,5.1528,5.1528,5.1528,5.1528,5.2067,5.2336,5.2336,5.1678,5.1379,5.1379,5.1259,5.1229,5.1229,5.1229,5.1293,5.1572,5.2709,5.3165,5.3352,5.5578,5.636,5.6321,5.748,5.7881,5.7881,5.7881,5.7881,5.7881,5.7746,5.69,5.5852,5.5615,5.4668,5.3687,5.3687,5.3585,5.3518,5.3518,5.3518,5.3518,5.3518,5.3518,5.3518,5.3518,5.3518,5.3518,5.3518,5.3518,5.3518,5.3518,5.3518,5.3518,5.3518,5.3518,5.3518,5.3518,5.3518,5.3518,5.3518,5.3518,5.3518,5.3518,5.3518,5.3518,5.3518,5.3618,5.3685,5.3685,5.3783,5.3783,5.3651,5.3551,5.3518,5.3518,5.3518,5.3518,5.3518,5.3518,5.3518,3.0306,3.0708,3.1019,3.1526,3.2472,3.3157,3.2587,3.2738,3.2901,3.2901,3.339,3.4085,3.5002,3.6561,3.8457,4.073,4.2379,4.3796,4.4865,4.6983,4.8731,4.9614,5.1444,5.2665,5.2725,5.2665,5.2665,5.2665,5.2306,5.1977,5.1678,5.1678,5.1528,5.1229,5.1229,5.1229,5.1229,5.1528,5.1678,5.1678,5.1379,5.1229,5.1229,5.1229,5.1229,5.1229,5.1229,5.1229,5.1293,5.244,5.29,5.3121,5.5337,5.6204,5.6321,5.748,5.7881,5.7881,5.7881,5.7881,5.7814,5.7442,5.6596,5.5649,5.5243,5.4363,5.3518,5.3518,5.3518,5.3518,5.3518,5.3518,5.3518,5.3518,5.3518,5.3518,5.3518,5.3518,5.3518,5.3518,5.3518,5.3518,5.3518,5.3518,5.3518,5.3518,5.3518,5.3518,5.3518,5.3518,5.3518,5.3518,5.3518,5.3518,5.3518,5.3518,5.3518,5.3518,5.3518,5.3518,5.3518,5.3518,5.3518,5.3518,5.3518,5.3518,5.3518,5.3518,5.3518,5.3518,5.3518,5.3518,2.993,3.008,3.0466,3.2463,3.3871,3.4868,3.5344,3.5526,3.5708,3.5986,3.6372,3.6859,3.735,3.9711,4.2129,4.3945,4.5173,4.6062,4.6543,4.799,4.933,5.0319,5.1343,5.2157,5.2665,5.2276,5.1977,5.1977,5.1498,5.1229,5.1229,5.1229,5.1229,5.1229,5.1229,5.1229,5.1229,5.1229,5.1229,5.1229,5.1229,5.1229,5.1229,5.1229,5.1229,5.1229,5.1229,5.1229,5.1246,5.2154,5.2812,5.3483,5.5174,5.6126,5.6701,5.7591,5.7881,5.7881,5.7881,5.7881,5.7814,5.7239,5.6562,5.5818,5.5074,5.4329,5.3721,5.3551,5.3518,5.3518,5.3518,5.3518,5.3518,5.3518,5.3518,5.3518,5.3518,5.3518,5.3518,5.3518,5.3518,5.3518,5.3518,5.3518,5.3518,5.3518,5.3518,5.3518,5.3518,5.3518,5.3518,5.3518,5.3518,5.3518,5.3518,5.3518,5.3518,5.3518,5.3518,5.3518,5.3518,5.3518,5.3518,5.3518,5.3518,5.3518,5.3518,5.3518,5.3518,5.3518,5.3518,5.3518,3.0859,3.0909,3.0809,3.1971,3.226,3.3141,3.6543,3.6431,3.593,3.7123,3.8136,3.8784,3.8842,4.2168,4.5173,4.5985,4.8164,4.9816,4.9875,5.0534,5.1028,5.1118,5.1195,5.1319,5.1349,5.1319,5.1289,5.1289,5.1259,5.1229,5.1229,5.1229,5.1229,5.1229,5.1229,5.1229,5.1229,5.1229,5.1229,5.1229,5.1229,5.1229,5.1229,5.1229,5.1229,5.1229,5.1229,5.1229,5.1229,5.1293,5.2575,5.4505,5.4672,5.5968,5.7808,5.7881,5.7881,5.7881,5.7881,5.7881,5.7881,5.7814,5.7306,5.6596,5.5852,5.5108,5.4363,5.3687,5.3518,5.3518,5.3518,5.3518,5.3518,5.3518,5.3518,5.3518,5.3518,5.3518,5.3518,5.3518,5.3518,5.3518,5.3518,5.3518,5.3518,5.3518,5.3518,5.3518,5.3518,5.3518,5.3518,5.3518,5.3518,5.3518,5.3518,5.3518,5.3518,5.3518,5.3518,5.3518,5.3518,5.3518,5.3518,5.3518,5.3518,5.3518,5.3518,5.3518,5.3518,5.3518,5.3518,5.3518,2.9603,3.0509,3.1446,3.2553,3.4302,3.6161,3.7721,3.9322,4.0675,4.1562,4.2048,4.2317,4.2317,4.4251,4.6292,4.7369,4.9075,5.0345,5.0734,5.105,5.1229,5.1229,5.1229,5.1229,5.1229,5.1229,5.1229,5.1229,5.1229,5.1229,5.1229,5.1229,5.1229,5.1229,5.1229,5.1229,5.1229,5.1229,5.1572,5.2215,5.1542,5.1229,5.1229,5.1229,5.1229,5.1229,5.1229,5.1229,5.1246,5.1972,5.2767,5.3699,5.5052,5.6547,5.7881,5.7881,5.7881,5.7881,5.7881,5.7881,5.7881,5.7881,5.7408,5.6765,5.6461,5.5547,5.4532,5.4262,5.3856,5.3518,5.3518,5.3518,5.3518,5.3518,5.3518,5.3518,5.3518,5.3518,5.3518,5.3518,5.3518,5.3518,5.3518,5.3518,5.3518,5.3518,5.3518,5.3518,5.3518,5.3518,5.3518,5.3518,5.3518,5.3518,5.3518,5.3518,5.3518,5.3518,5.3518,5.3518,5.3518,5.3518,5.3518,5.3518,5.3518,5.3518,5.3518,5.3518,5.3518,5.3518,5.3518,5.3518,2.9464,3.0533,3.1819,3.3515,3.5853,3.7978,3.9215,4.1645,4.3988,4.5035,4.4915,4.4676,4.4915,4.5873,4.701,4.8117,4.9553,5.0674,5.1169,5.1229,5.1229,5.1229,5.1229,5.1229,5.1229,5.1229,5.1229,5.1229,5.1229,5.1229,5.1229,5.1229,5.1229,5.1229,5.1229,5.1229,5.1229,5.1572,5.2154,5.29,5.2109,5.1727,5.1727,5.1339,5.1229,5.1229,5.1229,5.1229,5.1246,5.2063,5.2767,5.3613,5.5458,5.6925,5.7881,5.7881,5.7881,5.7881,5.7881,5.7881,5.7881,5.7881,5.7543,5.7103,5.6867,5.6089,5.5175,5.4735,5.4228,5.3788,5.3551,5.3518,5.3518,5.3518,5.3518,5.3518,5.3518,5.3518,5.3518,5.3518,5.3518,5.3518,5.3518,5.3518,5.3518,5.3518,5.3518,5.3518,5.3518,5.3518,5.3518,5.3518,5.3518,5.3518,5.3518,5.3518,5.3518,5.3518,5.3518,5.3518,5.3518,5.3518,5.3518,5.3518,5.3518,5.3518,5.3518,5.3518,5.3518,5.3518,5.3518,5.3518,3.1018,3.1241,3.1926,3.4848,3.6335,3.7907,4.121,4.316,4.4885,4.692,4.6262,4.5514,4.6202,4.686,4.7519,4.8177,4.9942,5.1199,5.1229,5.1229,5.1229,5.1229,5.1229,5.1229,5.1229,5.1229,5.1229,5.1229,5.1229,5.1229,5.1229,5.1229,5.1229,5.1229,5.1229,5.1229,5.1229,5.2305,5.29,5.29,5.29,5.29,5.2856,5.1727,5.1229,5.1229,5.1229,5.1229,5.1229,5.1229,5.2575,5.4713,5.581,5.6925,5.7881,5.7881,5.7881,5.7881,5.7881,5.7881,5.7881,5.7881,5.7881,5.7746,5.7002,5.6799,5.6461,5.5006,5.4566,5.4397,5.3687,5.3518,5.3518,5.3518,5.3518,5.3518,5.3518,5.3518,5.3518,5.3518,5.3518,5.3518,5.3518,5.3518,5.3518,5.3518,5.3518,5.3518,5.3518,5.3518,5.3518,5.3518,5.3518,5.3518,5.3518,5.3518,5.3518,5.3518,5.3518,5.3518,5.3518,5.3518,5.3518,5.3518,5.3518,5.3518,5.3518,5.3518,5.3518,5.3518,5.3518,5.3518,3.0049,3.1971,3.4269,3.5338,3.8563,4.1873,4.3513,4.4457,4.5693,4.8177,4.7997,4.7309,4.707,4.7549,4.8057,4.8267,4.9553,5.0644,5.1139,5.1229,5.1229,5.1229,5.1229,5.1229,5.1229,5.1229,5.1229,5.1229,5.1229,5.1229,5.1229,5.1229,5.1229,5.1229,5.1229,5.1229,5.1229,5.1572,5.2109,5.29,5.2109,5.2109,5.2856,5.1727,5.1229,5.1229,5.1229,5.1229,5.1246,5.2063,5.3742,5.577,5.6087,5.6925,5.7881,5.7881,5.7881,5.7881,5.7881,5.7881,5.7814,5.7273,5.7137,5.7002,5.6258,5.5683,5.5141,5.4702,5.4228,5.3788,5.3551,5.3518,5.3518,5.3518,5.3518,5.3518,5.3518,5.3518,5.3518,5.3518,5.3518,5.3518,5.3518,5.3518,5.3518,5.3518,5.3518,5.3518,5.3518,5.3518,5.3518,5.3518,5.3518,5.3518,5.3518,5.3518,5.3518,5.3518,5.3518,5.3518,5.3518,5.3518,5.3518,5.3518,5.3518,5.3518,5.3518,5.3518,5.3518,5.3518,5.3518,5.3518,3.1433,3.3856,3.6562,3.7978,4.0646,4.3439,4.5328,4.6518,4.7788,4.9673,4.9314,4.8626,4.8506,4.8596,4.8775,4.9015,4.9942,5.0734,5.1169,5.1229,5.1229,5.1229,5.1229,5.1229,5.1229,5.1229,5.1229,5.1229,5.1229,5.1229,5.1229,5.1229,5.1229,5.1229,5.1229,5.1229,5.1229,5.1635,5.2245,5.29,5.2169,5.2245,5.2856,5.1727,5.1229,5.1229,5.1229,5.1229,5.1246,5.1926,5.3265,5.4929,5.5377,5.6243,5.7297,5.7701,5.7881,5.7881,5.7881,5.7881,5.7814,5.7374,5.7036,5.6731,5.6292,5.5615,5.4972,5.4668,5.4262,5.3856,5.3585,5.3518,5.3518,5.3518,5.3518,5.3518,5.3518,5.3518,5.3518,5.3518,5.3518,5.3518,5.3518,5.3518,5.3518,5.3518,5.3518,5.3518,5.3518,5.3518,5.3518,5.3518,5.3518,5.3518,5.3518,5.3518,5.3518,5.3518,5.3518,5.3518,5.3518,5.3518,5.3518,5.3518,5.3518,5.3518,5.3518,5.3518,5.3518,5.3518,5.3518,5.3518,3.4065,3.6155,3.8676,4.173,4.271,4.3728,4.6711,4.8835,5.0285,5.0943,5.0242,4.9613,5.0106,4.9793,4.9613,5.0106,5.0734,5.1229,5.1229,5.1229,5.1229,5.1229,5.1229,5.1229,5.1229,5.1229,5.1229,5.1229,5.1229,5.1229,5.1229,5.1229,5.1229,5.1229,5.1229,5.1229,5.1229,5.2245,5.2754,5.2754,5.2754,5.2692,5.2617,5.1651,5.1229,5.1229,5.1229,5.1229,5.1229,5.1293,5.1972,5.3033,5.4253,5.5337,5.6321,5.748,5.7881,5.7881,5.7881,5.7881,5.7881,5.7814,5.7306,5.6697,5.663,5.6089,5.5378,5.4702,5.4499,5.4329,5.3687,5.3518,5.3518,5.3518,5.3518,5.3518,5.3518,5.3518,5.3518,5.3518,5.3518,5.3518,5.3518,5.3518,5.3518,5.3518,5.3518,5.3518,5.3518,5.3518,5.3518,5.3518,5.3518,5.3518,5.3518,5.3518,5.3518,5.3518,5.3518,5.3518,5.3518,5.3518,5.3518,5.3518,5.3518,5.3518,5.3518,5.3518,5.3518,5.3518,5.3518,5.3551,3.3131,3.6086,3.9684,4.2414,4.5095,4.7189,4.7908,4.8805,4.9673,5.0255,5.0631,5.069,5.0255,5.0495,5.0661,5.0255,5.0734,5.1229,5.1229,5.1229,5.1229,5.1229,5.1229,5.1229,5.1229,5.1229,5.1229,5.1229,5.1229,5.1229,5.1229,5.1229,5.1229,5.1229,5.1229,5.1229,5.1229,5.1433,5.1542,5.1542,5.1542,5.1271,5.0788,5.1053,5.1229,5.1229,5.1229,5.1229,5.1246,5.2154,5.2709,5.3121,5.5093,5.6008,5.6321,5.748,5.7881,5.7881,5.7881,5.7881,5.778,5.7205,5.6562,5.5852,5.5243,5.4566,5.3957,5.3788,5.3754,5.3687,5.3551,5.3518,5.3518,5.3518,5.3518,5.3518,5.3518,5.3518,5.3518,5.3518,5.3518,5.3518,5.3518,5.3518,5.3518,5.3518,5.3518,5.3518,5.3518,5.3518,5.3518,5.3518,5.3518,5.3518,5.3518,5.3518,5.3518,5.3518,5.3518,5.3518,5.3518,5.3518,5.3518,5.3518,5.3518,5.3518,5.3518,5.3518,5.3518,5.3518,5.3518,5.3822,3.3697,3.6888,4.0495,4.3896,4.6531,4.8297,4.8297,4.885,4.9419,4.9703,5.0301,5.0704,5.0674,5.0943,5.1109,5.0734,5.0943,5.1229,5.1229,5.1229,5.1229,5.1229,5.1229,5.1229,5.1229,5.1229,5.1229,5.1229,5.1229,5.1229,5.1229,5.1229,5.1229,5.1229,5.1229,5.1229,5.1229,5.1229,5.105,5.0704,5.1079,5.0823,5.0196,5.0272,5.0272,5.0272,5.0272,5.0272,5.0363,5.1444,5.1865,5.2125,5.4331,5.5144,5.5297,5.6438,5.6867,5.6867,5.6867,5.6867,5.6799,5.6393,5.5784,5.5108,5.4702,5.4093,5.3518,5.3518,5.3518,5.3518,5.3518,5.3518,5.3518,5.3518,5.3518,5.3518,5.3518,5.3518,5.3518,5.3518,5.3518,5.3518,5.3518,5.3518,5.3518,5.3518,5.3518,5.3518,5.3518,5.3518,5.3518,5.3518,5.3518,5.3518,5.3518,5.3518,5.3518,5.3518,5.3518,5.3518,5.3518,5.3518,5.3518,5.3518,5.3518,5.3518,5.3518,5.3518,5.3518,5.3518,5.3518,5.389,3.3981,3.7412,4.1161,4.5305,4.7219,4.8117,4.8117,4.8536,4.9,4.912,4.9613,5.0196,5.078,5.096,5.105,5.105,5.1139,5.1229,5.1229,5.1229,5.1229,5.1229,5.1229,5.1229,5.1229,5.1229,5.1229,5.1229,5.1229,5.1229,5.1229,5.1109,5.1109,5.1229,5.1109,5.105,5.105,5.105,5.0674,5.0016,5.0511,5.0421,4.9837,4.9224,4.909,4.9299,4.9299,4.9389,4.9627,5.0457,5.0898,5.1246,5.3227,5.3992,5.4138,5.5259,5.5681,5.5681,5.5681,5.5681,5.5681,5.5681,5.5209,5.46,5.46,5.4093,5.3518,5.3518,5.3518,5.3518,5.3518,5.3518,5.3518,5.3518,5.3518,5.3518,5.3518,5.3518,5.3518,5.3518,5.3518,5.3518,5.3518,5.3518,5.3518,5.3518,5.3518,5.3518,5.3518,5.3518,5.3518,5.3518,5.3518,5.3518,5.3518,5.3518,5.3551,5.3687,5.3687,5.3687,5.3687,5.3687,5.3619,5.3518,5.3518,5.3518,5.3518,5.3518,5.3518,5.3518,5.3619,5.4093,3.12,3.6051,4.1796,4.5394,4.689,4.7429,4.7429,4.7489,4.7728,4.8297,4.8925,4.9479,4.9569,4.9972,5.0315,5.0315,5.0794,5.1229,5.1229,5.1229,5.1229,5.1229,5.1229,5.1229,5.1229,5.1229,5.1229,5.1229,5.1229,5.1229,5.1229,5.0644,5.0584,5.1199,5.0614,5.0315,5.0315,5.0315,5.0032,4.9404,4.8895,4.8626,4.8536,4.7878,4.8177,4.9299,4.9299,4.9775,5.0629,5.0727,5.133,5.2244,5.3498,5.3992,5.4138,5.5259,5.5681,5.5681,5.5681,5.5681,5.5681,5.5681,5.5209,5.46,5.46,5.4093,5.3518,5.3518,5.3518,5.3518,5.3518,5.3518,5.3518,5.3518,5.3518,5.3518,5.3518,5.3518,5.3518,5.3518,5.3518,5.3518,5.3518,5.3518,5.3518,5.3518,5.3518,5.3518,5.3518,5.3518,5.3518,5.3518,5.3518,5.3518,5.3518,5.3518,5.3788,5.4397,5.4431,5.4431,5.4431,5.4431,5.416,5.3518,5.3518,5.3518,5.3518,5.3518,5.3518,5.3518,5.416,5.4837,3.2334,3.6979,4.1709,4.46,4.603,4.686,4.7219,4.7309,4.7399,4.7668,4.7967,4.8386,4.9179,4.9494,4.9703,4.9703,5.0242,5.0614,5.0614,5.0943,5.1229,5.1229,5.09,5.0614,5.0614,5.0331,5.0272,5.0584,5.0331,5.0272,5.0614,5.0062,4.9823,5.0122,4.9853,4.9703,4.9703,4.9703,4.9553,4.9299,4.8237,4.7938,4.8267,4.7608,4.7608,4.8177,4.8177,4.8741,4.9708,5.0326,5.1175,5.2178,5.331,5.3701,5.3772,5.4259,5.4465,5.4465,5.4465,5.4465,5.4465,5.4465,5.4262,5.3991,5.3991,5.3754,5.3518,5.3518,5.3518,5.3518,5.3518,5.3518,5.3619,5.4025,5.4126,5.4228,5.4634,5.4093,5.3619,5.4025,5.4126,5.4262,5.4668,5.4397,5.4126,5.4126,5.3754,5.3518,5.3518,5.3518,5.3518,5.3518,5.3518,5.3518,5.3518,5.389,5.4262,5.4566,5.5006,5.5209,5.5209,5.5209,5.5074,5.4735,5.3923,5.3518,5.3518,5.3518,5.3518,5.3518,5.4262,5.5006,3.3001,3.6573,3.9755,4.3113,4.4789,4.5921,4.7057,4.7309,4.7309,4.7309,4.7309,4.7608,4.8596,4.894,4.906,4.906,4.9553,5.0002,5.0002,5.0421,5.072,5.072,5.0301,5.0002,5.0002,4.9553,4.9464,4.9942,4.9523,4.9494,4.9972,4.9374,4.9149,4.9299,4.9149,4.906,4.906,4.891,4.882,4.879,4.7788,4.7549,4.8027,4.7519,4.7409,4.7679,4.7679,4.8418,4.9655,5.0474,5.1377,5.2383,5.3179,5.3518,5.3518,5.3518,5.3518,5.3518,5.3518,5.3518,5.3518,5.3518,5.3518,5.3518,5.3518,5.3518,5.3518,5.3518,5.3518,5.3518,5.3518,5.3518,5.3687,5.4397,5.46,5.4803,5.5547,5.4837,5.4228,5.4769,5.4871,5.504,5.5615,5.5243,5.4803,5.4634,5.4296,5.3991,5.3788,5.3788,5.3788,5.3788,5.3788,5.3788,5.3788,5.4465,5.4938,5.5141,5.5683,5.5987,5.5987,5.5987,5.5919,5.5681,5.4634,5.4059,5.4059,5.3687,5.3585,5.3788,5.4532,5.5175,3.1378,3.3043,3.5026,4.0617,4.295,4.4457,4.6764,4.7309,4.7309,4.7309,4.7309,4.7339,4.7399,4.7908,4.8327,4.8327,4.894,4.9359,4.9359,4.9389,4.9419,4.9419,4.9389,4.9359,4.9359,4.9329,4.9329,4.9359,4.9329,4.9329,4.9359,4.8686,4.8626,4.9299,4.8656,4.8327,4.8327,4.7728,4.7399,4.7399,4.7339,4.7309,4.7369,4.7309,4.7849,4.8718,4.8718,4.986,5.1743,5.1813,5.2451,5.3416,5.3484,5.3518,5.3518,5.3518,5.3518,5.3518,5.3518,5.3518,5.3518,5.3518,5.3518,5.3518,5.3518,5.3518,5.3518,5.3518,5.3518,5.3518,5.3518,5.3518,5.3687,5.4397,5.46,5.4803,5.5547,5.5649,5.5615,5.5649,5.5649,5.5683,5.5681,5.5683,5.5412,5.4702,5.5175,5.5344,5.4634,5.4532,5.4532,5.4532,5.4532,5.4532,5.4532,5.5243,5.5953,5.663,5.6731,5.6731,5.6731,5.6731,5.6427,5.5681,5.5614,5.5615,5.5546,5.4194,5.3856,5.4566,5.531,5.5647,2.9551,3.1377,3.3534,3.7113,3.9647,4.1966,4.4414,4.5552,4.6299,4.7106,4.7309,4.7309,4.7309,4.7489,4.7668,4.7668,4.8207,4.8626,4.8626,4.906,4.9299,4.9299,4.894,4.8626,4.8626,4.8267,4.8177,4.864,4.8237,4.8177,4.8626,4.8027,4.7758,4.7997,4.7788,4.7668,4.7668,4.7429,4.7309,4.7309,4.7309,4.7309,4.7309,4.7309,4.824,4.9813,4.9813,5.0627,5.1921,5.1921,5.2522,5.3518,5.3518,5.3518,5.3518,5.3518,5.3518,5.3518,5.3518,5.3518,5.3518,5.3518,5.3518,5.3518,5.3518,5.3518,5.3518,5.3518,5.3518,5.3518,5.3518,5.3856,5.4499,5.5716,5.6359,5.6799,5.7036,5.6393,5.5817,5.6325,5.6427,5.6562,5.7036,5.6731,5.6325,5.6055,5.5852,5.5615,5.5344,5.531,5.531,5.531,5.531,5.531,5.531,5.5987,5.6528,5.6799,5.7239,5.7509,5.7509,5.7509,5.7374,5.7103,5.6664,5.619,5.5681,5.4702,5.46,5.531,5.5581,5.5953,2.8072,2.9599,3.1689,3.4948,3.6926,3.8974,4.2546,4.3989,4.4937,4.6137,4.687,4.7309,4.7309,4.7309,4.7309,4.7309,4.7668,4.7967,4.7967,4.8327,4.864,4.864,4.8237,4.7967,4.7967,4.7549,4.7489,4.7908,4.7549,4.7489,4.7938,4.7549,4.7309,4.7309,4.7309,4.7309,4.7309,4.7309,4.7309,4.7309,4.7309,4.7309,4.7309,4.7309,4.8418,5.0397,5.0397,5.1155,5.2418,5.2418,5.287,5.3518,5.3518,5.3518,5.3518,5.3518,5.3518,5.3518,5.3518,5.3518,5.3518,5.3518,5.3518,5.3518,5.3518,5.3518,5.3518,5.3518,5.3518,5.3551,5.3788,5.46,5.5581,5.6562,5.734,5.7881,5.7881,5.7137,5.6596,5.707,5.7171,5.7306,5.7814,5.7476,5.7103,5.6833,5.6596,5.6359,5.6122,5.6089,5.6089,5.6089,5.6089,5.6089,5.6089,5.6765,5.7171,5.7171,5.7611,5.7881,5.7881,5.7881,5.7881,5.7881,5.7408,5.6934,5.6461,5.5446,5.5344,5.6089,5.6089,5.6461,0.0,0.0,0.0,3.4319,3.4764,3.5465,4.1186,4.2587,4.3081,4.4282,4.5932,4.7176,4.7279,4.7309,4.7309,4.7309,4.7309,4.7309,4.7352,4.7309,4.7309,4.7352,4.7309,4.7309,4.7309,4.7309,4.7309,4.7309,4.7309,4.7309,4.7309,4.7309,4.7309,4.7309,4.7309,4.7309,4.7309,4.7309,4.7309,4.7309,4.7309,4.7309,4.7309,4.7309,4.8418,5.0397,5.0397,5.1557,5.3518,5.3518,5.3518,5.3518,5.3518,5.3518,5.3518,5.3518,5.3518,5.3518,5.3518,5.3518,5.3518,5.3518,5.3518,5.3518,5.3518,5.3518,5.3551,5.3551,5.3551,5.3721,5.4465,5.5716,5.6799,5.6833,5.7374,5.7881,5.7881,5.7881,5.7881,5.7881,5.7881,5.7881,5.7881,5.7881,5.7645,5.6934,5.7442,5.7645,5.6934,5.6833,5.6833,5.6833,5.6833,5.6833,5.6833,5.7476,5.7881,5.7881,5.7881,5.7881,5.7881,5.7881,5.7881,5.7881,5.7881,5.7881,5.7881,5.6461,5.6122,5.6833,5.6833,5.7205,2.665,0.0,0.0,0.0,0.0,0.0,3.6308,3.7461,3.8948,4.3113,4.4021,4.4755,4.691,4.7309,4.7309,4.7309,4.7309,4.7538,4.8293,4.7764,4.7581,4.8293,4.7722,4.7309,4.7309,4.7309,4.7309,4.7309,4.7309,4.7309,4.7309,4.7309,4.7309,4.7309,4.7309,4.7309,4.7309,4.7309,4.7309,4.7309,4.7309,4.7309,4.7309,4.7309,4.8418,5.0397,5.0397,5.1557,5.3518,5.3518,5.3518,5.3518,5.3518,5.3518,5.3518,5.3518,5.3518,5.3518,5.3518,5.3518,5.3518,5.3518,5.3518,5.3518,5.3518,5.3856,5.4296,5.4296,5.4668,5.5277,5.5987,5.6494,5.6934,5.7476,5.7746,5.7881,5.7881,5.7881,5.7881,5.7881,5.7881,5.7881,5.7881,5.7881,5.7814,5.7611,5.7746,5.7814,5.7611,5.7577,5.7577,5.7577,5.7577,5.7577,5.7577,5.778,5.7881,5.7881,5.7881,5.7881,5.7881,5.7881,5.7881,5.7881,5.7881,5.7881,5.7881,5.6934,5.6867,5.7577,5.7577,5.7712,2.6901,2.7253,2.7921,2.9176,0.0,0.0,3.4331,3.5315,3.6692,4.0924,4.2522,4.3745,4.5432,4.6142,4.6561,4.686,4.689,4.7194,4.8054,4.803,4.7988,4.8126,4.803,4.7764,4.7352,4.7309,4.7309,4.7309,4.7309,4.7309,4.7309,4.7309,4.7309,4.7309,4.7309,4.7309,4.7309,4.7309,4.7309,4.7309,4.7309,4.7309,4.7309,4.7309,4.8198,4.9773,5.0204,5.1336,5.287,5.3314,5.3518,5.3518,5.3518,5.3518,5.3518,5.3518,5.3518,5.3518,5.3518,5.3518,5.3518,5.3518,5.3518,5.3518,5.3518,5.4025,5.46,5.46,5.5344,5.6258,5.6697,5.7036,5.7374,5.778,5.7881,5.7881,5.7881,5.7881,5.7881,5.7881,5.7881,5.7881,5.7881,5.7881,5.7881,5.7881,5.7881,5.7881,5.7881,5.7881,5.7881,5.7881,5.7881,5.7881,5.7881,5.7881,5.7881,5.7881,5.7881,5.7881,5.7881,5.7881,5.7881,5.7881,5.7881,5.7881,5.7881,5.7476,5.7476,5.7881,5.7881,5.7881,2.762,2.7871,0.0,3.0658,2.9729,0.0,3.3878,3.4659,3.5277,3.8058,4.0719,4.2682,4.3056,4.404,4.4989,4.5585,4.5968,4.6514,4.7362,4.8157,4.8335,4.7581,4.8126,4.8293,4.7366,4.7309,4.7309,4.7309,4.7309,4.7309,4.7309,4.7309,4.7309,4.7309,4.7309,4.7309,4.7309,4.7309,4.7309,4.7309,4.7309,4.7309,4.7309,4.7309,4.7849,4.8882,4.9931,5.0968,5.1993,5.3076,5.3518,5.3518,5.3518,5.3518,5.3518,5.3518,5.3518,5.3518,5.3518,5.3518,5.3518,5.3518,5.3518,5.3518,5.3518,5.4059,5.4769,5.4905,5.5919,5.6934,5.6934,5.7408,5.7881,5.7881,5.7881,5.7881,5.7881,5.7881,5.7881,5.7881,5.7881,5.7881,5.7881,5.7881,5.7881,5.7881,5.7881,5.7881,5.7881,5.7881,5.7881,5.7881,5.7881,5.7881,5.7881,5.7881,5.7881,5.7881,5.7881,5.7881,5.7881,5.7881,5.7881,5.7881,5.7881,5.7881,5.7881,5.7881,5.7881,5.7881,5.7881,5.7881,2.8775,2.9026,2.9453,2.9428,2.9779,0.0,3.0783,3.1211,3.228,3.5182,3.5884,3.6825,3.9676,4.1047,4.1762,4.1837,4.3915,4.6207,4.8234,4.7988,4.7849,4.846,4.7946,4.7538,4.7309,4.7309,4.7309,4.7309,4.7309,4.7309,4.7309,4.7309,4.7309,4.7309,4.7309,4.7309,4.7309,4.7309,4.7309,4.7309,4.7309,4.7309,4.7309,4.7309,4.7849,4.8882,4.9931,5.0968,5.1993,5.3076,5.3518,5.3518,5.3518,5.3518,5.3518,5.3518,5.3518,5.3518,5.3518,5.3518,5.3518,5.3518,5.3518,5.3518,5.3518,5.4431,5.575,5.69,5.7442,5.7679,5.7679,5.778,5.7881,5.7881,5.7881,5.7881,5.7881,5.7881,5.7881,5.7881,5.7881,5.7881,5.7881,5.7881,5.7881,5.7881,5.7881,5.7881,5.7881,5.7881,5.7881,5.7881,5.7881,5.7881,5.7881,5.7881,5.7881,5.7881,5.7881,5.7881,5.7881,5.7881,5.7881,5.7881,5.7881,5.7881,5.7881,5.7881,5.7881,5.7881,5.7881,5.7881,2.9654,2.9779,3.0256,3.0507,3.0382,0.0,0.0,3.1009,3.1322,3.3937,3.4249,3.4754,3.7094,3.8335,3.9344,4.0231,4.2315,4.4369,4.5829,4.7219,4.8072,4.8072,4.8072,4.7849,4.7352,4.7309,4.7309,4.7309,4.7309,4.7309,4.7309,4.7309,4.7309,4.7309,4.7309,4.7309,4.7309,4.7309,4.7309,4.7309,4.7309,4.7309,4.7309,4.7309,4.7581,4.8115,4.9166,5.0204,5.1229,5.2277,5.3041,5.3518,5.3518,5.3518,5.3518,5.3518,5.3518,5.3518,5.3518,5.3518,5.3518,5.3518,5.3518,5.3518,5.3518,5.4532,5.5953,5.7036,5.7611,5.7881,5.7881,5.7881,5.7881,5.7881,5.7881,5.7881,5.7881,5.7881,5.7881,5.7881,5.7881,5.7881,5.7881,5.7881,5.7881,5.7881,5.7881,5.7881,5.7881,5.7881,5.7881,5.7881,5.7881,5.7881,5.7881,5.7881,5.7881,5.7881,5.7881,5.7881,5.7881,5.7881,5.7881,5.7881,5.7881,5.7881,5.7881,5.7881,5.7881,5.7881,5.7881,5.7881,3.1009,3.0984,3.1537,3.2064,3.1386,3.0909,0.0,0.0,0.0,3.2792,3.3132,3.3541,3.4692,3.5776,3.7074,3.8755,4.0509,4.1831,4.2179,4.5132,4.7117,4.6766,4.7543,4.7873,4.7186,4.701,4.701,4.7279,4.707,4.704,4.7309,4.7309,4.7309,4.7309,4.7309,4.7309,4.7309,4.7309,4.7309,4.7309,4.7309,4.7309,4.7309,4.7309,4.7309,4.7352,4.8377,4.9416,5.0474,5.1521,5.2522,5.3518,5.3518,5.3518,5.3518,5.3518,5.3518,5.3518,5.3518,5.3518,5.3518,5.3518,5.3518,5.3551,5.3856,5.4769,5.5886,5.6765,5.7442,5.7881,5.7881,5.7881,5.7881,5.7881,5.7881,5.7881,5.7881,5.7881,5.7881,5.7881,5.7881,5.7881,5.7881,5.7881,5.7881,5.7881,5.7881,5.7881,5.7881,5.7881,5.7881,5.7881,5.7881,5.7881,5.7881,5.7881,5.7881,5.7881,5.7881,5.7881,5.7881,5.7881,5.7881,5.7881,5.7881,5.7881,5.7881,5.7881,5.7881,5.7881,5.7881,5.7881,3.3746,3.3847,3.3922,3.2566,3.2817,3.2867,3.0658,0.0,3.111,3.0407,0.0,3.0713,3.2135,0.0,0.0,3.5332,3.7572,3.9016,3.8485,4.0303,4.2438,4.4415,4.5278,4.5878,4.6381,4.5873,4.6022,4.7219,4.6202,4.6052,4.7249,4.7309,4.7309,4.7309,4.7309,4.7309,4.7309,4.7309,4.7309,4.7309,4.7309,4.7309,4.7309,4.7309,4.7309,4.7352,4.8377,4.9416,5.0474,5.1521,5.2522,5.3518,5.3518,5.3518,5.3518,5.3518,5.3518,5.3518,5.3518,5.3518,5.3518,5.3518,5.3518,5.3754,5.5074,5.5581,5.6021,5.7374,5.7814,5.7881,5.7881,5.7881,5.7881,5.7881,5.7881,5.7881,5.7881,5.7881,5.7881,5.7881,5.7881,5.7881,5.7881,5.7881,5.7881,5.7881,5.7881,5.7881,5.7881,5.7881,5.7881,5.7881,5.7881,5.7881,5.7881,5.7881,5.7881,5.7881,5.7881,5.7881,5.7881,5.7881,5.7881,5.7881,5.7881,5.7881,5.7881,5.7881,5.7881,5.7881,5.7881,5.7881,3.4123,3.4299,3.4474,3.3445,3.37,3.3782,3.1965,3.141,3.1229,3.1099,0.0,0.0,0.0,0.0,0.0,0.0,3.6209,3.7295,3.7533,3.8527,4.0089,4.2562,4.2981,4.3449,4.4456,4.4676,4.5125,4.6052,4.5603,4.5723,4.6681,4.71,4.7309,4.7309,4.7309,4.7309,4.7309,4.7309,4.7309,4.7309,4.7309,4.7309,4.7309,4.7309,4.7309,4.7309,4.7764,4.8882,5.0435,5.0855,5.2026,5.3518,5.3518,5.3518,5.3518,5.3518,5.3518,5.3518,5.3518,5.3518,5.3518,5.3518,5.3788,5.4262,5.4871,5.5683,5.6461,5.7103,5.7577,5.7881,5.7881,5.7881,5.7881,5.7881,5.7881,5.7881,5.7881,5.7881,5.7881,5.7881,5.7881,5.7881,5.7881,5.7881,5.7881,5.7881,5.7881,5.7881,5.7881,5.7881,5.7881,5.7881,5.7881,5.7881,5.7881,5.7881,5.7881,5.7881,5.7881,5.7881,5.7881,5.7881,5.7591,5.6925,5.6925,5.6586,5.6001,5.6001,5.6001,5.6041,5.7297,5.7881,3.5779,3.596,3.6089,3.4857,3.4758,3.4579,3.3061,3.2428,3.2209,3.2401,3.2128,0.0,0.0,0.0,3.4269,3.5258,0.0,3.617,3.6655,3.696,3.806,4.0567,4.1172,4.1833,4.297,4.3329,4.3928,4.4945,4.4706,4.5035,4.6262,4.677,4.713,4.7309,4.7309,4.7309,4.7309,4.7309,4.7309,4.7309,4.7309,4.7309,4.7309,4.7309,4.7309,4.7309,4.7309,4.8324,4.997,4.997,5.1192,5.3076,5.3076,5.3246,5.3518,5.3518,5.3518,5.3518,5.3518,5.3518,5.3518,5.3518,5.3991,5.4634,5.4837,5.5784,5.6833,5.7036,5.7476,5.7881,5.7881,5.7881,5.7881,5.7881,5.7881,5.7881,5.7881,5.7881,5.7881,5.7881,5.7881,5.7881,5.7881,5.7881,5.7881,5.7881,5.7628,5.7554,5.7845,5.7628,5.7554,5.7881,5.7881,5.7881,5.7881,5.7881,5.7881,5.7881,5.7881,5.7881,5.7881,5.7881,5.7517,5.6663,5.6663,5.6126,5.5043,5.5043,5.4879,5.4672,5.6547,5.7409,4.0211,4.0129,3.9853,3.6904,3.6132,3.5537,3.3165,3.3596,3.4297,3.3652,3.4529,3.5507,3.5827,3.5892,3.6044,3.6399,3.6131,0.0,0.0,3.5008,3.588,3.8251,4.0217,4.1692,4.2351,4.1871,4.2282,4.4197,4.3219,4.3638,4.613,4.6309,4.6651,4.7279,4.7309,4.7309,4.7309,4.7309,4.7309,4.7309,4.7309,4.7309,4.7309,4.7309,4.7309,4.7309,4.7309,4.7892,4.8851,4.8851,5.0055,5.1957,5.1957,5.2592,5.3518,5.3518,5.3518,5.3518,5.3518,5.3518,5.3518,5.3518,5.3991,5.4735,5.5446,5.6224,5.6934,5.7645,5.7881,5.7881,5.7881,5.7881,5.7881,5.7881,5.7881,5.7881,5.7881,5.7881,5.7881,5.7881,5.7881,5.7881,5.7881,5.7881,5.7881,5.7881,5.6963,5.6663,5.7772,5.6963,5.6663,5.7772,5.7881,5.7881,5.7881,5.7881,5.7881,5.7881,5.7881,5.7881,5.7881,5.7881,5.7881,5.7845,5.7845,5.7297,5.6165,5.6165,5.5651,5.463,5.577,5.6243,4.1328,4.1605,4.1412,3.8838,3.8302,3.7742,3.5394,3.5516,3.5894,3.474,3.5951,3.6957,3.6151,3.6512,3.6971,3.7101,3.6113,3.5317,0.0,3.4909,3.5248,3.6922,3.8871,3.9828,3.914,4.0098,4.1175,4.2282,4.241,4.312,4.4885,4.5843,4.6369,4.6651,4.707,4.7309,4.7309,4.7309,4.7309,4.7309,4.7309,4.7309,4.7309,4.7309,4.7309,4.7309,4.7309,4.8282,4.9813,4.9094,5.0016,5.1921,5.1921,5.2101,5.2522,5.3246,5.3518,5.3518,5.3518,5.3518,5.3585,5.4059,5.425,5.4346,5.5111,5.5314,5.5555,5.652,5.6778,5.6963,5.7701,5.7881,5.7881,5.7881,5.7881,5.7881,5.7881,5.7881,5.7881,5.7881,5.7881,5.7881,5.7881,5.7881,5.7628,5.6887,5.6437,5.6321,5.6739,5.6437,5.6624,5.7772,5.7881,5.7881,5.7881,5.7222,5.7076,5.7845,5.7222,5.7114,5.7881,5.7881,5.7554,5.6778,5.6778,5.5857,5.4009,5.4009,5.3439,5.235,5.3483,5.4806,4.318,4.3507,4.345,4.1224,4.0775,4.0217,3.7762,3.8099,3.8538,3.7214,3.8157,3.9065,3.8684,3.8328,3.8123,0.0,0.0,3.5776,0.0,3.513,3.516,3.6028,3.7464,3.8302,3.8153,3.8661,3.9768,4.1632,4.1512,4.2192,4.4197,4.5364,4.6082,4.6279,4.695,4.7309,4.7309,4.7309,4.7309,4.7309,4.7309,4.7309,4.7309,4.7309,4.7309,4.7309,4.7309,4.803,4.9247,4.8543,4.9256,5.0784,5.0784,5.1266,5.2029,5.311,5.3518,5.3518,5.3518,5.3687,5.3889,5.3948,5.418,5.441,5.4483,5.4544,5.4755,5.545,5.5929,5.636,5.7114,5.7591,5.7881,5.7881,5.7881,5.7881,5.7881,5.7881,5.7881,5.7881,5.7881,5.7881,5.7881,5.7881,5.7628,5.6925,5.6437,5.636,5.6739,5.6437,5.6624,5.7772,5.7881,5.7772,5.7335,5.6624,5.6321,5.6696,5.6432,5.6547,5.726,5.7665,5.7554,5.6816,5.6778,5.573,5.3483,5.3483,5.2678,5.1229,5.235,5.3656]}]]